[[{"header":{"parameterUnit":"m.s-1","parameterCategory":1,"la1":30.6,"la2":29.2853,"lo1":-89.7004,"lo2":-87.6739,"dy":0.0162,"dx":0.0183,"nx":112,"ny":82,"refTime":"2023-04-07T18:00:00:Z","depth":0,"parameterNumber":2,"parameterNumberName":"U-component_of_WINDS"},"data":[0.0,0.0,0.0,0.0,0.0,0.0,0.0,0.0,0.0,0.0,0.0,0.0,0.0,0.0,0.0,0.0,0.0,0.0,0.0,0.0,0.0,0.0,0.0,0.0,0.0,0.0,0.0,0.0,0.0,0.0,0.0,0.0,0.0,0.0,0.0,0.0,0.0,0.0,0.0,0.0,0.0,0.0,0.0,0.0,0.0,0.0,0.0,0.0,0.0,0.0,0.0,0.0,0.0,0.0,0.0,0.0,0.0,0.0,0.0,0.0,0.0,0.0,0.0,0.0,0.0,0.0,0.0,0.0,0.0,0.0,0.0,0.0,0.0,0.0,0.0,0.0,0.0,0.0,0.0,0.0,0.0,0.0,0.0,0.0,0.0,0.0,0.0,0.0,0.0,0.0,1.5813,1.5813,1.591,1.6007,1.6007,1.6007,1.5942,1.5829,0.0,0.0,0.0,0.0,0.0,0.0,0.0,0.0,0.0,0.0,0.0,0.0,0.0,0.0,0.0,0.0,0.0,0.0,0.0,0.0,0.0,0.0,0.0,0.0,0.0,0.0,0.0,0.0,0.0,0.0,0.0,0.0,0.0,0.0,0.0,0.0,0.0,0.0,0.0,0.0,0.0,0.0,0.0,0.0,0.0,0.0,0.0,0.0,0.0,0.0,0.0,0.0,0.0,0.0,0.0,0.0,0.0,0.0,0.0,0.0,0.0,0.0,0.0,0.0,0.0,0.0,0.0,0.0,0.0,0.0,0.0,0.0,0.0,0.0,0.0,0.0,0.0,0.0,0.0,0.0,0.0,0.0,0.0,0.0,0.0,0.0,0.0,0.0,0.0,0.0,0.0,0.0,0.0,0.0,0.0,0.0,0.0,0.0,0.0,0.0,0.0,0.0,0.0,0.0,1.5966,1.5966,1.5991,1.6007,1.6007,1.6007,1.5991,1.5966,0.0,0.0,0.0,0.0,0.0,0.0,0.0,0.0,0.0,0.0,0.0,0.0,0.0,0.0,0.0,0.0,0.0,0.0,0.0,0.0,0.0,0.0,0.0,0.0,0.0,0.0,0.0,0.0,0.0,0.0,0.0,0.0,0.0,0.0,0.0,0.0,0.0,0.0,0.0,0.0,0.0,0.0,0.0,0.0,0.0,0.0,0.0,0.0,0.0,0.0,0.0,0.0,0.0,0.0,0.0,0.0,0.0,0.0,0.0,0.0,0.0,0.0,0.0,0.0,0.0,0.0,0.0,0.0,0.0,0.0,0.0,0.0,0.0,0.0,0.0,0.0,0.0,0.0,0.0,0.0,0.0,0.0,0.0,0.0,0.0,0.0,0.0,0.0,0.0,0.0,0.0,0.0,0.0,0.0,0.0,0.0,0.0,0.0,0.0,0.0,0.0,0.0,0.0,1.6007,1.6007,1.6007,1.6088,1.6145,1.6145,1.6276,1.6292,1.6153,1.6105,0.0,0.0,0.0,0.0,0.0,0.0,0.0,0.0,0.0,0.0,0.0,0.0,0.0,0.0,0.0,0.0,0.0,0.0,0.0,0.0,0.0,0.0,0.0,0.0,0.0,0.0,0.0,0.0,0.0,0.0,0.0,0.0,0.0,0.0,0.0,0.0,0.0,0.0,0.0,0.0,0.0,0.0,0.0,0.0,0.0,0.0,0.0,0.0,0.0,0.0,0.0,0.0,0.0,0.0,0.0,0.0,0.0,0.0,0.0,0.0,0.0,0.0,0.0,0.0,0.0,0.0,0.0,0.0,0.0,0.0,0.0,0.0,0.0,0.0,0.0,0.0,0.0,0.0,0.0,0.0,0.0,0.0,0.0,0.0,0.0,0.0,0.0,0.0,0.0,0.0,0.0,0.0,0.0,0.0,0.0,0.0,0.0,0.0,0.0,0.0,0.0,0.0,1.6104,1.6128,1.6128,1.6292,1.6373,1.6373,1.6503,1.6519,1.6381,1.6373,0.0,0.0,0.0,0.0,0.0,0.0,0.0,0.0,0.0,0.0,0.0,0.0,0.0,0.0,0.0,0.0,0.0,0.0,0.0,0.0,0.0,0.0,0.0,0.0,0.0,0.0,0.0,0.0,0.0,0.0,0.0,0.0,0.0,0.0,0.0,0.0,0.0,0.0,0.0,0.0,0.0,0.0,0.0,0.0,0.0,0.0,0.0,0.0,0.0,0.0,0.0,0.0,0.0,0.0,0.0,0.0,0.0,0.0,0.0,0.0,0.0,0.0,0.0,0.0,0.0,0.0,0.0,0.0,0.0,0.0,0.0,0.0,0.0,0.0,0.0,0.0,0.0,0.0,0.0,0.0,0.0,0.0,0.0,0.0,0.0,0.0,0.0,0.0,0.0,0.0,0.0,0.0,0.0,0.0,0.0,0.0,0.0,0.0,0.0,0.0,0.0,0.0,1.6438,1.6544,1.6544,1.6552,1.656,1.656,1.6568,1.6576,1.656,1.656,0.0,0.0,0.0,0.0,0.0,0.0,0.0,0.0,0.0,0.0,0.0,0.0,0.0,0.0,0.0,0.0,0.0,0.0,0.0,0.0,0.0,0.0,0.0,0.0,0.0,0.0,0.0,0.0,0.0,0.0,0.0,0.0,0.0,0.0,0.0,0.0,0.0,0.0,0.0,0.0,0.0,0.0,0.0,0.0,0.0,0.0,0.0,0.0,0.0,0.0,0.0,0.0,0.0,0.0,0.0,0.0,0.0,0.0,0.0,0.0,0.0,0.0,0.0,0.0,0.0,0.0,0.0,0.0,0.0,0.0,0.0,0.0,0.0,0.0,0.0,0.0,0.0,0.0,0.0,0.0,0.0,0.0,0.0,0.0,0.0,0.0,0.0,0.0,0.0,0.0,0.0,0.0,0.0,0.0,0.0,0.0,0.0,0.0,0.0,0.0,0.0,0.0,1.6535,1.6584,1.6584,1.6682,1.6704,1.6704,1.6852,1.686,1.6712,0.0,0.0,0.0,0.0,0.0,0.0,0.0,0.0,0.0,0.0,0.0,0.0,0.0,0.0,0.0,0.0,0.0,0.0,0.0,0.0,0.0,0.0,0.0,0.0,0.0,0.0,0.0,0.0,0.0,0.0,0.0,0.0,0.0,0.0,0.0,0.0,0.0,0.0,0.0,0.0,0.0,0.0,0.0,0.0,0.0,0.0,0.0,0.0,0.0,0.0,0.0,0.0,0.0,0.0,0.0,0.0,0.0,0.0,0.0,0.0,0.0,0.0,0.0,0.0,0.0,0.0,0.0,0.0,0.0,0.0,0.0,0.0,0.0,0.0,0.0,0.0,0.0,0.0,0.0,0.0,0.0,0.0,0.0,0.0,0.0,0.0,0.0,0.0,0.0,0.0,0.0,0.0,0.0,0.0,0.0,0.0,0.0,0.0,0.0,0.0,0.0,0.0,1.6665,1.6714,1.6747,1.6747,1.686,1.689,1.689,1.7039,1.7063,1.6898,0.0,0.0,0.0,0.0,0.0,0.0,0.0,0.0,0.0,0.0,0.0,0.0,0.0,0.0,0.0,0.0,0.0,0.0,0.0,0.0,0.0,0.0,0.0,0.0,0.0,0.0,0.0,0.0,0.0,0.0,0.0,0.0,0.0,0.0,0.0,0.0,0.0,0.0,0.0,0.0,0.0,0.0,0.0,0.0,0.0,0.0,0.0,0.0,0.0,0.0,0.0,0.0,0.0,0.0,0.0,0.0,0.0,0.0,0.0,0.0,0.0,0.0,0.0,0.0,0.0,0.0,0.0,0.0,0.0,0.0,0.0,0.0,0.0,0.0,0.0,0.0,0.0,0.0,0.0,0.0,0.0,0.0,0.0,0.0,0.0,0.0,0.0,0.0,0.0,0.0,0.0,0.0,0.0,0.0,0.0,0.0,0.0,0.0,0.0,0.0,0.0,0.0,1.6809,1.6963,1.7112,1.7112,1.7112,1.7112,1.7112,1.7112,1.7112,0.0,0.0,0.0,0.0,0.0,0.0,0.0,0.0,0.0,0.0,0.0,0.0,0.0,0.0,0.0,0.0,0.0,0.0,0.0,0.0,0.0,0.0,0.0,0.0,0.0,0.0,0.0,0.0,0.0,0.0,0.0,0.0,0.0,0.0,0.0,0.0,0.0,0.0,0.0,0.0,0.0,0.0,0.0,0.0,0.0,0.0,0.0,0.0,0.0,0.0,0.0,0.0,0.0,0.0,0.0,0.0,0.0,0.0,0.0,0.0,0.0,0.0,0.0,0.0,0.0,0.0,0.0,0.0,0.0,0.0,0.0,0.0,0.0,0.0,0.0,0.0,0.0,0.0,0.0,0.0,0.0,0.0,0.0,0.0,0.0,0.0,0.0,0.0,0.0,0.0,0.0,0.0,0.0,0.0,0.0,0.0,0.0,0.0,0.0,0.0,0.0,0.0,0.0,1.6995,1.708,1.7112,1.7112,1.7112,1.7112,1.7112,1.7112,1.7112,1.7112,0.0,0.0,0.0,0.0,0.0,0.0,0.0,0.0,0.0,0.0,0.0,0.0,0.0,0.0,0.0,0.0,0.0,0.0,0.0,0.0,0.0,0.0,0.0,0.0,0.0,0.0,0.0,0.0,0.0,0.0,0.0,0.0,0.0,0.0,0.0,0.0,0.0,0.0,0.0,0.0,0.0,0.0,0.0,0.0,0.0,0.0,0.0,0.0,0.0,0.0,0.0,0.0,0.0,0.0,0.0,0.0,0.0,0.0,0.0,0.0,0.0,0.0,0.0,0.0,0.0,0.0,0.0,0.0,0.0,0.0,0.0,0.0,0.0,0.0,0.0,0.0,0.0,0.0,0.0,0.0,0.0,0.0,0.0,0.0,0.0,0.0,0.0,0.0,0.0,0.0,0.0,0.0,0.0,0.0,0.0,0.0,0.0,0.0,0.0,0.0,0.0,0.0,1.7112,1.7112,1.7112,1.7112,1.7112,1.7112,1.7112,1.7112,1.7112,1.7112,0.0,0.0,0.0,0.0,0.0,0.0,0.0,0.0,0.0,0.0,0.0,0.0,0.0,0.0,0.0,0.0,0.0,0.0,0.0,0.0,0.0,0.0,0.0,0.0,0.0,0.0,0.0,0.0,0.0,0.0,0.0,0.0,0.0,0.0,0.0,0.0,0.0,0.0,0.0,0.0,0.0,0.0,0.0,0.0,0.0,0.0,0.0,0.0,0.0,0.0,0.0,0.0,0.0,0.0,0.0,0.0,0.0,0.0,0.0,0.0,0.0,0.0,0.0,0.0,0.0,0.0,0.0,0.0,0.0,0.0,0.0,0.0,0.0,0.0,0.0,0.0,0.0,0.0,0.0,0.0,0.0,0.0,0.0,0.0,0.0,0.0,0.0,0.0,0.0,0.0,0.0,0.0,0.0,0.0,0.0,0.0,0.0,0.0,0.0,0.0,0.0,0.0,1.7112,1.7128,1.7136,1.7136,1.7153,1.7153,1.7136,1.7136,1.7128,1.7112,0.0,0.0,0.0,0.0,0.0,0.0,0.0,0.0,0.0,0.0,0.0,0.0,0.0,0.0,0.0,0.0,0.0,0.0,0.0,0.0,0.0,0.0,0.0,0.0,0.0,0.0,0.0,0.0,0.0,0.0,0.0,0.0,0.0,0.0,0.0,0.0,0.0,0.0,0.0,0.0,0.0,0.0,0.0,0.0,0.0,0.0,0.0,0.0,0.0,0.0,0.0,0.0,0.0,0.0,0.0,0.0,0.0,0.0,0.0,0.0,1.752,1.7595,0.0,0.0,0.0,0.0,0.0,0.0,0.0,0.0,0.0,0.0,0.0,0.0,0.0,0.0,0.0,0.0,0.0,0.0,0.0,0.0,0.0,0.0,0.0,0.0,0.0,0.0,0.0,0.0,0.0,0.0,0.0,0.0,0.0,0.0,0.0,0.0,0.0,0.0,0.0,0.0,1.7112,1.7242,1.7331,1.7331,1.7445,1.7425,1.7339,1.7331,1.7266,1.712,1.7112,0.0,0.0,0.0,0.0,0.0,0.0,0.0,0.0,0.0,0.0,0.0,0.0,0.0,0.0,0.0,0.0,0.0,0.0,0.0,0.0,0.0,0.0,0.0,0.0,0.0,0.0,0.0,0.0,0.0,0.0,0.0,0.0,0.0,0.0,0.0,0.0,0.0,0.0,0.0,0.0,0.0,0.0,0.0,0.0,0.0,0.0,0.0,0.0,0.0,0.0,0.0,0.0,0.0,0.0,0.0,0.0,0.0,0.0,0.0,1.7983,1.7908,0.0,0.0,0.0,0.0,0.0,0.0,0.0,0.0,0.0,0.0,0.0,0.0,0.0,0.0,0.0,0.0,0.0,0.0,0.0,0.0,0.0,0.0,0.0,0.0,0.0,0.0,0.0,0.0,0.0,0.0,0.0,0.0,0.0,0.0,0.0,0.0,0.0,0.0,0.0,0.0,1.7319,1.7453,1.751,1.751,1.7546,1.7562,1.7518,1.751,1.7469,1.7372,1.7319,0.0,0.0,0.0,0.0,0.0,0.0,0.0,0.0,0.0,0.0,0.0,0.0,0.0,0.0,0.0,0.0,0.0,0.0,0.0,0.0,0.0,0.0,0.0,0.0,0.0,0.0,0.0,0.0,0.0,0.0,0.0,0.0,0.0,0.0,0.0,0.0,0.0,0.0,0.0,0.0,0.0,0.0,0.0,0.0,0.0,0.0,0.0,0.0,0.0,0.0,0.0,0.0,0.0,1.8116,1.8286,1.8657,1.8477,1.8392,1.8392,1.8392,1.8193,1.7879,1.8399,0.0,0.0,0.0,0.0,0.0,0.0,0.0,0.0,0.0,0.0,0.0,0.0,0.0,0.0,0.0,0.0,0.0,0.0,0.0,0.0,0.0,0.0,1.7396,1.7729,1.7781,1.7781,1.7781,0.0,0.0,0.0,0.0,0.0,0.0,0.0,0.0,0.0,0.0,0.0,1.7595,1.7619,1.7643,1.7643,1.7668,1.7676,1.7643,1.7643,1.7627,1.7595,1.7595,1.7595,0.0,0.0,0.0,0.0,0.0,0.0,0.0,0.0,0.0,0.0,0.0,0.0,0.0,0.0,0.0,0.0,0.0,0.0,0.0,0.0,0.0,0.0,0.0,0.0,0.0,0.0,0.0,0.0,0.0,0.0,0.0,0.0,1.7374,1.7104,0.0,0.0,0.0,0.0,0.0,0.0,0.0,0.0,0.0,0.0,0.0,0.0,0.0,1.8623,1.9069,1.8553,1.8581,1.9107,1.86,1.8383,1.8439,1.8402,1.8392,1.8392,1.8392,0.0,1.8316,1.8402,0.0,0.0,0.0,0.0,0.0,0.0,0.0,0.0,0.0,0.0,0.0,0.0,0.0,0.0,0.0,0.0,0.0,0.0,0.0,0.0,0.0,0.0,1.8201,1.8467,1.8534,1.8534,1.8534,1.804,1.7595,1.7595,1.7595,1.7595,0.0,0.0,0.0,0.0,0.0,0.0,1.7595,1.7732,1.7884,1.7884,1.8014,1.8046,1.7892,1.7884,1.7765,1.7603,1.7595,1.7595,1.7595,1.7595,0.0,0.0,0.0,0.0,0.0,0.0,0.0,0.0,0.0,0.0,0.0,0.0,0.0,0.0,0.0,0.0,0.0,0.0,0.0,0.0,0.0,0.0,0.0,0.0,0.0,0.0,0.0,0.0,0.0,1.8241,1.8495,1.829,1.8417,1.8456,0.0,0.0,0.0,0.0,0.0,0.0,0.0,0.0,0.0,1.8743,1.8947,1.906,1.8959,1.8815,1.8872,1.9132,1.8996,1.8923,1.8923,1.8923,1.8923,1.8923,1.8923,1.8923,1.8904,1.8676,1.861,1.8695,0.0,0.0,0.0,0.0,1.9155,1.9146,1.9061,1.9023,1.9042,1.9155,0.0,0.0,0.0,0.0,0.0,0.0,0.0,1.8496,1.822,1.8296,1.8501,1.8669,1.868,1.868,1.868,1.8429,1.8202,1.8202,1.8202,1.8202,1.8202,1.8202,0.0,0.0,0.0,1.8202,1.8202,1.8322,1.8371,1.8371,1.8436,1.8452,1.8379,1.8371,1.8291,1.821,1.8202,1.8202,1.8202,1.8202,1.82,0.0,0.0,0.0,0.0,0.0,0.0,0.0,0.0,0.0,0.0,0.0,0.0,0.0,0.0,0.0,0.0,0.0,0.0,0.0,0.0,0.0,0.0,0.0,0.0,0.0,0.0,0.0,0.0,1.8887,1.9145,1.9224,1.8937,1.8818,0.0,0.0,0.0,0.0,0.0,0.0,1.9084,1.941,1.9451,1.9093,1.9385,1.9336,1.891,1.9061,1.9226,1.9297,1.9458,1.9533,1.9533,1.9533,1.9533,1.9533,1.9477,1.9486,1.9495,1.9032,1.8847,1.8828,1.9099,1.925,1.9306,1.942,1.942,1.9373,1.9316,1.9297,1.9335,1.9533,1.9374,1.9095,1.9241,0.0,0.0,0.0,0.0,1.9009,1.8903,1.8891,1.8922,1.8959,1.8922,1.8858,1.8858,1.8858,1.8834,1.8744,1.868,1.868,1.868,1.868,0.0,1.868,1.868,1.868,1.868,1.868,1.868,1.868,1.868,1.868,1.868,1.868,1.868,1.868,1.868,1.868,1.868,1.868,1.8663,1.8573,0.0,0.0,0.0,0.0,0.0,0.0,0.0,0.0,0.0,0.0,0.0,0.0,0.0,0.0,0.0,0.0,0.0,0.0,0.0,0.0,0.0,0.0,0.0,0.0,0.0,0.0,0.0,0.0,0.0,1.8983,1.8995,0.0,0.0,0.0,0.0,1.8989,1.9362,1.9509,1.9311,1.9497,1.9519,1.9278,1.9278,1.9373,1.9552,1.9562,1.976,2.0157,2.0166,2.0176,2.0176,2.0176,2.0176,2.0166,1.9924,1.9996,2.0129,1.9514,1.9495,1.9845,1.9864,1.9987,2.0138,1.9959,1.976,1.9552,1.9363,1.9297,1.9335,1.9533,1.9516,1.9487,1.9496,1.9588,0.0,0.0,1.9698,2.0295,1.9782,1.9751,1.9798,1.9697,1.9445,1.9281,1.9281,1.9281,1.9183,1.8793,1.868,1.868,1.868,0.0,1.868,1.868,1.868,1.868,1.868,1.868,1.868,1.868,1.868,1.868,1.868,1.868,1.868,1.868,1.868,1.868,1.868,1.868,1.872,1.8712,1.8712,0.0,0.0,0.0,0.0,0.0,0.0,0.0,0.0,0.0,0.0,0.0,0.0,0.0,0.0,0.0,0.0,0.0,0.0,0.0,0.0,0.0,0.0,0.0,0.0,0.0,0.0,0.0,0.0,1.9706,1.942,0.0,1.9532,1.9425,1.9257,1.9017,1.9381,1.9645,1.9675,1.9747,1.9871,2.0091,2.0056,2.0094,2.016,2.016,2.0235,2.0386,2.0386,2.0386,2.0386,2.0386,2.0386,2.0377,2.0311,2.032,2.0367,2.0141,1.9949,1.9713,1.9713,1.976,1.9826,1.9892,1.9873,1.9798,1.9722,1.9703,1.9732,1.993,1.9968,1.9932,1.975,1.9752,1.9761,1.9581,1.9806,2.0087,2.0123,2.0138,2.0054,1.99,1.9726,1.9597,1.9597,1.9597,1.9565,1.9435,1.9224,1.9102,1.9216,1.9232,1.9272,1.9394,1.9305,1.9232,1.9232,1.9134,1.9069,1.9069,1.9069,1.9069,1.9069,1.9069,1.9069,1.9069,1.9069,1.9069,1.9069,1.9069,1.9013,1.8891,1.8891,1.8834,0.0,0.0,0.0,0.0,0.0,0.0,0.0,0.0,0.0,0.0,0.0,0.0,0.0,0.0,0.0,0.0,0.0,0.0,0.0,0.0,0.0,0.0,0.0,0.0,0.0,1.93,1.9548,2.015,1.9962,1.9836,1.992,1.9962,1.978,1.9434,1.9646,1.9909,2.01,2.0062,2.0141,2.049,2.0499,2.0528,2.0594,2.0594,2.0631,2.0752,2.0752,2.0752,2.0752,2.0752,2.0752,2.0752,2.0752,2.0752,2.0752,2.0631,2.0349,2.0015,2.0015,2.0015,2.0034,2.0132,2.0141,2.0085,2.0085,2.0132,2.0207,2.0339,2.0478,2.0537,2.0417,2.0344,2.0307,2.0372,2.0335,2.0354,2.0622,2.0481,2.0268,2.0179,1.9983,1.9792,1.9792,1.9792,1.9792,1.9792,1.9597,1.9525,1.9589,1.9605,1.9646,1.9768,1.9687,1.9605,1.9605,1.9508,1.9485,1.9485,1.9485,1.9485,1.9485,1.9485,1.9485,1.9485,1.9485,1.9485,1.9485,1.9485,1.9354,1.9167,1.9159,1.9134,1.9086,0.0,0.0,0.0,0.0,0.0,0.0,0.0,0.0,0.0,0.0,0.0,0.0,0.0,0.0,0.0,0.0,0.0,0.0,0.0,0.0,0.0,0.0,0.0,1.9316,1.9696,2.0112,2.0285,2.0552,2.072,2.0621,2.0617,2.0487,2.0248,2.0214,2.0318,2.049,2.0355,2.0346,2.0518,2.0528,2.0631,2.082,2.0829,2.0979,2.1224,2.1224,2.1224,2.1214,2.1214,2.1214,2.1214,2.1214,2.1214,2.1195,2.0941,2.0801,2.0801,2.0792,2.0782,2.0782,2.0782,2.066,2.0499,2.0499,2.0631,2.0792,2.0792,2.0998,2.1262,2.1461,2.1385,2.1281,2.147,2.1385,2.1233,2.1233,2.0844,2.0522,2.0522,2.0174,1.9825,1.9825,1.9825,1.9825,1.9825,1.9825,1.9817,1.98,1.98,1.98,1.98,1.98,0.0,1.98,1.9792,1.9792,1.9792,1.9792,1.9792,1.9792,1.9792,1.9792,1.9792,1.9792,1.9792,1.9792,1.9792,1.9703,1.9524,1.9524,1.9613,1.9792,0.0,0.0,0.0,0.0,0.0,0.0,0.0,0.0,0.0,0.0,0.0,0.0,0.0,0.0,0.0,0.0,0.0,0.0,0.0,0.0,0.0,2.0797,2.0607,1.9414,1.9914,2.0438,2.0444,2.0842,2.1199,2.1369,2.0754,2.0421,2.0744,2.0798,2.0775,2.0743,2.1166,2.1365,2.1252,2.1367,2.1471,2.1527,2.1527,2.148,2.1432,2.1432,2.1356,2.1214,2.1214,2.1214,2.1214,2.1214,2.1214,2.1214,2.1102,2.1083,2.1045,2.0743,2.0575,2.0575,2.0575,2.0547,2.0499,2.0499,2.0631,2.0792,2.0792,2.1083,2.1442,2.1499,2.1537,2.1631,2.1688,2.166,2.1622,2.1622,2.1363,2.1059,2.1059,2.0848,2.0616,2.0616,2.0616,2.0616,2.0616,2.0616,2.0494,2.0052,2.0038,2.0036,2.0158,2.0068,2.0038,2.0038,1.9873,1.9792,1.9792,1.9792,1.9792,1.9792,1.9792,1.9792,1.9792,1.9792,1.9792,1.9792,1.9792,1.9768,1.9711,1.9711,1.9735,0.0,0.0,0.0,0.0,0.0,0.0,0.0,0.0,0.0,0.0,0.0,0.0,0.0,0.0,0.0,0.0,0.0,0.0,0.0,0.0,0.0,0.0,2.12,2.1195,2.0229,2.0705,2.1146,2.1124,2.1387,2.1646,2.1909,2.1418,2.1183,2.1494,2.1694,2.166,2.1225,2.1824,2.2034,2.165,2.1726,2.1792,2.1792,2.1792,2.1726,2.165,2.165,2.1546,2.1433,2.1433,2.1433,2.1433,2.1433,2.1433,2.1433,2.1433,2.1433,2.1385,0.0,0.0,0.0,0.0,2.1018,2.1018,2.1018,2.114,2.1244,2.1244,2.1461,2.1792,2.183,2.1799,2.1728,2.1812,2.1581,2.141,2.1652,2.1407,2.1164,2.1367,2.1169,2.091,2.091,2.091,2.091,2.091,2.091,0.0,2.0502,2.0445,2.0486,2.0531,2.0511,2.0445,2.0445,2.0356,2.0231,2.0231,2.0231,2.0231,2.0231,2.0231,0.0,0.0,0.0,2.0093,2.0011,1.9946,0.0,0.0,0.0,1.9938,2.0011,2.0011,0.0,0.0,1.9808,1.9735,0.0,0.0,0.0,0.0,0.0,0.0,0.0,0.0,0.0,0.0,0.0,0.0,0.0,0.0,0.0,0.0,2.1096,2.1431,2.1541,2.1886,2.2146,2.214,2.2115,2.2206,2.2566,2.245,2.2346,2.2315,2.2766,2.2668,2.183,2.2373,0.0,0.0,0.0,2.1858,2.1858,2.1886,2.1886,2.1858,2.1886,2.1886,2.1858,2.1858,2.1858,2.1858,2.1858,2.1858,2.1858,2.1858,2.1858,2.182,2.1404,2.1394,2.1574,2.1716,2.1792,2.1792,2.1792,0.0,0.0,2.1782,2.1942,2.2227,2.2329,2.2051,2.1712,2.1895,2.1366,2.0887,2.1429,2.1208,2.096,2.1422,2.1226,2.0942,2.0942,2.095,2.0967,2.0967,2.0967,2.0967,2.0967,2.0934,2.091,2.091,2.091,2.091,2.091,2.091,2.091,2.091,2.091,0.0,2.091,2.091,2.0844,2.0637,2.0629,2.0556,2.0385,2.0239,2.0223,2.0377,2.0231,2.0231,2.0377,2.0377,2.0377,2.0369,2.0011,1.9849,0.0,0.0,0.0,0.0,0.0,0.0,0.0,0.0,0.0,0.0,0.0,0.0,0.0,0.0,0.0,2.1915,2.1846,2.2116,2.3118,2.3106,2.3086,2.3106,2.3266,2.3603,2.4243,2.3243,2.2708,2.3071,2.3176,2.2827,2.1839,2.2806,2.299,2.2086,2.2189,2.2274,2.2274,2.2444,2.2444,2.2274,2.2453,0.0,2.2274,2.2274,2.2274,2.2274,2.2274,2.2274,2.2274,2.2274,2.2274,2.2236,2.183,2.1697,2.1735,2.1773,2.1792,2.1792,2.1792,2.2,2.2197,2.1601,2.2054,2.2713,2.2193,2.2017,0.0,2.2141,2.172,2.1291,2.1392,2.125,2.1094,2.1146,2.1155,2.1075,2.1075,2.1181,2.1278,2.1278,2.1278,2.1278,2.1278,2.1097,2.091,2.091,2.091,2.091,2.091,2.091,2.091,2.091,2.091,2.091,2.091,2.091,2.0893,2.0861,2.0861,2.0844,2.0804,2.0771,2.0771,2.0804,2.0771,2.0771,2.0804,2.0804,2.0804,2.0796,2.0385,2.0214,0.0,0.0,0.0,0.0,0.0,0.0,0.0,0.0,0.0,0.0,0.0,2.2847,2.2066,0.0,2.2667,2.2778,2.248,2.2589,2.3723,2.3543,2.3486,2.4018,2.3764,2.3832,2.4702,2.3662,2.3097,2.3398,2.3455,2.3075,2.2133,2.2916,2.3072,2.2397,2.2501,2.2595,2.2699,2.2812,2.2812,2.2699,2.2812,2.2803,2.2699,2.2699,2.2699,2.2699,2.2699,2.2699,2.2699,2.2699,2.2699,2.268,2.2482,2.234,2.2264,2.2368,2.2406,2.2406,2.2406,2.2538,2.259,2.1943,2.2181,2.2646,2.1997,2.175,2.1747,2.1994,2.1687,2.1439,2.1943,2.1906,2.1708,2.1708,2.1599,2.1449,2.1178,2.1254,2.1384,2.1384,2.1384,2.1384,2.1384,2.1238,2.117,2.117,2.117,2.117,2.117,2.117,2.117,2.117,2.117,2.117,2.117,2.1043,2.0994,2.0994,2.0958,2.091,2.091,2.091,2.091,2.091,2.091,2.091,2.091,2.091,2.091,2.0901,2.0669,2.0588,0.0,0.0,0.0,0.0,0.0,0.0,0.0,2.2996,2.3074,2.2429,2.3251,2.3861,2.3163,2.3422,2.3692,2.35,2.3049,2.3079,2.4161,2.3871,2.3891,2.4842,2.4193,2.3992,2.4842,2.4034,2.3516,2.3749,2.3614,2.3267,2.255,2.3051,2.3138,2.2765,2.2775,2.285,2.3011,2.3058,2.3077,2.3077,2.3115,2.3134,2.3134,2.3134,2.3134,2.3134,2.3134,2.3134,2.3134,2.3134,2.3134,2.3134,2.3134,2.303,2.2907,2.2983,2.3011,2.3011,2.3011,2.3039,2.2976,2.242,2.2456,2.263,2.2065,2.1656,2.1466,2.1873,2.1518,2.1258,2.2236,2.2308,2.2074,2.2109,2.2015,2.1786,2.1224,2.1254,2.1384,2.1384,2.1384,2.1384,2.1384,2.1384,2.1384,2.1384,2.1384,2.1384,2.1384,2.1384,2.1384,2.1384,2.1384,2.1384,2.1384,2.1254,2.1173,2.1173,2.1035,2.1015,2.1015,2.1015,2.1015,2.1015,2.1015,2.1015,2.1015,2.1015,2.1015,2.1015,2.1015,2.0975,2.4064,2.324,2.3159,2.3217,2.3366,2.3327,0.0,2.3221,2.347,2.2575,2.3308,2.3861,2.3163,2.3592,2.4067,2.3994,2.3752,2.3933,2.495,2.4773,2.4754,2.5346,2.5163,2.5121,2.5373,2.4511,2.403,2.4214,2.378,2.3323,2.2935,2.3446,2.3506,2.2983,2.2983,2.2992,2.3011,2.32,2.3243,2.3253,2.3432,2.3517,2.3517,2.3517,2.3517,2.3517,2.3517,2.3517,2.3517,2.3517,2.3517,2.3517,2.3517,2.3498,2.3441,2.3143,2.3011,2.3011,2.3011,2.3143,2.3202,2.2641,2.2923,2.339,2.2831,2.2322,2.1925,2.1977,2.1249,2.0529,2.1206,2.1379,2.1334,2.1451,2.1646,2.1618,2.12,2.1254,2.1384,2.1384,2.1384,2.1384,2.1384,2.1384,2.1384,2.1384,2.1384,2.1384,2.1384,2.1384,2.1384,2.1384,2.1384,2.1384,2.1384,2.136,2.136,2.136,2.1343,2.1319,2.1319,2.1319,2.1319,2.1319,2.1319,2.1319,2.1319,2.1319,2.1319,2.1319,2.1319,2.1157,2.3221,2.2922,2.3251,2.3127,2.3261,2.3504,2.3698,2.4055,2.4273,2.3902,2.4162,2.4452,2.4309,2.4282,2.4445,2.4859,2.4339,2.4258,2.5464,2.5229,2.5187,2.5818,2.5852,2.5723,2.5539,2.4719,2.4204,2.4295,2.362,2.3126,2.3011,2.3212,2.3269,2.32,2.3149,2.3206,2.337,2.3413,2.346,2.346,2.3545,2.3583,2.3583,2.3583,2.3583,2.3583,2.3583,2.3583,2.3583,2.3583,2.3583,2.3583,2.3583,2.3583,2.3564,2.3385,2.337,2.337,2.337,2.3385,2.3409,2.2843,2.2898,2.3014,2.2495,2.2184,2.208,2.2392,2.1873,2.1414,2.1977,2.1882,2.1613,2.1443,2.1568,2.1593,2.1192,2.1254,2.1384,2.1384,2.1384,2.1384,2.1384,2.1384,2.1384,2.1384,2.1384,2.1384,2.1384,2.1384,2.1384,2.1384,2.1384,2.1384,2.1384,2.1384,2.1384,2.1384,2.1384,2.1384,2.1384,2.1384,2.1384,2.1384,2.1384,2.1384,2.1384,2.1384,2.1384,2.1384,2.1384,2.1303,2.3149,2.3214,2.3621,2.3467,2.3539,2.381,2.4452,2.4689,2.4818,2.4893,2.4904,2.498,2.5227,2.5035,2.4986,2.5534,2.5033,2.4931,2.5839,2.5624,2.5599,2.6168,2.6189,2.605,2.5755,2.4887,2.4416,2.4477,2.3624,2.3124,2.3181,2.3181,2.3206,2.3357,2.3366,2.3432,2.3583,2.3583,2.3583,2.3583,2.3583,2.3583,2.3583,2.3583,2.3583,2.3583,2.3583,2.3583,2.3592,2.3701,2.3729,2.3729,2.3786,2.3776,2.3729,2.3729,2.3639,2.3583,2.3583,2.3583,2.3531,2.3169,2.3014,2.2962,2.2547,2.2236,2.208,2.2444,2.2184,2.1873,2.2444,2.2392,2.2142,2.1766,2.1823,2.1771,2.1311,2.1295,2.1408,2.1449,2.1465,2.1465,2.153,2.153,2.153,2.153,2.153,2.149,2.1408,2.1384,2.1384,2.1384,2.1384,2.1384,2.1384,2.1384,2.1384,2.1384,2.1384,2.1384,2.1384,2.1384,2.1384,2.1384,2.1384,2.1384,2.1384,2.1384,2.1384,2.1384,2.1384,2.1384,2.4713,2.4713,2.476,2.4749,2.4749,2.4749,2.4797,2.4797,2.4872,2.512,2.5163,2.5238,2.5464,2.569,2.5852,2.5901,2.6007,2.6168,2.6168,2.6179,2.6179,2.6189,2.6189,2.6179,2.6168,2.5209,2.4659,2.4881,2.3884,2.3357,2.3555,2.3564,2.3564,2.3573,2.3573,2.3573,2.3583,2.3583,2.3583,2.3583,2.3583,2.3583,2.3583,2.3583,2.3583,2.3583,2.3583,2.3583,2.3602,2.3861,2.4008,2.4027,2.4217,2.4179,2.4008,2.4008,2.3814,2.3583,2.3583,2.3583,2.3583,2.3583,2.3583,2.3583,2.3583,2.2806,2.1977,2.2029,2.1622,2.1362,2.1873,2.2392,2.2699,2.2504,2.2495,2.2287,2.156,2.1384,2.148,2.1675,2.1716,2.1701,2.1839,2.1856,2.1856,2.1856,2.1856,2.179,2.1425,2.1384,2.1384,2.1384,2.1384,2.1384,2.1384,2.1384,2.1384,2.1384,2.1384,2.1384,2.1384,2.1384,2.1384,2.1384,2.1384,2.1384,2.1384,2.1384,2.1384,2.1384,2.1384,2.1384,2.5235,2.5055,2.5012,2.484,2.4926,2.5055,2.5055,2.5173,2.5303,2.5389,2.5529,2.5707,2.5733,2.5949,2.611,2.611,2.6185,2.6243,2.6444,2.6465,2.653,2.6641,2.6662,2.6662,2.6662,2.555,2.483,2.4911,2.4019,2.3507,2.3583,2.3583,2.3583,2.3583,2.3583,2.3583,2.3583,2.3583,2.3583,2.3583,2.3786,2.3918,2.405,2.405,2.405,2.405,2.405,2.405,2.406,2.4188,2.4217,2.4217,2.4283,2.4273,2.4217,2.4217,2.4117,2.4031,2.3899,2.3937,2.405,2.405,2.405,2.405,2.405,2.3787,2.3524,2.3524,2.2838,2.2152,2.2363,2.1993,2.1532,2.157,2.1657,2.1761,2.1624,2.166,2.1766,2.1831,2.1847,2.1871,2.1912,2.188,2.188,2.188,2.188,2.1839,2.1766,2.1636,2.1579,2.1579,2.1504,2.1384,2.1384,2.1384,2.1384,2.1384,2.1384,2.1384,2.1384,2.1384,2.1384,2.1384,2.1384,2.1384,2.1384,2.1384,2.1384,2.1384,2.1384,2.1384,2.5484,2.5303,2.526,2.5098,2.5184,2.5303,2.5303,2.541,2.5539,2.5626,2.5766,2.5944,2.5981,2.6196,2.6358,2.6358,2.6383,2.649,2.6692,2.6713,2.6778,2.6877,2.6745,2.6591,2.6591,2.5481,2.4828,2.5032,2.4125,2.3583,2.3583,2.3583,2.3583,2.3583,2.3583,2.3583,2.3583,2.371,2.3786,2.3861,2.4003,2.4188,2.4311,2.4311,2.4311,2.4311,2.4311,2.4311,2.4321,2.4397,2.4425,2.4381,2.451,2.4491,2.4425,2.4425,2.4425,2.4406,2.4198,2.4207,2.4311,2.4311,2.4311,2.4258,2.4046,2.3834,2.3674,2.3408,2.2823,2.229,2.229,2.1863,2.1486,2.1408,2.1581,2.1716,2.1675,2.1806,2.1896,2.1961,2.2017,2.2042,2.2107,2.2123,2.2123,2.2123,2.2123,2.2082,2.1896,2.1831,2.171,2.147,2.1311,2.1191,2.0962,2.1136,2.1247,2.1247,2.146,2.1571,2.1571,2.1571,2.1571,2.1571,2.1571,2.1571,2.1571,2.1571,2.1571,2.1571,2.1571,2.1571,2.5529,2.5539,2.5539,2.5539,2.5539,2.5539,2.5539,2.5539,2.5604,2.5841,2.5944,2.597,2.6207,2.6444,2.6605,2.6605,2.6799,2.6899,2.6899,2.6899,2.6899,2.6899,2.6437,2.6118,2.6118,2.5151,2.4739,2.5264,2.4213,2.3592,2.3602,2.3602,2.3602,2.3611,2.3611,2.3611,2.3611,2.3871,2.4131,2.433,2.433,2.434,2.4349,2.4349,2.4349,2.4349,2.4349,2.4349,2.4359,2.4513,2.4598,2.4617,2.4806,2.4769,2.4598,2.4598,2.4598,2.457,2.4416,2.4349,2.4349,2.4349,2.4349,2.4243,2.3649,2.3116,2.253,2.1996,2.1835,2.1782,2.1782,2.2102,2.2413,2.2073,2.2097,2.2117,2.1755,2.1831,2.1961,2.2172,2.2212,2.2253,2.2448,2.253,2.253,2.253,2.253,2.2342,2.1937,2.1896,2.1663,2.1035,2.0955,2.0745,2.0173,2.0625,2.0955,2.0955,2.1486,2.1816,2.1816,2.1816,2.1816,2.1872,2.1816,2.1816,2.188,2.188,2.188,2.188,2.188,2.188,2.5733,2.5776,2.5776,2.5776,2.5776,2.5776,2.5776,2.5776,2.5852,2.6089,2.6282,2.6422,2.6476,2.6692,2.6802,2.6802,2.6856,2.6899,2.6899,2.6899,2.6899,2.6899,2.6437,2.6118,2.6118,2.5292,2.4767,2.4924,2.4092,2.3701,2.3871,2.388,2.3946,2.4098,2.4098,2.4098,2.4098,2.4207,2.434,2.4504,2.4504,2.458,2.4721,2.4721,2.4721,2.4721,2.4721,2.4721,2.4731,2.4787,2.4806,2.4816,2.4863,2.4854,2.4806,2.4806,2.4806,2.4797,2.474,2.4721,2.4721,2.4721,2.4721,2.4721,2.4559,2.4126,2.3693,2.4018,2.3421,2.277,2.277,2.2552,2.2235,2.1694,2.1784,2.1926,2.1855,2.2107,2.2342,2.2383,2.2407,2.2465,2.2464,2.253,2.253,2.253,2.253,2.2267,2.1662,2.152,2.1222,2.0531,2.041,2.0294,2.0117,2.0237,2.0335,2.0335,2.0448,2.0568,2.0568,2.0568,2.0745,2.1196,2.0802,2.1019,2.188,2.1429,2.1462,2.188,2.188,2.188,2.5959,2.5949,2.5944,2.6002,2.5949,2.5944,2.6002,2.6024,2.6099,2.6336,2.6498,2.6616,2.6724,2.6802,2.6899,2.6899,2.6899,2.6899,2.6899,2.6899,2.6796,2.6591,2.6161,2.5799,2.5551,2.497,2.4572,2.4572,2.4132,2.3965,2.4141,2.415,2.4198,2.4311,2.4311,2.4359,2.44,2.44,2.4504,2.4721,2.4721,2.4778,2.4882,2.4882,2.4929,2.5033,2.5033,2.508,2.5156,2.5156,2.5156,2.5156,2.5156,2.5156,2.5156,2.5156,2.5156,2.5156,2.4835,2.4771,2.4752,2.4557,2.4337,2.4065,2.3837,2.351,2.3246,2.3364,2.2915,2.2481,2.2481,2.2281,2.2055,2.1675,2.1847,2.2042,2.2042,2.2277,2.2546,2.257,2.2578,2.2594,2.2683,2.27,2.27,2.27,2.27,2.2517,2.1833,2.1603,2.1264,2.0586,2.0268,1.9951,1.9655,1.9871,2.0014,1.9934,2.0154,2.0333,2.0333,2.0333,2.0611,2.118,2.0903,2.1204,2.2172,2.1814,2.1814,2.2172,2.2172,2.2172,2.6125,2.6099,2.6002,2.6185,2.6099,2.6013,2.6229,2.6232,2.6347,2.6584,2.6627,2.6692,2.6856,2.6899,2.6899,2.6899,2.6899,2.6899,2.6796,2.6818,2.6633,2.6119,2.5736,2.5356,2.4895,2.4553,2.4359,2.4359,2.4378,2.4387,2.4359,2.4359,2.4368,2.4397,2.4397,2.4438,2.4627,2.4627,2.4731,2.4929,2.4929,2.4929,2.4958,2.4958,2.5062,2.526,2.526,2.5354,2.5506,2.5506,2.5506,2.5506,2.5506,2.5506,2.5506,2.5506,2.545,2.5329,2.4789,2.4491,2.4325,2.4028,2.3608,2.3106,2.2612,2.2439,2.2291,2.1851,2.1784,2.1851,2.1851,2.1926,2.1993,2.1936,2.2066,2.2188,2.2188,2.2359,2.2553,2.2724,2.2765,2.2805,2.2976,2.3,2.3,2.3,2.3,2.2815,2.2299,2.1915,2.1463,2.0775,2.0296,1.9741,1.9085,1.9497,1.9786,1.9775,2.0277,2.056,2.0698,2.0683,2.0966,2.1545,2.1464,2.1803,2.2513,2.2431,2.2407,2.253,2.253,2.253,2.6168,2.6347,2.6422,2.6272,2.6347,2.6476,2.6508,2.6519,2.6595,2.678,2.6834,2.6845,2.6888,2.6899,2.6899,2.6899,2.6899,2.6745,2.6283,2.6389,2.6296,2.5766,2.5393,2.5163,2.5058,2.472,2.4532,2.4532,2.4684,2.4702,2.4542,2.4532,2.4608,2.4769,2.4778,2.4797,2.4835,2.4835,2.4929,2.5156,2.5156,2.5232,2.5402,2.5402,2.5411,2.5458,2.5458,2.5477,2.5506,2.5506,2.5506,2.5506,2.5506,2.5506,2.5506,2.5506,2.518,2.4724,2.4668,2.3949,2.3203,2.3582,2.3676,2.3582,2.347,2.3135,2.2782,2.3173,2.2984,2.2617,2.2617,2.2634,2.2507,2.1993,2.2066,2.2188,2.2188,2.2448,2.2724,2.2911,2.296,2.296,2.3,2.3,2.3,2.3,2.3,2.2941,2.2874,2.1914,2.1012,2.0399,1.9716,1.9308,1.9169,1.9288,1.9573,2.0259,2.025,2.0598,2.1205,2.1071,2.1298,2.1969,2.1361,2.1569,2.2675,2.2009,2.1945,2.253,2.253,2.253,2.6523,2.6595,2.6584,2.6555,2.6595,2.6616,2.6745,2.6778,2.6759,2.6877,2.6899,2.6931,2.706,2.7133,2.7165,2.7294,2.6796,2.6379,2.6484,2.5992,2.5581,2.5371,2.5305,2.5122,2.4856,2.4779,2.474,2.474,2.4825,2.4844,2.475,2.474,2.4787,2.4882,2.4986,2.5062,2.5062,2.5156,2.526,2.5354,2.5354,2.5411,2.5506,2.5506,2.5553,2.5676,2.5676,2.5732,2.5827,2.5827,2.5827,2.5827,2.5827,2.5827,2.577,2.5441,2.5139,2.48,2.4185,2.3578,2.3123,2.3067,2.2932,2.2771,2.2771,2.2563,2.2386,2.2659,2.263,2.2511,2.2511,2.2545,2.2546,2.2269,2.2277,2.2359,2.2448,2.2594,2.2805,2.3081,2.3189,2.3171,2.3252,2.3276,2.3276,2.3276,2.3276,2.3149,2.2858,2.1961,2.1197,2.081,1.9999,1.9413,1.9325,1.9325,1.9617,2.0259,2.0248,2.053,2.1205,2.1131,2.1397,2.2114,2.1767,2.1929,2.2469,2.2173,2.2011,2.1952,2.1952,2.2197,2.678,2.6767,2.6692,2.6791,2.6767,2.6713,2.6856,2.6899,2.6899,2.6899,2.6942,2.7028,2.7107,2.713,2.7226,2.7302,2.6544,2.6016,2.6396,2.5685,2.5069,2.5025,2.5166,2.5131,2.47,2.4787,2.4882,2.4882,2.4929,2.4929,2.4882,2.4929,2.4958,2.4958,2.5156,2.5279,2.5279,2.543,2.5534,2.5581,2.5581,2.561,2.5629,2.5629,2.5732,2.5846,2.5846,2.5978,2.6129,2.6129,2.6129,2.6129,2.6129,2.6129,2.6006,2.5395,2.5147,2.487,2.3788,2.3328,2.3106,2.2645,2.2277,2.2042,2.2042,2.2042,2.2042,2.2042,2.2147,2.2253,2.2253,2.2359,2.253,2.253,2.253,2.2529,2.274,2.2781,2.2895,2.3252,2.3317,2.3358,2.3504,2.3528,2.3528,2.3528,2.3399,2.3113,2.269,2.1888,2.1306,2.1173,2.0302,1.9671,1.9481,1.9481,1.9741,2.0316,2.0333,2.0565,2.1242,2.1391,2.1681,2.2216,2.2421,2.2484,2.2484,2.2586,2.234,2.179,2.1895,2.2145,2.6518,2.6767,2.6813,2.667,2.6767,2.6866,2.6899,2.6899,2.6899,2.6899,2.7071,2.7117,2.6556,2.6682,2.6681,2.6164,2.5963,2.5751,2.5328,2.5336,2.5195,2.4712,2.4839,2.4908,2.4854,2.4873,2.4882,2.4882,2.5062,2.508,2.4891,2.508,2.5184,2.5184,2.5383,2.5477,2.5477,2.5506,2.561,2.5742,2.5742,2.5846,2.6016,2.6016,2.6082,2.6044,2.6044,2.6101,2.6129,2.6129,2.6129,2.6129,2.6129,2.6129,2.6006,2.5395,2.487,2.4288,2.3607,2.3049,2.2588,2.253,2.2448,2.2424,2.2424,2.2424,2.2424,2.2424,2.2481,2.2448,2.2448,2.2506,2.253,2.253,2.253,2.2611,2.2895,2.2976,2.3081,2.3447,2.3504,2.3512,2.3528,2.3528,2.3528,2.3528,2.3045,2.269,2.2622,2.1471,2.069,2.0669,2.0083,1.9664,1.9644,1.9644,1.9996,2.0779,2.0665,2.094,2.181,2.2229,2.2462,2.2522,2.2966,2.3192,2.3192,2.3063,2.2939,2.288,2.3025,2.3149,2.6729,2.6823,2.6877,2.678,2.6823,2.6899,2.6899,2.6642,2.6437,2.6437,2.6347,2.6233,2.6168,2.6331,2.6472,2.6347,2.5766,2.5336,2.5498,2.4982,2.4597,2.4769,2.4835,2.4882,2.4882,2.4882,2.4929,2.5062,2.5279,2.5354,2.526,2.5336,2.5383,2.5383,2.5581,2.5704,2.5704,2.577,2.5931,2.6007,2.6007,2.5997,2.6129,2.6129,2.6129,2.6129,2.6129,2.6129,2.6129,2.6129,2.6129,2.6129,2.6129,2.5882,2.5491,2.487,2.4288,2.3665,2.3049,2.2711,2.253,2.253,2.253,2.253,2.253,2.253,2.253,2.253,2.253,2.253,2.253,2.253,2.253,2.253,2.253,2.2578,2.2911,2.3,2.3106,2.3403,2.3528,2.3528,2.3528,2.3174,2.2984,2.2984,2.2433,2.1827,2.1471,2.0926,2.044,2.0083,1.9847,1.9725,1.9725,1.9725,1.9989,2.0661,2.0665,2.0962,2.169,2.1926,2.2017,2.2017,2.2289,2.2244,2.182,2.1865,2.188,2.1819,2.152,2.1794,2.6642,2.654,2.6437,2.6437,2.6437,2.6488,2.6642,2.6386,2.6191,2.6418,2.6192,2.6001,2.6076,2.6129,2.6115,2.6112,2.5426,2.5074,2.5567,2.4867,2.4512,2.4997,2.5005,2.4986,2.4986,2.4986,2.5062,2.5279,2.5477,2.561,2.561,2.5657,2.5657,2.561,2.5808,2.5874,2.5874,2.6054,2.6129,2.6129,2.6129,2.6129,2.6129,2.6129,2.6129,2.6129,2.6129,2.6129,2.6129,2.6148,2.6167,2.6167,2.606,2.5742,2.5281,2.4472,2.3885,2.3447,2.2859,2.2676,2.2676,2.2676,2.2676,2.2676,2.2676,2.2553,2.253,2.253,2.253,2.253,2.253,2.253,2.253,2.253,2.253,2.2578,2.2911,2.2815,2.2817,2.3154,2.3045,2.2924,2.2924,2.2608,2.2389,2.2389,2.1819,2.1307,2.0819,2.0589,2.0269,1.9848,1.9848,1.9814,1.9725,1.9725,1.9847,2.0333,2.0333,2.0562,2.1047,2.1236,2.1297,2.1297,2.1651,2.1581,2.1031,2.1208,2.1265,2.1258,2.0807,2.1166,2.5964,2.5707,2.5295,2.5295,2.5295,2.545,2.5964,2.6118,2.6346,2.7137,2.7017,2.6669,2.6353,2.6037,2.5589,2.4991,2.4882,2.4958,2.5184,2.5203,2.5279,2.5477,2.5336,2.5203,2.5203,2.5203,2.5279,2.5477,2.5704,2.577,2.577,2.6007,2.6025,2.577,2.5969,2.6129,2.6129,2.6129,2.6129,2.6129,2.6129,2.6129,2.6129,2.6129,2.6129,2.6129,2.6129,2.6129,2.6091,2.6289,2.6393,2.6354,2.5958,2.5807,2.5622,2.4389,2.3885,2.3817,2.322,2.3,2.3,2.3,2.3,2.3,2.3,2.274,2.253,2.253,2.253,2.253,2.253,2.253,2.253,2.253,2.253,2.2578,2.2911,2.2469,2.2156,2.2507,2.2077,2.16,2.16,2.1734,2.1831,2.1831,2.141,2.1092,2.1092,2.0533,2.0098,2.0098,2.0098,1.9976,1.9739,1.9725,1.9725,1.9725,1.9725,1.9725,1.9725,2.0272,2.063,2.063,2.1236,2.1593,2.1593,2.1593,2.1593,2.1593,2.181,2.199,2.5707,2.545,2.5398,2.5759,2.5861,2.5964,2.654,2.6375,2.6129,2.6151,2.5853,2.5556,2.5185,2.5183,2.5263,2.549,2.5154,2.5131,2.5716,2.5093,2.4661,2.4855,2.4827,2.4911,2.5176,2.5458,2.5657,2.5676,2.5874,2.6025,2.6025,2.6044,2.6044,2.6025,2.6044,2.6129,2.6129,2.6129,2.6129,2.6129,2.6129,2.6129,2.6129,2.6223,2.6289,2.6299,2.6507,2.6555,2.6555,2.663,2.6425,2.5958,2.5847,2.5279,2.4473,2.407,2.3657,2.3287,2.3059,2.3,2.3,2.3,2.3,2.3,2.3,2.2911,2.283,2.283,2.283,2.283,2.283,2.283,2.283,2.283,2.283,2.2809,2.2695,2.2466,2.231,2.2229,2.199,2.1859,2.1859,2.1603,2.1316,2.1316,2.0816,2.0402,2.0402,2.023,2.0098,2.0098,2.0098,2.0064,1.9976,1.9963,1.9963,1.9963,1.9963,1.9963,1.9963,2.0155,2.0258,2.0258,2.0407,2.0419,2.0419,2.0368,2.0272,2.0333,2.0794,2.0783,2.5697,2.5141,2.5141,2.5656,2.581,2.5913,2.6221,2.6088,2.5892,2.5752,2.5457,2.5195,2.5096,2.496,2.4991,2.5381,2.5164,2.5041,2.549,2.4864,2.4512,2.4703,2.4731,2.4891,2.5393,2.562,2.5855,2.5931,2.6054,2.6129,2.6129,2.6129,2.6129,2.6129,2.6129,2.6129,2.6129,2.6129,2.6129,2.6129,2.6205,2.6195,2.6195,2.6479,2.6574,2.6574,2.6706,2.6812,0.0,2.6603,2.6278,2.5866,2.5484,2.4808,2.4079,2.3849,2.3501,2.3187,2.3187,2.3187,2.3187,2.3187,2.3187,2.3187,2.3187,2.3106,2.3,2.3,2.3,2.3,2.3,2.3,2.2933,2.2654,2.2646,2.2505,2.219,2.1956,2.1758,2.1701,2.1457,2.1286,2.1286,2.1018,2.0818,2.0818,2.0484,2.0261,2.0261,2.0261,2.0261,2.0261,2.0261,2.0261,2.0261,2.0173,2.0098,2.0098,2.0098,2.0098,2.0098,2.0098,2.0098,2.0098,2.001,1.9963,1.9963,1.9875,1.98,1.9752,2.0173,2.0131,0.0,2.4986,2.4677,2.5192,2.5295,2.5244,2.5316,2.5467,0.0,2.589,2.5675,2.5454,2.5668,2.5272,2.4882,2.4936,2.4936,2.4859,2.4715,2.4574,2.4647,2.4867,2.4865,2.5139,2.5714,2.5799,2.5931,2.6101,2.6129,2.6129,2.6129,2.6129,2.6129,2.6129,2.6129,2.6129,2.6129,2.6091,2.6091,2.6091,2.6317,2.6421,2.6421,2.6677,2.684,2.684,2.6859,2.6859,2.6829,2.6299,2.6085,2.5975,2.4915,2.4493,2.4373,2.3717,2.3528,2.3528,2.3528,2.3528,2.3528,2.3528,2.3528,2.3528,2.3528,2.3293,2.3041,2.3041,2.3041,2.3041,2.3041,2.2982,2.2796,2.2197,2.2035,2.189,2.154,2.1008,2.0675,2.0988,2.0547,2.0119,2.0139,2.0241,2.0286,2.0286,2.0388,2.0476,2.0476,2.0476,2.0476,2.0476,2.0476,2.0476,2.0476,2.0295,2.0139,2.0139,2.0139,2.0139,2.0139,2.0139,2.0139,2.0139,2.0119,2.0119,2.0098,2.0098,2.0031,1.9888,1.9888,1.982,2.6877,0.0,2.5141,2.5295,2.4986,2.482,0.0,2.5579,2.5573,2.5549,2.5463,2.5346,2.518,2.4991,2.5045,2.549,2.5208,2.4978,2.5282,2.4636,2.4287,2.4647,2.4822,2.5139,2.5714,2.5921,2.6082,2.6129,2.6129,2.6129,2.6129,2.6129,2.6129,2.6129,2.6129,2.6129,2.6129,2.6242,2.6317,2.6317,2.6583,2.6736,2.6736,2.6904,2.7008,2.7067,2.7209,2.7285,2.7226,2.6566,2.6045,2.5584,2.4794,2.42,2.3717,2.3528,2.3528,2.3528,2.3528,2.3528,2.3528,2.3528,2.3528,2.3528,2.3528,2.3463,2.3398,2.3398,2.3398,2.3398,2.3398,2.3046,2.2633,2.2505,2.2083,2.154,2.1056,2.0854,2.0716,2.0526,2.0344,2.0315,2.0417,2.0408,2.0422,2.0422,2.0462,2.0476,2.0476,2.0476,2.0476,2.0476,2.0476,2.0476,2.0476,2.0471,2.0438,2.0438,2.0438,2.0438,2.0438,2.0438,2.0438,2.0438,2.0329,2.0227,2.0098,2.0098,2.0085,2.0051,2.0051,2.0031,2.7696,2.6518,2.5656,2.5656,2.5244,2.4933,2.5162,2.5281,2.5292,2.5103,2.5086,2.5138,2.4917,2.4882,2.4991,2.5317,2.4958,2.4679,2.4797,2.4115,2.3893,2.4772,2.4895,2.5185,2.5893,2.6054,2.6129,2.6129,2.6129,2.6129,2.6129,2.6129,2.6129,2.6129,2.6167,2.6223,2.6223,2.6346,2.644,2.6602,2.68,2.6963,2.6963,2.7131,2.7226,2.7226,2.733,2.7248,2.6888,2.6247,2.5628,2.4984,2.4304,2.3822,2.3528,2.3528,2.3528,2.3528,2.3528,2.3528,2.3528,2.3528,2.3528,2.3528,2.3528,2.3528,2.3528,2.3528,2.3278,2.3105,2.3105,2.2622,2.2077,2.1782,2.1403,2.1023,2.0515,2.0359,2.0388,2.0324,2.0329,2.032,2.0462,2.0476,2.0476,2.0476,2.0476,2.0476,2.0476,2.0476,2.0476,2.0476,2.0476,2.0476,2.0476,2.0476,2.0476,2.0476,2.0476,2.0476,2.0476,2.0476,2.0476,2.0476,2.0408,2.0383,2.0295,2.0295,2.0275,2.0207,2.0207,2.0173,2.8218,2.6961,2.6109,2.5923,2.545,2.4995,2.4793,2.4884,2.4919,2.4687,2.4769,2.4882,2.4882,2.4882,2.4936,2.4991,2.4678,2.4383,2.4177,2.3645,2.3797,2.5086,2.5109,2.5326,2.6044,2.6129,2.6129,2.6129,2.6129,2.6129,2.6129,2.6129,2.6091,2.6119,2.6289,2.6421,2.6497,2.6497,2.663,2.6868,2.7027,2.7131,2.7131,2.7241,2.7248,2.7248,2.7147,2.6768,2.6237,2.5594,2.4984,2.4433,2.3761,2.3528,2.3528,2.3528,2.3528,2.3528,2.3528,2.3528,2.3528,2.3528,2.3468,2.3339,2.3339,2.3278,2.3234,2.3234,2.2924,2.2561,2.2501,2.1956,2.1297,2.0751,2.0501,2.0354,1.999,1.9902,1.9929,2.0241,2.0295,2.0349,2.0442,2.0476,2.0476,2.0476,2.0476,2.0476,2.0476,2.0476,2.0476,2.0476,2.0476,2.0476,2.0476,2.0476,2.0476,2.0476,2.0476,2.0476,2.0476,2.0476,2.0476,2.0476,2.0476,2.0476,2.0476,2.0476,2.0471,2.03,2.03,2.0295,2.8167,2.7068,2.6078,2.5026,2.4306,2.3946,2.4284,2.4398,2.4478,2.4813,2.4863,2.4882,2.4882,2.4882,2.5045,2.5599,2.5345,2.501,2.4769,2.4559,2.4658,2.5367,2.5573,2.578,2.6044,2.6129,2.6129,2.6129,2.6129,2.6129,2.6129,2.6129,2.6205,2.6346,2.6365,2.6572,2.698,2.698,2.6999,2.7086,2.7285,2.733,2.733,2.6828,2.6538,2.6538,2.5988,2.5757,2.5594,2.4915,2.4562,2.4433,2.3761,2.3528,2.3528,2.3528,2.3528,2.3528,2.3528,2.3528,2.3528,2.3528,2.3174,2.2751,2.2751,2.2312,2.1888,2.1888,2.2206,2.2501,2.1888,2.1236,2.0751,2.063,2.0204,1.9847,1.9759,1.9759,1.9786,2.0085,2.0139,2.0227,2.0485,2.0476,2.0476,2.0476,2.0476,2.0476,2.0476,2.0476,2.0476,2.0476,2.0476,2.0476,2.0476,2.0476,2.0476,2.0476,2.0476,2.0476,2.0476,2.0476,2.0476,2.0476,2.0476,2.0476,2.0476,2.0476,2.0462,2.0442,2.0442,2.0485,2.7645,2.6541,2.551,2.4335,2.3492,2.3102,2.3402,2.3465,2.3655,2.4273,2.4392,2.4501,2.4828,2.4797,2.4759,2.4809,2.4732,2.4707,2.4725,2.466,2.4872,2.5563,2.5723,2.5903,2.6101,2.6129,2.6129,2.6129,2.6129,2.6129,2.6129,2.6224,2.6289,2.6393,2.6677,2.6876,2.7074,2.7238,2.7285,2.7254,2.7389,2.7188,2.6828,2.6538,2.6237,2.5886,2.5594,2.5276,2.4915,2.4622,2.4304,2.3951,2.3597,2.3528,2.3528,2.3528,2.3278,2.2984,2.2984,2.2751,2.2501,2.2501,2.2266,2.2077,2.2077,2.185,2.1532,2.1176,2.1297,2.1471,2.1115,2.0569,2.0083,2.0083,1.9914,1.9725,1.9725,1.9725,1.9752,2.0051,2.0098,2.0187,2.0422,2.0476,2.0476,2.0476,2.0476,2.0476,2.0476,2.0476,2.0476,2.0476,2.0476,2.0476,2.0476,2.0476,2.0476,2.0476,2.0476,2.0476,2.0476,2.0476,2.0476,2.0476,2.0476,2.0476,2.0476,2.0476,2.0476,2.0476,2.0476,2.0476,2.725,2.612,2.4981,2.3838,2.3265,2.2999,2.3206,2.3394,2.3754,2.438,2.4392,2.4457,2.5,2.4976,2.4775,2.4374,2.4504,2.4679,2.4679,2.4771,2.5012,2.5667,2.5827,2.595,2.6101,2.6129,2.6063,2.5891,2.5891,2.5853,2.5746,2.5885,2.6034,2.6069,2.6424,2.6688,2.6734,2.6883,2.7087,2.7377,2.7377,2.7147,2.6598,2.6468,2.6048,2.5465,2.5336,2.4915,2.4244,2.4244,2.3951,2.3528,2.3528,2.3528,2.3468,2.3339,2.2984,2.2561,2.2433,2.2017,2.1593,2.1593,2.1471,2.1343,2.1343,2.1297,2.1047,2.0501,2.038,2.038,2.038,2.0022,1.9725,1.9725,1.9725,1.9725,1.9725,1.9725,1.9793,1.9997,2.0085,2.0187,2.0388,2.0462,2.0476,2.0476,2.0476,2.0476,2.0476,2.0476,2.0476,2.0476,2.0476,2.0476,2.0476,2.0476,2.0476,2.0476,2.0476,2.0476,2.0476,2.0476,2.0476,2.0476,2.0476,2.0476,2.0476,2.0476,2.0476,2.0476,2.0476,2.0476,2.7445,2.6097,2.474,2.3681,2.3894,2.4413,2.4584,2.521,2.5842,2.6106,2.5618,2.5228,2.5638,2.5698,2.5593,2.5156,2.5416,2.5519,2.4984,2.5195,2.545,2.5534,2.5818,2.6101,2.6129,2.6129,2.5853,2.5328,2.5271,2.5124,2.4725,2.4743,2.487,2.5155,2.5208,2.5382,2.5628,2.5628,2.6237,2.7377,2.7377,2.7377,2.7317,2.6699,2.6048,2.5465,2.4855,2.42,2.3588,2.3588,2.3528,2.3528,2.3528,2.3528,2.3407,2.2856,2.263,2.2501,2.1888,2.1661,2.1593,2.1593,2.1176,2.069,2.069,2.0272,1.9847,1.9786,1.9786,1.9786,1.9786,1.9725,1.9725,1.9725,1.9725,1.9725,1.9725,1.9725,1.9712,1.9916,1.9997,2.0153,2.0315,2.0388,2.0476,2.0476,2.0476,2.0476,2.0476,2.0476,2.0476,2.0476,2.0476,2.0476,2.0476,2.0476,2.0476,2.0476,2.0476,2.0476,2.0476,2.0476,2.0476,2.0476,2.0476,2.0476,2.0476,2.0476,2.0476,2.0476,2.0476,2.0476,2.7128,2.5464,2.3778,2.3585,2.4051,2.4507,2.3992,2.4509,2.5215,2.5677,2.5339,2.5041,2.5228,2.5041,2.4906,2.5005,2.5157,2.5045,2.4446,2.4698,2.4789,2.4435,2.4732,2.4967,2.4967,2.5328,2.5271,2.4689,2.4967,2.4999,2.4627,2.4701,2.4885,2.5098,2.5281,2.5395,2.5525,2.5525,2.5757,2.6237,2.6237,2.6015,2.5568,2.5336,2.4855,2.4269,2.4011,2.3717,2.3528,2.3528,2.3528,2.3528,2.3528,2.3528,2.3407,2.2819,2.2335,2.1888,2.1236,2.0751,2.044,2.044,2.0272,2.0022,2.0022,1.9847,1.9725,1.9725,1.9725,1.9725,1.9725,1.9725,1.9725,1.9725,1.9725,1.9725,1.9725,1.9725,1.9759,1.9902,1.9997,2.0153,2.0295,2.0388,2.0476,2.0476,2.0476,2.0476,2.0476,2.0476,2.0476,2.0476,2.0476,2.0476,2.0476,2.0476,2.0476,2.0476,2.0476,2.0476,2.0476,2.0476,2.0476,2.0476,2.0476,2.0476,2.0476,2.0476,2.0476,2.0476,2.0476,2.0476,2.6552,2.4988,2.3413,2.3487,2.4246,2.478,2.4043,2.4735,2.5588,2.5802,2.561,2.5301,2.4878,2.4815,2.4797,2.495,2.4756,2.4446,2.4065,2.4191,2.4156,2.3772,2.4059,2.4288,2.4288,2.4689,2.4689,2.4067,2.4455,2.453,2.4149,2.4271,2.4468,2.4589,2.4786,2.4855,2.4855,2.4855,2.4855,2.4855,2.4855,2.4855,2.4794,2.4794,2.4433,2.3822,2.3822,2.3717,2.3528,2.3528,2.3528,2.3528,2.3528,2.3399,2.3113,2.2501,2.1888,2.1176,2.0562,2.0022,1.9725,1.9725,1.9725,1.9725,1.9725,1.9725,1.9725,1.9725,1.9725,1.9725,1.9725,1.9725,1.9725,1.9725,1.9725,1.9725,1.9725,1.9725,1.9759,1.9848,1.9929,2.0085,2.0227,2.032,2.0422,2.0476,2.0476,2.0476,2.0476,2.0476,2.0476,2.0476,2.0476,2.0476,2.0476,2.0476,2.0476,2.0476,2.0476,2.0476,2.0476,2.0476,2.0476,2.0476,2.0476,2.0476,2.0476,2.0476,2.0476,2.0476,2.0476,2.0476,2.5808,2.4784,2.3908,2.3513,2.4519,2.5513,2.5163,2.6428,2.7545,2.6923,2.6702,2.6152,2.4864,2.5276,2.5667,2.5276,2.4531,2.401,2.401,2.3803,2.3708,2.3652,2.4059,2.4288,2.4288,2.4288,2.4067,2.3452,2.3505,2.344,2.3,2.3171,2.3341,2.3528,2.3528,2.3528,2.3528,2.3528,2.3528,2.3528,2.3528,2.42,2.5465,2.5465,2.5104,2.4493,2.4493,2.414,2.3528,2.3528,2.3528,2.3528,2.3468,2.3113,2.2501,2.185,2.1176,2.0501,1.9914,1.9725,1.9725,1.9725,1.9725,1.9725,1.9725,1.9725,1.9725,1.9725,1.9725,1.9725,1.9725,1.9725,1.9725,1.9725,1.9725,1.9725,1.9725,1.9725,1.9725,1.9725,1.9827,1.9922,2.0064,2.0227,2.032,2.0462,2.0476,2.0476,2.0476,2.0476,2.0476,2.0476,2.0476,2.0476,2.0476,2.0476,2.0476,2.0476,2.0476,2.0476,2.0476,2.0476,2.0476,2.0476,2.0476,2.0476,2.0476,2.0476,2.0476,2.0476,2.0476,2.0476,2.5676,2.4676,2.3989,2.4103,2.4559,2.5015,2.5196,2.6515,2.7482,2.6644,2.5826,2.5247,2.4878,2.4639,2.4666,2.512,2.4531,2.3837,2.3455,2.3184,2.2931,2.2482,2.2807,2.3049,2.3049,2.3452,2.3436,2.2975,2.3332,2.3499,2.323,2.3295,2.3341,2.3528,2.3528,2.3528,2.3528,2.3528,2.3528,2.3528,2.3528,2.3717,2.4079,2.4079,2.3951,2.3822,2.3822,2.3657,2.3528,2.3528,2.3528,2.3468,2.3045,2.2751,2.244,2.1304,2.0751,2.0501,1.9914,1.9725,1.9725,1.9725,1.9725,1.9725,1.9725,1.9725,1.9725,1.9725,1.9725,1.9725,1.9725,1.9725,1.9725,1.9725,1.9725,1.9725,1.9725,1.9725,1.9725,1.9725,1.9827,1.9922,2.0064,2.0227,2.032,2.0462,2.0476,2.0476,2.0476,2.0476,2.0476,2.0476,2.0476,2.0476,2.0476,2.0476,2.0476,2.0476,2.0476,2.0476,2.0476,2.0476,2.0476,2.0476,2.0476,2.0476,2.0476,2.0476,2.0476,2.0476,2.0476,2.0476,2.5236,2.45,2.4159,2.4138,2.4403,2.4741,2.5272,2.5994,2.6419,2.5902,2.5424,2.4976,2.4813,2.4554,2.4438,2.4678,2.3928,2.3191,2.2808,2.2591,2.2322,2.1936,2.2253,2.253,2.253,2.281,2.2934,2.27,2.3132,2.3364,2.3295,2.3377,2.3422,2.3528,2.3528,2.3528,2.3528,2.3528,2.3528,2.3528,2.3528,2.3528,2.3528,2.3528,2.3528,2.3528,2.3528,2.3528,2.3528,2.3528,2.3528,2.3468,2.3105,2.263,2.2077,2.1297,2.069,2.0204,1.9847,1.9725,1.9725,1.9725,1.9725,1.9725,1.9725,1.9725,1.9725,1.9725,1.9725,1.9725,1.9725,1.9725,1.9725,1.9725,1.9725,1.9725,1.9725,1.9725,1.9725,1.9725,1.9793,1.9841,1.9976,2.0085,2.0227,2.0417,2.0442,2.0476,2.0476,2.0476,2.0476,2.0476,2.0476,2.0476,2.0476,2.0476,2.0476,2.0476,2.0476,2.0476,2.0476,2.0476,2.0476,2.0476,2.0476,2.0476,2.0476,2.0476,2.0476,2.0476,2.0476,2.0476,2.4686,2.4304,2.439,2.3841,2.41,2.4675,2.5278,2.5025,2.478,2.5038,2.5156,2.5098,2.4551,2.4613,2.4537,2.4001,2.3018,2.2316,2.2333,2.2051,2.1936,2.1953,2.2253,2.253,2.253,2.253,2.2553,2.274,2.2911,2.3081,2.3336,2.3447,2.3528,2.3528,2.3528,2.3528,2.3528,2.3528,2.3528,2.3528,2.3528,2.3528,2.3528,2.3528,2.3528,2.3528,2.3528,2.3528,2.3528,2.3528,2.3528,2.3468,2.3468,2.269,2.1661,2.1532,2.0758,1.9786,1.9725,1.9725,1.9725,1.9725,1.9725,1.9725,1.9725,1.9725,1.9725,1.9725,1.9725,1.9725,1.9725,1.9725,1.9725,1.9725,1.9725,1.9725,1.9725,1.9725,1.9725,1.9725,1.9725,1.9712,1.9854,1.9875,1.9976,2.0275,2.0388,2.0476,2.0476,2.0476,2.0476,2.0476,2.0476,2.0476,2.0476,2.0476,2.0476,2.0476,2.0476,2.0476,2.0476,2.0476,2.0476,2.0476,2.0476,2.0476,2.0476,2.0476,2.0476,2.0476,2.0476,2.0476,2.4158,2.4253,2.4716,2.437,2.4419,2.4429,2.4106,2.396,2.4027,2.4718,2.4298,2.3792,2.3685,2.343,2.3232,2.332,2.2754,2.2358,2.2456,2.2117,2.1977,2.2123,2.2342,2.253,2.253,2.253,2.2594,2.2911,2.2976,2.313,2.3447,2.3504,2.3528,2.3528,2.3528,2.3528,2.3528,2.3528,2.3528,2.3528,2.3528,2.3528,2.3528,2.3528,2.3528,2.3528,2.3528,2.3528,2.3528,2.3528,2.3528,2.3468,2.2984,2.263,2.2266,2.1176,2.063,2.0333,1.9847,1.9725,1.9725,1.9725,1.9725,1.9725,1.9725,1.9725,1.9725,1.9725,1.9725,1.9725,1.9725,1.9725,1.9725,1.9725,1.9725,1.9725,1.9725,1.9725,1.9725,1.9725,1.9725,1.9712,1.9854,1.9875,1.9976,2.0275,2.0388,2.0476,2.0476,2.0476,2.0476,2.0476,2.0476,2.0476,2.0476,2.0476,2.0476,2.0476,2.0476,2.0476,2.0476,2.0476,2.0476,2.0476,2.0476,2.0476,2.0476,2.0476,2.0476,2.0476,2.0476,2.0476,2.4231,2.4331,2.4667,2.3893,2.3686,2.3531,2.2962,2.2806,2.2938,2.3369,2.3419,2.3302,2.3036,2.2794,2.2587,2.2673,2.2261,2.1864,2.1955,2.1917,2.192,2.2066,2.2302,2.253,2.253,2.2529,2.27,2.2976,2.3081,2.3236,2.3512,2.3528,2.3528,2.3528,2.3528,2.3528,2.3528,2.3528,2.3528,2.3528,2.3528,2.3528,2.3528,2.3528,2.3528,2.3528,2.3528,2.3528,2.3528,2.3528,2.3528,2.3468,2.3174,2.2856,2.2501,2.1471,2.0858,2.0501,1.9914,1.9725,1.9725,1.9725,1.9725,1.9725,1.9725,1.9725,1.9725,1.9725,1.9725,1.9725,1.9725,1.9725,1.9725,1.9725,1.9725,1.9725,1.9725,1.9725,1.9725,1.9725,1.9725,1.9739,1.9766,1.9882,1.9963,2.0187,2.0349,2.0408,2.0476,2.0476,2.0476,2.0476,2.0476,2.0476,2.0476,2.0476,2.0476,2.0476,2.0476,2.0476,2.0476,2.0476,2.0476,2.0476,2.0476,2.0476,2.0476,2.0476,2.0476,2.0476,2.0476,2.0476,2.4549,2.45,2.4435,2.3112,2.2834,2.2757,2.2289,2.216,2.2082,2.1978,2.2548,2.2983,2.2503,2.2278,2.2143,2.2143,2.1705,2.1408,2.1465,2.1741,2.1953,2.2017,2.2294,2.253,2.253,2.2618,2.2805,2.2976,2.3206,2.3341,2.3468,2.3528,2.3528,2.3528,2.3528,2.3528,2.3528,2.3528,2.3528,2.3528,2.3528,2.3528,2.3528,2.3528,2.3528,2.3528,2.3528,2.3528,2.3528,2.3528,2.3528,2.3528,2.3528,2.3174,2.269,2.2017,2.1365,2.069,2.0083,1.9786,1.9725,1.9725,1.9725,1.9725,1.9725,1.9725,1.9725,1.9725,1.9725,1.9725,1.9725,1.9725,1.9725,1.9725,1.9725,1.9725,1.9725,1.9725,1.9725,1.9725,1.9725,1.9725,1.9725,1.9786,1.9929,2.0085,2.0227,2.032,2.0462,2.0476,2.0476,2.0476,2.0476,2.0476,2.0476,2.0476,2.0476,2.0476,2.0476,2.0476,2.0476,2.0476,2.0476,2.0476,2.0476,2.0476,2.0476,2.0476,2.0476,2.0476,2.0476,2.0476,2.4676,2.4617,2.4242,2.3075,2.2943,2.3028,2.2975,2.268,2.2318,2.184,2.1829,2.1917,2.181,2.1682,2.1502,2.1502,2.1439,2.149,2.1806,2.1856,2.2042,2.2359,2.2448,2.253,2.253,2.2618,2.2805,2.2976,2.3206,2.3341,2.3468,2.3528,2.3528,2.3528,2.3528,2.3528,2.3528,2.3528,2.3528,2.3528,2.3528,2.3528,2.3528,2.3528,2.3528,2.3528,2.3528,2.3528,2.3528,2.3528,2.3528,2.3528,2.3528,2.3468,2.3339,2.269,2.2017,2.1343,2.069,2.0144,1.9725,1.9725,1.9725,1.9725,1.9725,1.9725,1.9725,1.9725,1.9725,1.9725,1.9725,1.9725,1.9725,1.9725,1.9725,1.9725,1.9725,1.9725,1.9725,1.9725,1.9725,1.9725,1.9725,1.9786,1.9929,2.0085,2.0227,2.032,2.0462,2.0476,2.0476,2.0476,2.0476,2.0476,2.0476,2.0476,2.0476,2.0476,2.0476,2.0476,2.0476,2.0476,2.0476,2.0476,2.0476,2.0476,2.0476,2.0476,2.0476,2.0476,2.0476,2.0476,2.3965,2.3909,2.3635,2.2236,2.2021,2.2065,2.1749,2.1629,2.1543,2.1276,2.1305,2.1379,2.1379,2.1377,2.1384,2.1384,2.1465,2.1595,2.1766,2.1961,2.2131,2.2302,2.2407,2.253,2.253,2.2724,2.2911,2.3,2.3252,2.3447,2.3528,2.3528,2.3528,2.3528,2.3528,2.3528,2.3528,2.3528,2.3528,2.3528,2.3528,2.3528,2.3528,2.3528,2.3528,2.3528,2.3528,2.3528,2.3528,2.3528,2.3528,2.3528,2.3528,2.3528,2.3399,2.2372,2.1827,2.1471,2.044,1.9914,1.9725,1.9725,1.9725,1.9725,1.9725,1.9725,1.9725,1.9725,1.9725,1.9725,1.9725,1.9725,1.9725,1.9725,1.9725,1.9725,1.9725,1.9725,1.9725,1.9725,1.9725,1.9725,1.9725,1.9773,1.9841,2.0064,2.0153,2.0275,2.0442,2.0476,2.0476,2.0476,2.0476,2.0476,2.0476,2.0476,2.0476,2.0476,2.0476,2.0476,2.0476,2.0476,2.0476,2.0476,2.0476,2.0476,2.0476,2.0476,2.0476,2.0476,2.0476,2.0476,2.3382,2.3514,2.3535,2.176,2.1538,2.1576,2.0894,2.0864,2.104,2.104,2.11,2.1189,2.1189,2.1295,2.1408,2.1449,2.1579,2.174,2.1846,2.2026,2.2212,2.2253,2.2383,2.253,2.253,2.2789,2.3,2.3,2.3341,2.3528,2.3528,2.3528,2.3528,2.3528,2.3528,2.3528,2.3528,2.3528,2.3528,2.3528,2.3528,2.3528,2.3528,2.3528,2.3528,2.3528,2.3528,2.3528,2.3528,2.3528,2.3528,2.3528,2.3528,2.3528,2.3399,2.244,2.1888,2.1471,2.0501,1.9955,1.9725,1.9725,1.9725,1.9725,1.9725,1.9725,1.9725,1.9725,1.9725,1.9725,1.9725,1.9725,1.9725,1.9725,1.9725,1.9725,1.9725,1.9725,1.9725,1.9725,1.9725,1.9725,1.9725,1.9725,1.9752,2.001,2.0085,2.0187,2.0388,2.0462,2.0476,2.0476,2.0476,2.0476,2.0476,2.0476,2.0476,2.0476,2.0476,2.0476,2.0476,2.0476,2.0476,2.0476,2.0476,2.0476,2.0476,2.0476,2.0476,2.0476,2.0476,2.0476,2.3434,2.4035,2.4495,2.2211,2.2197,2.2443,2.1316,2.123,2.136,2.136,2.136,2.136,2.136,2.1384,2.1449,2.1675,2.1716,2.179,2.2107,2.2172,2.2253,2.2481,2.2464,2.253,2.253,2.2789,2.3,2.3,2.3341,2.3528,2.3528,2.3528,2.3528,2.3528,2.3528,2.3528,2.3528,2.3528,2.3528,2.3528,2.3528,2.3528,2.3528,2.3528,2.3528,2.3528,2.3528,2.3528,2.3528,2.3528,2.3528,2.3528,2.3528,2.3528,2.3468,2.3407,2.263,2.1593,2.1532,2.069,1.9725,1.9725,1.9725,1.9725,1.9725,1.9725,1.9725,1.9725,1.9725,1.9725,1.9725,1.9725,1.9725,1.9725,1.9725,1.9725,1.9725,1.9725,1.9725,1.9725,1.9725,1.9725,1.9725,1.9725,1.9773,1.9916,2.001,2.0153,2.0315,2.0388,2.0476,2.0476,2.0476,2.0476,2.0476,2.0476,2.0476,2.0476,2.0476,2.0476,2.0476,2.0476,2.0476,2.0476,2.0476,2.0476,2.0476,2.0476,2.0476,2.0476,2.0476,2.0476,2.345,2.3843,2.4099,2.2183,2.1769,2.1698,2.1203,2.1015,2.1033,2.1345,2.1384,2.1384,2.1384,2.1384,2.1449,2.1691,2.1766,2.1912,2.2147,2.2302,2.2407,2.2464,2.253,2.253,2.253,2.2683,2.287,2.3,2.3211,2.3406,2.3528,2.3528,2.3528,2.3528,2.3528,2.3528,2.3528,2.3528,2.3528,2.3528,2.3528,2.3528,2.3528,2.3528,2.3528,2.3528,2.3528,2.3528,2.3528,2.3528,2.3295,2.2924,2.2924,2.269,2.2266,2.2266,2.2017,2.1532,2.1115,2.069,2.0204,1.9847,1.9725,1.9725,1.9725,1.9725,1.9725,1.9725,1.9725,1.9725,1.9725,1.9725,1.9725,1.9725,1.9725,1.9725,1.9725,1.9725,1.9725,1.9725,1.9725,1.9725,1.9725,1.9725,1.9752,1.9976,2.0064,2.0187,2.0374,2.0442,2.0476,2.0476,2.0476,2.0476,2.0476,2.0476,2.0476,2.0476,2.0476,2.0476,2.0476,2.0476,2.0476,2.0476,2.0476,2.0476,2.0476,2.0476,2.0476,2.0476,2.0476,2.0476,2.3775,2.4049,2.4145,2.2535,2.2021,2.1781,2.1292,2.1063,2.1033,2.1345,2.1384,2.1384,2.1384,2.1384,2.1449,2.1691,2.1806,2.1945,2.2172,2.2359,2.253,2.253,2.253,2.253,2.253,2.2618,2.2765,2.2895,2.313,2.3317,2.3422,2.3487,2.3528,2.3528,2.3528,2.3528,2.3528,2.3528,2.3528,2.3528,2.3528,2.3528,2.3528,2.3528,2.3528,2.3528,2.3528,2.3528,2.3528,2.3528,2.3113,2.2622,2.2622,2.2206,2.1593,2.1593,2.1471,2.1176,2.0751,2.044,2.0204,1.9847,1.9725,1.9725,1.9725,1.9725,1.9725,1.9725,1.9725,1.9725,1.9725,1.9725,1.9725,1.9725,1.9725,1.9725,1.9725,1.9725,1.9725,1.9725,1.9725,1.9725,1.9725,1.9725,1.9732,1.9922,2.0031,2.0173,2.0363,2.0422,2.0476,2.0476,2.0476,2.0476,2.0476,2.0476,2.0476,2.0476,2.0476,2.0476,2.0476,2.0476,2.0476,2.0476,2.0476,2.0476,2.0476,2.0476,2.0476,2.0476,2.0476,2.0476,0.0,0.0,0.0,2.3401,2.3073,2.2808,2.1705,2.1384,2.1384,2.1384,2.1384,2.1384,2.1384,2.1384,2.1449,2.1675,2.1806,2.1945,2.2172,2.24,2.2464,2.253,2.253,2.253,2.253,2.2618,2.2724,2.2724,2.3041,2.3295,2.3312,2.3422,2.3528,2.3528,2.3528,2.3528,2.3528,2.3528,2.3528,2.3528,2.3528,2.3528,2.3528,2.3528,2.3528,2.3528,2.3468,2.3468,2.3468,2.3468,2.3113,2.2561,2.2561,2.2145,2.1532,2.1532,2.1176,2.063,2.063,2.0204,1.9725,1.9725,1.9725,1.9725,1.9725,1.9725,1.9725,1.9725,1.9725,1.9725,1.9725,1.9725,1.9725,1.9725,1.9725,1.9725,1.9725,1.9725,1.9725,1.9725,1.9725,1.9725,1.9725,1.9664,1.9657,1.9664,1.9908,2.0098,2.0098,2.03,2.0476,2.0476,2.0476,2.0476,2.0476,2.0476,2.0476,2.0476,2.0476,2.0476,2.0476,2.0476,2.0476,2.0476,2.0476,2.0476,2.0476,2.0476,2.0476,2.0476,2.0476,2.0476,2.457,0.0,0.0,0.0,0.0,0.0,2.213,2.1434,2.0993,2.1345,2.1384,2.1384,2.1384,2.1384,2.1408,2.1449,2.162,2.1855,2.2147,2.2237,2.2318,2.2506,2.253,2.253,2.253,2.2513,2.2594,2.2666,2.2805,2.2976,2.3295,2.3422,2.3528,2.3528,2.3528,2.3528,2.3528,2.3528,2.3528,2.3528,2.3528,2.3528,2.3528,2.3528,2.3528,2.3468,2.3045,2.2856,2.2856,2.2856,2.2206,2.1176,2.1176,2.0751,2.0272,2.069,2.0751,2.063,2.063,2.0501,2.0272,1.9847,1.9725,1.9725,1.9725,1.9725,1.9725,1.9725,1.9725,1.9725,1.9725,1.9725,1.9725,1.9725,1.9725,1.9725,1.9725,1.9725,1.9725,1.9725,1.9725,1.9725,1.9725,1.9286,1.9021,1.9126,1.9296,1.9385,1.9489,2.0108,2.0476,2.0476,2.0476,2.0476,2.0476,2.0476,2.0476,2.0476,2.0476,2.0476,2.0476,2.0476,2.0476,2.0476,2.0476,2.0476,2.0476,2.0476,2.0476,2.0476,2.0476,2.0476,2.4684,2.4797,2.4828,2.4446,0.0,0.0,2.2451,2.1584,2.089,2.1048,2.1048,2.1118,2.1329,2.1221,2.1143,2.1345,2.1528,2.1691,2.1936,2.2107,2.2237,2.2342,2.2424,2.253,2.253,2.253,2.2513,2.2618,2.2675,2.287,2.3295,2.3358,2.3447,2.3528,2.3528,2.3528,2.3528,2.3528,2.3528,2.3528,2.3528,2.3528,2.3528,2.3528,2.3528,2.3468,2.2856,2.244,2.2145,2.1888,2.1304,2.063,2.063,2.0204,1.9725,2.0083,2.0204,2.0204,2.0204,2.0204,2.0144,1.9786,1.9725,1.9725,1.9725,1.9725,1.9725,1.9725,1.9725,1.9725,1.9725,1.9725,1.9725,1.9725,1.9725,1.9725,1.9725,1.9725,1.9725,1.9725,1.9725,1.9725,1.9725,1.9408,1.9069,1.8855,1.8929,1.8914,1.8742,1.9195,1.962,1.9932,1.9995,2.0161,2.0476,2.0476,2.0476,2.0476,2.0476,2.0476,2.0476,2.0476,2.0476,2.0476,2.0476,2.0476,2.0476,2.0476,2.0476,2.0476,2.0476,2.0476,0.0,0.0,0.0,2.4882,2.4065,0.0,2.263,2.1878,2.1137,2.0843,2.067,2.0772,2.1321,2.1072,2.0898,2.1345,2.1384,2.1449,2.1691,2.1936,2.2147,2.2188,2.2342,2.2506,2.253,2.253,2.253,2.253,2.2618,2.287,2.323,2.3295,2.3341,2.3487,2.3512,2.3528,2.3528,2.3528,2.3528,2.3528,2.3528,2.3528,2.3528,2.3528,2.3528,2.3468,2.2751,2.2145,2.1532,2.0833,2.0522,2.0501,2.0501,2.0144,1.9725,1.9725,1.9725,1.9725,1.9725,1.9725,1.9725,1.9725,1.9725,1.9725,1.9725,1.9725,1.9725,1.9725,1.9725,1.9725,1.9725,1.9725,1.9725,1.9725,1.9725,1.9725,1.9725,1.9725,1.9725,1.9725,1.9725,1.9664,1.9597,1.9536,1.9238,1.8549,1.8622,1.8465,1.7898,1.7958,1.8405,1.9227,1.9309,1.962,2.0455,2.0476,2.0476,2.0476,2.0476,2.0476,2.0476,2.0476,2.0476,2.0476,2.0476,2.0476,2.0476,2.0476,2.0476,2.0476,2.0476,2.0476,2.4655,2.4882,2.4882,2.4882,2.4337,0.0,2.3117,2.2526,2.1891,2.137,2.1252,2.1266,2.1384,2.1315,2.1307,2.1384,2.1384,2.1449,2.1691,2.1781,2.1871,2.2147,2.2237,2.2302,2.2506,2.253,2.253,2.253,2.2618,2.274,2.283,2.3106,2.3336,2.336,2.3447,2.3528,2.3528,2.3528,2.3528,2.3528,2.3528,2.3528,2.3528,2.3528,2.3528,2.3468,2.2266,2.1721,2.1494,2.0459,1.9997,1.9847,1.9847,1.9786,1.9725,1.9725,1.9725,1.9725,1.9725,1.9725,1.9725,1.9725,1.9725,1.9725,1.9725,1.9725,1.9725,1.9725,1.9725,1.9725,1.9725,1.9725,1.9725,1.9725,1.9725,1.9725,1.9725,1.9725,1.9725,1.9725,1.9725,1.9536,1.8988,1.844,1.7831,1.7209,1.7205,1.722,1.7108,1.7704,1.8405,1.9227,1.9309,1.962,2.0455,2.0476,2.0476,2.0476,2.0476,2.0476,2.0476,2.0476,2.0476,2.0476,2.0476,2.0476,2.0476,2.0476,2.0476,2.0476,2.0476,2.0476,2.4555,2.4882,2.4882,2.4882,2.4446,0.0,0.0,2.2927,2.2395,2.1639,2.1449,2.1384,2.1384,2.1237,2.1111,2.1345,2.1384,2.1425,2.1569,2.1651,2.1781,2.1912,2.2082,2.2237,2.2318,2.2465,2.253,2.253,2.2553,2.2635,2.2724,2.2895,2.3065,2.3312,2.3341,2.3447,2.3528,2.3528,2.3528,2.3528,2.3528,2.3528,2.3528,2.3528,2.3528,2.3407,2.2145,2.1593,2.1486,2.0281,1.9827,1.9827,1.9827,1.9732,1.9725,1.9725,1.9725,1.9725,1.9725,1.9725,1.9725,1.9725,1.9725,1.9725,1.9725,1.9725,1.9725,1.9725,1.9725,1.9725,1.9725,1.9725,1.9725,1.9725,1.9725,1.9725,1.9725,1.9725,1.9725,1.9725,1.9725,1.9475,1.8799,1.844,1.7879,1.6849,1.6784,1.6702,1.6389,1.7,1.7582,1.8088,1.8792,1.939,1.9849,2.0245,2.0476,2.0476,2.0476,2.0476,2.0476,2.0476,2.0476,2.0476,2.0476,2.0476,2.0476,2.0476,2.0476,2.0476,2.0476,2.0476,2.4501,2.4882,2.4882,2.4882,2.4555,2.4056,0.0,0.0,0.0,2.2091,2.1694,2.1502,2.1557,2.1167,2.0938,2.1345,2.1384,2.1384,2.1384,2.1569,2.1675,2.1716,2.1912,2.2107,2.2188,2.2359,2.253,2.253,2.253,2.2529,2.2659,2.27,2.2846,2.3146,2.3271,2.3377,2.3463,2.3512,2.3528,2.3528,2.3528,2.3528,2.3528,2.3528,2.3528,2.3407,2.2145,2.1593,2.1471,2.0246,1.9814,1.9841,1.9841,1.9786,1.9759,1.9739,1.9725,1.9725,1.9725,1.9725,1.9725,1.9725,1.9725,1.9725,1.9725,1.9725,1.9725,1.9725,1.9725,1.9725,1.9725,1.9725,1.9725,1.9725,1.9725,1.9725,1.9725,1.9725,1.9725,1.9725,1.9725,1.9475,1.8799,1.8677,1.8318,1.7099,1.691,1.6721,1.6238,1.6599,1.7018,1.7343,1.8393,1.921,1.9485,2.0078,2.0476,2.0476,2.0476,2.0476,2.0476,2.0476,2.0476,2.0476,2.0476,2.0476,2.0476,2.0476,2.0476,2.0476,2.0476,2.0476,2.4283,2.4882,2.4882,2.4882,2.4828,2.4674,2.4038,0.0,2.371,2.3045,0.0,2.2198,2.2198,0.0,0.0,2.1384,2.1384,2.1384,2.1384,2.1408,2.1528,2.1699,2.1701,2.1855,2.2172,2.2359,2.253,2.253,2.253,2.253,2.2546,2.2635,2.274,2.2789,2.3081,2.332,2.3336,2.3447,2.3528,2.3528,2.3528,2.3528,2.3528,2.3528,2.3528,2.3407,2.2145,2.1593,2.1486,2.0351,1.9848,1.9739,1.9739,1.9814,1.9841,1.9712,1.9725,1.9725,1.9725,1.9725,1.9725,1.9725,1.9725,1.9725,1.9725,1.9725,1.9725,1.9725,1.9725,1.9725,1.9725,1.9725,1.9725,1.9725,1.9725,1.9725,1.9725,1.9725,1.9725,1.9725,1.9725,1.9475,1.8799,1.8677,1.8428,1.7709,1.7581,1.7581,1.752,1.752,1.788,1.8637,1.8944,1.9398,2.012,2.0388,2.0476,2.0476,2.0476,2.0476,2.0476,2.0476,2.0476,2.0476,2.0476,2.0476,2.0476,2.0476,2.0476,2.0476,2.0476,2.0476,2.4446,2.4392,2.401,2.4719,2.4392,2.3956,2.4446,2.4501,2.4337,2.3746,0.0,0.0,0.0,0.0,0.0,0.0,2.1384,2.1384,2.1384,2.1384,2.1408,2.1545,2.1684,2.184,2.1802,2.1848,2.1945,2.1945,2.2283,2.253,2.253,2.2529,2.2618,2.2724,2.287,2.3041,2.3312,2.3341,2.3422,2.3528,2.3528,2.3528,2.3528,2.3528,2.3528,2.3407,2.2145,2.1593,2.1532,2.0281,1.9827,1.9827,1.9759,1.9759,1.9752,1.9739,1.9725,1.9725,1.9725,1.9725,1.9725,1.9725,1.9725,1.9725,1.9725,1.9725,1.9725,1.9725,1.9725,1.9725,1.9725,1.9725,1.9725,1.9725,1.9725,1.9725,1.9725,1.9725,1.9725,1.9725,1.9725,1.9597,1.9347,1.8988,1.8488,1.777,1.7709,1.7709,1.7709,1.8068,1.8081,1.766,1.8465,1.8983,1.9049,1.9505,1.9995,2.0476,2.0476,2.0476,2.0476,2.0476,2.0476,2.0476,2.0476,2.0476,2.0476,2.0476,2.0476,2.0476,2.0476,2.0476,2.4387,2.4154,2.3711,2.458,2.4182,2.3837,2.4719,2.4882,2.4773,2.4337,2.3746,0.0,0.0,0.0,2.1612,2.1439,0.0,2.1384,2.1384,2.1384,2.1384,2.1384,2.166,2.1767,2.1599,2.1685,2.1725,2.1764,2.225,2.253,2.253,2.253,2.2529,2.2659,2.27,2.2846,2.3106,2.3171,2.3276,2.3447,2.3447,2.3487,2.3528,2.3528,2.3528,2.3407,2.2145,2.1593,2.1471,2.0204,1.9773,1.9861,1.9759,1.9725,1.9725,1.9725,1.9725,1.9725,1.9725,1.9725,1.9725,1.9725,1.9725,1.9725,1.9725,1.9725,1.9725,1.9725,1.9725,1.9725,1.9725,1.9725,1.9725,1.9725,1.9725,1.9725,1.9725,1.9725,1.9725,1.9725,1.9725,1.9725,1.9725,1.9286,1.8799,1.8318,1.8251,1.819,1.8001,1.8379,1.8251,1.7099,1.7948,1.8578,1.8405,1.8925,1.962,2.0476,2.0476,2.0476,2.0476,2.0476,2.0476,2.0476,2.0476,2.0476,2.0476,2.0476,2.0476,2.0476,2.0476,2.0476,2.4012,2.4438,2.4545,2.4598,2.474,2.4828,2.4882,2.4882,2.4882,2.4882,2.4392,2.3774,2.3191,2.2636,2.2088,0.0,2.1384,0.0,0.0,2.1384,2.1384,2.1384,2.1555,2.1741,2.188,2.205,2.2277,2.2448,2.2464,2.253,2.253,2.253,2.253,2.253,2.2635,2.2724,2.274,2.2911,2.3081,2.332,2.332,2.3358,2.3528,2.3528,2.3528,2.3407,2.2145,2.1593,2.1471,2.0204,1.9725,1.9725,1.9725,1.9725,1.9725,1.9725,1.9725,1.9725,1.9725,1.9725,1.9725,1.9725,1.9725,1.9725,1.9725,1.9725,1.9725,1.9725,1.9725,1.9725,1.9725,1.9725,1.9725,1.9725,1.9725,1.9725,1.9725,1.9725,1.9725,1.9725,1.9725,1.9725,1.9725,1.9664,1.9657,1.9657,1.9657,1.9408,1.8738,1.8677,1.844,1.777,1.7819,1.8262,1.9015,1.9225,1.962,2.0476,2.0476,2.0476,2.0476,2.0476,2.0476,2.0476,2.0476,2.0476,2.0476,2.0476,2.0476,2.0476,2.0476,2.0476,2.4243,2.3386,2.2678,2.3755,2.3356,2.3002,2.4038,2.461,2.4735,2.4225,2.4028,2.3692,2.259,2.234,0.0,0.0,0.0,2.1557,0.0,2.165,2.1384,2.1384,2.1207,2.1127,2.1293,2.1061,2.0965,2.1026,2.1225,2.1484,2.1845,2.199,2.2172,2.2464,2.2529,2.2618,2.2724,2.2789,2.2911,2.3081,2.3255,2.3301,2.3358,2.3463,2.3528,2.3407,2.2145,2.1593,2.1471,2.0204,1.9725,1.9725,1.9725,1.9725,1.9725,1.9725,1.9725,1.9725,1.9725,1.9725,1.9725,1.9725,1.9725,1.9725,1.9725,1.9725,1.9725,1.9725,1.9725,1.9725,1.9725,1.9725,1.9725,1.9725,1.9725,1.9725,1.9725,1.9725,1.9725,1.9725,1.9725,1.9725,1.9725,1.9725,1.9725,1.9725,1.9725,1.9597,1.9408,1.9347,1.9117,1.844,1.8411,1.8593,1.9077,1.968,2.0225,2.0476,2.0476,2.0476,2.0476,2.0476,2.0476,2.0476,2.0476,2.0476,2.0476,2.0476,2.0476,2.0476,2.0476,2.0476,2.4079,2.3169,2.2524,2.3536,2.3206,2.2765,2.3702,2.4181,2.4326,2.3891,2.3756,2.3429,2.2544,2.234,0.0,0.0,0.0,0.0,0.0,2.165,2.1408,2.1528,2.1207,2.0985,2.0996,2.0902,2.0823,2.0648,2.0905,2.1186,2.1483,2.165,2.1848,2.2214,2.2389,2.2571,2.2635,2.2635,2.2724,2.2895,2.3016,2.3106,2.323,2.3358,2.3318,2.301,2.2062,2.1471,2.1176,2.0144,1.9725,1.9725,1.9725,1.9725,1.9725,1.9725,1.9725,1.9725,1.9725,1.9725,1.9725,1.9725,1.9725,1.9725,1.9725,1.9725,1.9739,1.9848,1.9752,1.9739,1.9848,1.9793,1.9725,1.9725,1.9725,1.9725,1.9725,1.9725,1.9725,1.9725,1.9725,1.9725,1.9725,1.9725,1.9725,1.9725,1.9725,1.9597,1.9408,1.9347,1.911,1.844,1.8318,1.8542,1.9077,1.9928,2.0476,2.0476,2.0476,2.0476,2.0476,2.0476,2.0614,2.077,2.0564,2.0614,2.077,2.0614,2.0476,2.0476,2.0476,2.0476]},{"header":{"parameterUnit":"m.s-1","parameterCategory":1,"la1":30.6,"la2":29.2853,"lo1":-89.7004,"lo2":-87.6739,"dy":0.0162,"dx":0.0183,"nx":112,"ny":82,"refTime":"2023-04-07T18:00:00:Z","depth":0,"parameterNumber":3,"parameterNumberName":"V-component_of_WINDS"},"data":[0.0,0.0,0.0,0.0,0.0,0.0,0.0,0.0,0.0,0.0,0.0,0.0,0.0,0.0,0.0,0.0,0.0,0.0,0.0,0.0,0.0,0.0,0.0,0.0,0.0,0.0,0.0,0.0,0.0,0.0,0.0,0.0,0.0,0.0,0.0,0.0,0.0,0.0,0.0,0.0,0.0,0.0,0.0,0.0,0.0,0.0,0.0,0.0,0.0,0.0,0.0,0.0,0.0,0.0,0.0,0.0,0.0,0.0,0.0,0.0,0.0,0.0,0.0,0.0,0.0,0.0,0.0,0.0,0.0,0.0,0.0,0.0,0.0,0.0,0.0,0.0,0.0,0.0,0.0,0.0,0.0,0.0,0.0,0.0,0.0,0.0,0.0,0.0,0.0,0.0,7.4393,7.4393,7.5051,7.5509,7.5509,7.5509,7.5204,7.4469,0.0,0.0,0.0,0.0,0.0,0.0,0.0,0.0,0.0,0.0,0.0,0.0,0.0,0.0,0.0,0.0,0.0,0.0,0.0,0.0,0.0,0.0,0.0,0.0,0.0,0.0,0.0,0.0,0.0,0.0,0.0,0.0,0.0,0.0,0.0,0.0,0.0,0.0,0.0,0.0,0.0,0.0,0.0,0.0,0.0,0.0,0.0,0.0,0.0,0.0,0.0,0.0,0.0,0.0,0.0,0.0,0.0,0.0,0.0,0.0,0.0,0.0,0.0,0.0,0.0,0.0,0.0,0.0,0.0,0.0,0.0,0.0,0.0,0.0,0.0,0.0,0.0,0.0,0.0,0.0,0.0,0.0,0.0,0.0,0.0,0.0,0.0,0.0,0.0,0.0,0.0,0.0,0.0,0.0,0.0,0.0,0.0,0.0,0.0,0.0,0.0,0.0,0.0,0.0,7.5318,7.5318,7.5433,7.5509,7.5509,7.5509,7.5433,7.5318,0.0,0.0,0.0,0.0,0.0,0.0,0.0,0.0,0.0,0.0,0.0,0.0,0.0,0.0,0.0,0.0,0.0,0.0,0.0,0.0,0.0,0.0,0.0,0.0,0.0,0.0,0.0,0.0,0.0,0.0,0.0,0.0,0.0,0.0,0.0,0.0,0.0,0.0,0.0,0.0,0.0,0.0,0.0,0.0,0.0,0.0,0.0,0.0,0.0,0.0,0.0,0.0,0.0,0.0,0.0,0.0,0.0,0.0,0.0,0.0,0.0,0.0,0.0,0.0,0.0,0.0,0.0,0.0,0.0,0.0,0.0,0.0,0.0,0.0,0.0,0.0,0.0,0.0,0.0,0.0,0.0,0.0,0.0,0.0,0.0,0.0,0.0,0.0,0.0,0.0,0.0,0.0,0.0,0.0,0.0,0.0,0.0,0.0,0.0,0.0,0.0,0.0,0.0,7.5509,7.5509,7.5509,7.5891,7.6159,7.6159,7.657,7.6647,7.6197,7.5768,0.0,0.0,0.0,0.0,0.0,0.0,0.0,0.0,0.0,0.0,0.0,0.0,0.0,0.0,0.0,0.0,0.0,0.0,0.0,0.0,0.0,0.0,0.0,0.0,0.0,0.0,0.0,0.0,0.0,0.0,0.0,0.0,0.0,0.0,0.0,0.0,0.0,0.0,0.0,0.0,0.0,0.0,0.0,0.0,0.0,0.0,0.0,0.0,0.0,0.0,0.0,0.0,0.0,0.0,0.0,0.0,0.0,0.0,0.0,0.0,0.0,0.0,0.0,0.0,0.0,0.0,0.0,0.0,0.0,0.0,0.0,0.0,0.0,0.0,0.0,0.0,0.0,0.0,0.0,0.0,0.0,0.0,0.0,0.0,0.0,0.0,0.0,0.0,0.0,0.0,0.0,0.0,0.0,0.0,0.0,0.0,0.0,0.0,0.0,0.0,0.0,0.0,7.5968,7.6083,7.6083,7.6647,7.7029,7.7029,7.764,7.7717,7.7067,7.7029,0.0,0.0,0.0,0.0,0.0,0.0,0.0,0.0,0.0,0.0,0.0,0.0,0.0,0.0,0.0,0.0,0.0,0.0,0.0,0.0,0.0,0.0,0.0,0.0,0.0,0.0,0.0,0.0,0.0,0.0,0.0,0.0,0.0,0.0,0.0,0.0,0.0,0.0,0.0,0.0,0.0,0.0,0.0,0.0,0.0,0.0,0.0,0.0,0.0,0.0,0.0,0.0,0.0,0.0,0.0,0.0,0.0,0.0,0.0,0.0,0.0,0.0,0.0,0.0,0.0,0.0,0.0,0.0,0.0,0.0,0.0,0.0,0.0,0.0,0.0,0.0,0.0,0.0,0.0,0.0,0.0,0.0,0.0,0.0,0.0,0.0,0.0,0.0,0.0,0.0,0.0,0.0,0.0,0.0,0.0,0.0,0.0,0.0,0.0,0.0,0.0,0.0,7.7335,7.7831,7.7831,7.787,7.7908,7.7908,7.7946,7.7984,7.7908,7.7908,0.0,0.0,0.0,0.0,0.0,0.0,0.0,0.0,0.0,0.0,0.0,0.0,0.0,0.0,0.0,0.0,0.0,0.0,0.0,0.0,0.0,0.0,0.0,0.0,0.0,0.0,0.0,0.0,0.0,0.0,0.0,0.0,0.0,0.0,0.0,0.0,0.0,0.0,0.0,0.0,0.0,0.0,0.0,0.0,0.0,0.0,0.0,0.0,0.0,0.0,0.0,0.0,0.0,0.0,0.0,0.0,0.0,0.0,0.0,0.0,0.0,0.0,0.0,0.0,0.0,0.0,0.0,0.0,0.0,0.0,0.0,0.0,0.0,0.0,0.0,0.0,0.0,0.0,0.0,0.0,0.0,0.0,0.0,0.0,0.0,0.0,0.0,0.0,0.0,0.0,0.0,0.0,0.0,0.0,0.0,0.0,0.0,0.0,0.0,0.0,0.0,0.0,7.7793,7.8022,7.8022,7.8481,7.8796,7.8796,7.9283,7.9321,7.8834,0.0,0.0,0.0,0.0,0.0,0.0,0.0,0.0,0.0,0.0,0.0,0.0,0.0,0.0,0.0,0.0,0.0,0.0,0.0,0.0,0.0,0.0,0.0,0.0,0.0,0.0,0.0,0.0,0.0,0.0,0.0,0.0,0.0,0.0,0.0,0.0,0.0,0.0,0.0,0.0,0.0,0.0,0.0,0.0,0.0,0.0,0.0,0.0,0.0,0.0,0.0,0.0,0.0,0.0,0.0,0.0,0.0,0.0,0.0,0.0,0.0,0.0,0.0,0.0,0.0,0.0,0.0,0.0,0.0,0.0,0.0,0.0,0.0,0.0,0.0,0.0,0.0,0.0,0.0,0.0,0.0,0.0,0.0,0.0,0.0,0.0,0.0,0.0,0.0,0.0,0.0,0.0,0.0,0.0,0.0,0.0,0.0,0.0,0.0,0.0,0.0,0.0,7.8404,7.8634,7.8787,7.8787,7.9321,7.9675,7.9675,8.0162,8.0277,7.9713,0.0,0.0,0.0,0.0,0.0,0.0,0.0,0.0,0.0,0.0,0.0,0.0,0.0,0.0,0.0,0.0,0.0,0.0,0.0,0.0,0.0,0.0,0.0,0.0,0.0,0.0,0.0,0.0,0.0,0.0,0.0,0.0,0.0,0.0,0.0,0.0,0.0,0.0,0.0,0.0,0.0,0.0,0.0,0.0,0.0,0.0,0.0,0.0,0.0,0.0,0.0,0.0,0.0,0.0,0.0,0.0,0.0,0.0,0.0,0.0,0.0,0.0,0.0,0.0,0.0,0.0,0.0,0.0,0.0,0.0,0.0,0.0,0.0,0.0,0.0,0.0,0.0,0.0,0.0,0.0,0.0,0.0,0.0,0.0,0.0,0.0,0.0,0.0,0.0,0.0,0.0,0.0,0.0,0.0,0.0,0.0,0.0,0.0,0.0,0.0,0.0,0.0,7.9292,8.0018,8.0506,8.0506,8.0506,8.0506,8.0506,8.0506,8.0506,0.0,0.0,0.0,0.0,0.0,0.0,0.0,0.0,0.0,0.0,0.0,0.0,0.0,0.0,0.0,0.0,0.0,0.0,0.0,0.0,0.0,0.0,0.0,0.0,0.0,0.0,0.0,0.0,0.0,0.0,0.0,0.0,0.0,0.0,0.0,0.0,0.0,0.0,0.0,0.0,0.0,0.0,0.0,0.0,0.0,0.0,0.0,0.0,0.0,0.0,0.0,0.0,0.0,0.0,0.0,0.0,0.0,0.0,0.0,0.0,0.0,0.0,0.0,0.0,0.0,0.0,0.0,0.0,0.0,0.0,0.0,0.0,0.0,0.0,0.0,0.0,0.0,0.0,0.0,0.0,0.0,0.0,0.0,0.0,0.0,0.0,0.0,0.0,0.0,0.0,0.0,0.0,0.0,0.0,0.0,0.0,0.0,0.0,0.0,0.0,0.0,0.0,0.0,8.0171,8.0353,8.0506,8.0506,8.0506,8.0506,8.0506,8.0506,8.0506,8.0506,0.0,0.0,0.0,0.0,0.0,0.0,0.0,0.0,0.0,0.0,0.0,0.0,0.0,0.0,0.0,0.0,0.0,0.0,0.0,0.0,0.0,0.0,0.0,0.0,0.0,0.0,0.0,0.0,0.0,0.0,0.0,0.0,0.0,0.0,0.0,0.0,0.0,0.0,0.0,0.0,0.0,0.0,0.0,0.0,0.0,0.0,0.0,0.0,0.0,0.0,0.0,0.0,0.0,0.0,0.0,0.0,0.0,0.0,0.0,0.0,0.0,0.0,0.0,0.0,0.0,0.0,0.0,0.0,0.0,0.0,0.0,0.0,0.0,0.0,0.0,0.0,0.0,0.0,0.0,0.0,0.0,0.0,0.0,0.0,0.0,0.0,0.0,0.0,0.0,0.0,0.0,0.0,0.0,0.0,0.0,0.0,0.0,0.0,0.0,0.0,0.0,0.0,8.0506,8.0506,8.0506,8.0506,8.0506,8.0506,8.0506,8.0506,8.0506,8.0506,0.0,0.0,0.0,0.0,0.0,0.0,0.0,0.0,0.0,0.0,0.0,0.0,0.0,0.0,0.0,0.0,0.0,0.0,0.0,0.0,0.0,0.0,0.0,0.0,0.0,0.0,0.0,0.0,0.0,0.0,0.0,0.0,0.0,0.0,0.0,0.0,0.0,0.0,0.0,0.0,0.0,0.0,0.0,0.0,0.0,0.0,0.0,0.0,0.0,0.0,0.0,0.0,0.0,0.0,0.0,0.0,0.0,0.0,0.0,0.0,0.0,0.0,0.0,0.0,0.0,0.0,0.0,0.0,0.0,0.0,0.0,0.0,0.0,0.0,0.0,0.0,0.0,0.0,0.0,0.0,0.0,0.0,0.0,0.0,0.0,0.0,0.0,0.0,0.0,0.0,0.0,0.0,0.0,0.0,0.0,0.0,0.0,0.0,0.0,0.0,0.0,0.0,8.0506,8.0582,8.0621,8.0621,8.0697,8.0697,8.0621,8.0621,8.0582,8.0506,0.0,0.0,0.0,0.0,0.0,0.0,0.0,0.0,0.0,0.0,0.0,0.0,0.0,0.0,0.0,0.0,0.0,0.0,0.0,0.0,0.0,0.0,0.0,0.0,0.0,0.0,0.0,0.0,0.0,0.0,0.0,0.0,0.0,0.0,0.0,0.0,0.0,0.0,0.0,0.0,0.0,0.0,0.0,0.0,0.0,0.0,0.0,0.0,0.0,0.0,0.0,0.0,0.0,0.0,0.0,0.0,0.0,0.0,0.0,0.0,7.0432,7.0735,0.0,0.0,0.0,0.0,0.0,0.0,0.0,0.0,0.0,0.0,0.0,0.0,0.0,0.0,0.0,0.0,0.0,0.0,0.0,0.0,0.0,0.0,0.0,0.0,0.0,0.0,0.0,0.0,0.0,0.0,0.0,0.0,0.0,0.0,0.0,0.0,0.0,0.0,0.0,0.0,8.0506,8.1117,8.1538,8.1538,8.2073,8.2197,8.1576,8.1538,8.1232,8.0544,8.0506,0.0,0.0,0.0,0.0,0.0,0.0,0.0,0.0,0.0,0.0,0.0,0.0,0.0,0.0,0.0,0.0,0.0,0.0,0.0,0.0,0.0,0.0,0.0,0.0,0.0,0.0,0.0,0.0,0.0,0.0,0.0,0.0,0.0,0.0,0.0,0.0,0.0,0.0,0.0,0.0,0.0,0.0,0.0,0.0,0.0,0.0,0.0,0.0,0.0,0.0,0.0,0.0,0.0,0.0,0.0,0.0,0.0,0.0,0.0,7.2128,7.1824,0.0,0.0,0.0,0.0,0.0,0.0,0.0,0.0,0.0,0.0,0.0,0.0,0.0,0.0,0.0,0.0,0.0,0.0,0.0,0.0,0.0,0.0,0.0,0.0,0.0,0.0,0.0,0.0,0.0,0.0,0.0,0.0,0.0,0.0,0.0,0.0,0.0,0.0,0.0,0.0,8.17,8.2111,8.2378,8.2378,8.277,8.2846,8.2416,8.2378,8.2187,8.1729,8.17,0.0,0.0,0.0,0.0,0.0,0.0,0.0,0.0,0.0,0.0,0.0,0.0,0.0,0.0,0.0,0.0,0.0,0.0,0.0,0.0,0.0,0.0,0.0,0.0,0.0,0.0,0.0,0.0,0.0,0.0,0.0,0.0,0.0,0.0,0.0,0.0,0.0,0.0,0.0,0.0,0.0,0.0,0.0,0.0,0.0,0.0,0.0,0.0,0.0,0.0,0.0,0.0,0.0,7.2658,7.3341,7.4657,7.3937,7.3596,7.3596,7.3596,7.28,7.1711,7.3795,0.0,0.0,0.0,0.0,0.0,0.0,0.0,0.0,0.0,0.0,0.0,0.0,0.0,0.0,0.0,0.0,0.0,0.0,0.0,0.0,0.0,0.0,8.1404,8.341,8.3878,8.3878,8.3878,0.0,0.0,0.0,0.0,0.0,0.0,0.0,0.0,0.0,0.0,0.0,8.2999,8.3114,8.3228,8.3228,8.3343,8.3381,8.3228,8.3228,8.3152,8.2999,8.2999,8.2999,0.0,0.0,0.0,0.0,0.0,0.0,0.0,0.0,0.0,0.0,0.0,0.0,0.0,0.0,0.0,0.0,0.0,0.0,0.0,0.0,0.0,0.0,0.0,0.0,0.0,0.0,0.0,0.0,0.0,0.0,0.0,0.0,7.0669,7.0735,0.0,0.0,0.0,0.0,0.0,0.0,0.0,0.0,0.0,0.0,0.0,0.0,0.0,7.3497,7.4069,7.3556,7.3669,7.4382,7.3745,7.3558,7.3785,7.3634,7.3596,7.3596,7.3596,0.0,7.3293,7.3634,0.0,0.0,0.0,0.0,0.0,0.0,0.0,0.0,0.0,0.0,0.0,0.0,0.0,0.0,0.0,0.0,0.0,0.0,0.0,0.0,0.0,0.0,8.3388,8.6648,8.7432,8.7432,8.7432,8.5101,8.2999,8.2999,8.2999,8.2999,0.0,0.0,0.0,0.0,0.0,0.0,8.2999,8.3649,8.4136,8.4136,8.4747,8.49,8.4174,8.4136,8.3802,8.3037,8.2999,8.2999,8.2999,8.2999,0.0,0.0,0.0,0.0,0.0,0.0,0.0,0.0,0.0,0.0,0.0,0.0,0.0,0.0,0.0,0.0,0.0,0.0,0.0,0.0,0.0,0.0,0.0,0.0,0.0,0.0,0.0,0.0,0.0,7.1499,7.1676,7.1688,7.1696,7.1686,0.0,0.0,0.0,0.0,0.0,0.0,0.0,0.0,0.0,7.4998,7.4947,7.4878,7.4823,7.494,7.5167,7.5504,7.5659,7.5718,7.5718,7.5718,7.5718,7.5718,7.5718,7.5718,7.5642,7.4733,7.4467,7.4809,0.0,0.0,0.0,0.0,7.6828,7.679,7.6449,7.6297,7.6373,7.6828,0.0,0.0,0.0,0.0,0.0,0.0,0.0,7.9718,8.2824,8.3607,8.4322,8.7363,8.812,8.812,8.812,8.6935,8.5865,8.5865,8.5865,8.5865,8.5865,8.5865,0.0,0.0,0.0,8.5865,8.5865,8.6199,8.6428,8.6428,8.6734,8.681,8.6467,8.6428,8.6285,8.5903,8.5865,8.5865,8.5865,8.5865,8.5626,0.0,0.0,0.0,0.0,0.0,0.0,0.0,0.0,0.0,0.0,0.0,0.0,0.0,0.0,0.0,0.0,0.0,0.0,0.0,0.0,0.0,0.0,0.0,0.0,0.0,0.0,0.0,0.0,7.2865,7.2879,7.3019,7.2731,7.2601,0.0,0.0,0.0,0.0,0.0,0.0,7.6362,7.6078,7.6068,7.64,7.6327,7.6137,7.5842,7.6449,7.6931,7.7396,7.804,7.8344,7.8344,7.8344,7.8344,7.8344,7.8116,7.8154,7.8192,7.6335,7.5415,7.5339,7.66,7.7207,7.7434,7.7889,7.7889,7.7699,7.7472,7.7396,7.7548,7.8344,7.8987,7.9537,8.0144,0.0,0.0,0.0,0.0,8.1323,8.3752,8.4556,8.5349,8.778,8.8547,8.8721,8.8721,8.8721,8.8606,8.8186,8.812,8.812,8.812,8.812,0.0,8.812,8.812,8.812,8.812,8.812,8.812,8.812,8.812,8.812,8.812,8.812,8.812,8.812,8.812,8.812,8.812,8.812,8.7804,8.7144,0.0,0.0,0.0,0.0,0.0,0.0,0.0,0.0,0.0,0.0,0.0,0.0,0.0,0.0,0.0,0.0,0.0,0.0,0.0,0.0,0.0,0.0,0.0,0.0,0.0,0.0,0.0,0.0,0.0,7.5784,7.4451,0.0,0.0,0.0,0.0,7.5983,7.5889,7.6295,7.7272,7.6419,7.6333,7.732,7.732,7.7699,7.8419,7.8457,7.9253,8.0845,8.0883,8.0921,8.0921,8.0921,8.0921,8.0883,8.0098,8.0201,8.0731,7.8268,7.8192,7.9594,7.967,8.0163,8.0769,8.0049,7.9253,7.8419,7.7661,7.7396,7.7548,7.8344,7.9756,8.117,8.1208,8.1788,0.0,0.0,8.2445,8.2743,8.4633,8.5763,8.6834,8.8618,8.9794,9.0468,9.0468,9.0468,9.0009,8.8415,8.812,8.812,8.812,0.0,8.812,8.812,8.812,8.812,8.812,8.812,8.812,8.812,8.812,8.812,8.812,8.812,8.812,8.812,8.812,8.812,8.812,8.812,8.8071,8.8033,8.8033,0.0,0.0,0.0,0.0,0.0,0.0,0.0,0.0,0.0,0.0,0.0,0.0,0.0,0.0,0.0,0.0,0.0,0.0,0.0,0.0,0.0,0.0,0.0,0.0,0.0,0.0,0.0,0.0,7.7414,7.664,0.0,7.5523,7.5792,7.5997,7.6097,7.5965,7.6825,7.8912,7.8653,7.9145,8.058,8.0629,8.078,8.1046,8.1046,8.1349,8.1955,8.1955,8.1955,8.1955,8.1955,8.1955,8.1918,8.1652,8.169,8.188,8.097,8.0011,7.9064,7.9064,7.9253,7.9519,7.9784,7.9708,7.9405,7.9102,7.9026,7.914,7.9936,8.0651,8.1263,8.187,8.2271,8.251,8.2553,8.2499,8.2874,8.4632,8.6154,8.7737,8.9534,9.1092,9.2198,9.2198,9.2198,9.2045,9.1434,9.044,8.9867,9.0402,9.0478,9.0669,9.1243,9.0822,9.0478,9.0478,9.002,8.9714,8.9714,8.9714,8.9714,8.9714,8.9714,8.9714,8.9714,8.9714,8.9714,8.9714,8.9714,8.9447,8.8874,8.8874,8.8606,0.0,0.0,0.0,0.0,0.0,0.0,0.0,0.0,0.0,0.0,0.0,0.0,0.0,0.0,0.0,0.0,0.0,0.0,0.0,0.0,0.0,0.0,0.0,0.0,0.0,7.6872,7.697,7.8268,7.7711,7.7219,7.7198,7.7187,7.7355,7.7765,7.7711,7.8571,8.0618,8.0466,8.097,8.2372,8.241,8.2524,8.2789,8.2789,8.2941,8.3233,8.3233,8.3233,8.3233,8.3233,8.3233,8.3233,8.3233,8.3233,8.3233,8.2941,8.1804,8.0277,8.0277,8.0277,8.0352,8.0932,8.097,8.0742,8.0742,8.0932,8.1235,8.1766,8.2134,8.2562,8.3437,8.3535,8.3383,8.3649,8.3497,8.3573,8.4673,8.6555,8.845,8.9631,9.1555,9.3115,9.3115,9.3115,9.3115,9.3115,9.2198,9.1614,9.216,9.2236,9.2427,9.3,9.2618,9.2236,9.2236,9.1778,9.1423,9.1423,9.1423,9.1423,9.1423,9.1423,9.1423,9.1423,9.1423,9.1423,9.1423,9.1423,9.1052,9.0173,9.0135,9.002,8.9791,0.0,0.0,0.0,0.0,0.0,0.0,0.0,0.0,0.0,0.0,0.0,0.0,0.0,0.0,0.0,0.0,0.0,0.0,0.0,0.0,0.0,0.0,0.0,7.7472,7.7376,7.7592,7.8435,7.7719,7.7836,7.9558,7.9721,8.0117,8.1024,8.1073,8.1489,8.2372,8.1641,8.1603,8.2486,8.2524,8.2941,8.3699,8.3737,8.4143,8.4927,8.4927,8.4927,8.4889,8.4889,8.4889,8.4889,8.4889,8.4889,8.4813,8.3991,8.3623,8.3623,8.3585,8.3548,8.3548,8.3548,8.3055,8.241,8.241,8.2941,8.3585,8.3585,8.4218,8.5079,8.5874,8.5571,8.5154,8.5912,8.5571,8.4965,8.4965,8.7031,8.9113,8.9113,9.1233,9.3268,9.3268,9.3268,9.3268,9.3268,9.3268,9.3229,9.3153,9.3153,9.3153,9.3153,9.3153,0.0,9.3153,9.3115,9.3115,9.3115,9.3115,9.3115,9.3115,9.3115,9.3115,9.3115,9.3115,9.3115,9.3115,9.3115,9.2695,9.1854,9.1854,9.2274,9.3115,0.0,0.0,0.0,0.0,0.0,0.0,0.0,0.0,0.0,0.0,0.0,0.0,0.0,0.0,0.0,0.0,0.0,0.0,0.0,0.0,0.0,7.9876,7.9683,7.9339,7.9134,7.9565,8.1055,8.0954,8.0699,8.0452,8.0613,8.0779,8.0939,8.0965,8.1616,8.3195,8.3532,8.4126,8.5041,8.5697,8.6114,8.6341,8.6341,8.6151,8.5761,8.5761,8.5458,8.4889,8.4889,8.4889,8.4889,8.4889,8.4889,8.4889,8.4635,8.456,8.4408,8.3195,8.2714,8.2714,8.2714,8.26,8.241,8.241,8.2941,8.3585,8.3585,8.456,8.5799,8.6026,8.6379,8.6758,8.6985,8.6872,8.672,8.672,8.9196,9.1674,9.1674,9.4285,9.6733,9.6733,9.6733,9.6733,9.6733,9.6733,9.616,9.4338,9.4021,9.4261,9.4834,9.4414,9.4021,9.4021,9.3497,9.3115,9.3115,9.3115,9.3115,9.3115,9.3115,9.3115,9.3115,9.3115,9.3115,9.3115,9.3115,9.3,9.2733,9.2733,9.2847,0.0,0.0,0.0,0.0,0.0,0.0,0.0,0.0,0.0,0.0,0.0,0.0,0.0,0.0,0.0,0.0,0.0,0.0,0.0,0.0,0.0,0.0,8.1426,8.1225,8.0948,8.0787,8.1036,8.2051,8.2144,8.2036,8.1764,8.1894,8.2278,8.2924,8.2952,8.3566,8.5128,8.5541,8.5971,8.6632,8.7137,8.7402,8.7402,8.7402,8.7137,8.6632,8.6632,8.6417,8.5962,8.5962,8.5962,8.5962,8.5962,8.5962,8.5962,8.5962,8.5962,8.5772,0.0,0.0,0.0,0.0,8.4495,8.4495,8.4495,8.4787,8.5204,8.5204,8.6076,8.7201,8.7554,8.8044,8.8585,8.8926,8.8822,8.8542,8.8483,9.0912,9.3293,9.3247,9.5734,9.8109,9.8109,9.8109,9.8109,9.8109,9.8109,0.0,9.6199,9.5931,9.6122,9.6592,9.6237,9.5931,9.5931,9.5511,9.5178,9.5178,9.5178,9.5178,9.5178,9.5178,0.0,0.0,0.0,9.4529,9.4146,9.3841,0.0,0.0,0.0,9.3803,9.4146,9.4146,0.0,0.0,9.3191,9.2847,0.0,0.0,0.0,0.0,0.0,0.0,0.0,0.0,0.0,0.0,0.0,0.0,0.0,0.0,0.0,0.0,8.2501,8.2496,8.2548,8.2579,8.2469,8.2268,8.2356,8.2695,8.3488,8.3601,8.4315,8.5899,8.5901,8.6291,8.7352,8.7296,0.0,0.0,0.0,8.7668,8.7668,8.7781,8.7781,8.7668,8.7781,8.7781,8.7668,8.7668,8.7668,8.7668,8.7668,8.7668,8.7668,8.7668,8.7668,8.7516,8.5848,8.5609,8.6329,8.7099,8.7402,8.7402,8.7402,0.0,0.0,8.7566,8.821,8.9146,8.9764,9.0115,9.0438,9.1197,9.0962,9.0472,9.0345,9.2322,9.43,9.4196,9.6242,9.8262,9.8262,9.83,9.8376,9.8376,9.8376,9.8376,9.8376,9.8223,9.8109,9.8109,9.8109,9.8109,9.8109,9.8109,9.8109,9.8109,9.8109,0.0,9.8109,9.8109,9.7803,9.7089,9.705,9.6706,9.5904,9.5216,9.514,9.5866,9.5178,9.5178,9.5866,9.5866,9.5866,9.5828,9.4146,9.3382,0.0,0.0,0.0,0.0,0.0,0.0,0.0,0.0,0.0,0.0,0.0,0.0,0.0,0.0,0.0,8.3056,8.372,8.4376,8.4796,8.5487,8.5411,8.4029,8.4431,8.5108,8.578,8.6178,8.6442,8.6669,8.6682,8.6895,8.739,8.7789,8.8104,8.8376,8.8994,8.9335,8.9335,9.0017,9.0017,8.9335,9.0055,0.0,8.9335,8.9335,8.9335,8.9335,8.9335,8.9335,8.9335,8.9335,8.9335,8.9184,8.7554,8.7023,8.7175,8.7326,8.7402,8.7402,8.7402,8.8236,8.9234,8.8696,8.9913,9.152,9.1125,9.1489,0.0,9.2223,9.2243,9.2222,9.2199,9.3674,9.5151,9.5139,9.7177,9.9152,9.9152,9.9649,10.0107,10.0107,10.0107,10.0107,10.0107,9.8988,9.8109,9.8109,9.8109,9.8109,9.8109,9.8109,9.8109,9.8109,9.8109,9.8109,9.8109,9.8109,9.8032,9.788,9.788,9.7803,9.7612,9.7459,9.7459,9.7612,9.7459,9.7459,9.7612,9.7612,9.7612,9.7574,9.5904,9.5102,0.0,0.0,0.0,0.0,0.0,0.0,0.0,0.0,0.0,0.0,0.0,8.3088,8.3258,0.0,8.4594,8.5009,8.5573,8.5989,8.6088,8.6542,8.6517,8.5519,8.5874,8.6301,8.6503,8.6793,8.7147,8.7512,8.7537,8.784,8.8565,8.881,8.9213,8.9828,9.0245,9.0624,9.1041,9.1496,9.1496,9.1041,9.1496,9.1458,9.1041,9.1041,9.1041,9.1041,9.1041,9.1041,9.1041,9.1041,9.1041,9.0965,9.0169,8.9601,8.9297,8.9714,8.9866,8.9866,8.9866,9.0396,9.1028,9.0744,9.1731,9.2985,9.2739,9.3279,9.3961,9.3864,9.3935,9.4032,9.3876,9.4887,9.5934,9.5934,9.7679,9.9311,9.937,9.9992,10.0604,10.0604,10.0604,10.0604,10.0604,9.9916,9.9331,9.9331,9.9331,9.9331,9.9331,9.9331,9.9331,9.9331,9.9331,9.9331,9.9331,9.8999,9.877,9.877,9.8338,9.8109,9.8109,9.8109,9.8109,9.8109,9.8109,9.8109,9.8109,9.8109,9.8109,9.8071,9.7241,9.6859,0.0,0.0,0.0,0.0,0.0,0.0,0.0,8.2398,8.3025,8.3161,8.3665,8.4427,8.5512,8.5725,8.5975,8.6756,8.716,8.7273,8.6939,8.7182,8.7257,8.6991,8.7052,8.7067,8.6991,8.7218,8.7763,8.8631,8.8708,8.9163,9.0233,9.0146,9.0487,9.1306,9.1344,9.1647,9.2292,9.2481,9.2557,9.2557,9.2709,9.2784,9.2784,9.2784,9.2784,9.2784,9.2784,9.2784,9.2784,9.2784,9.2784,9.2784,9.2784,9.2367,9.1875,9.2178,9.2292,9.2292,9.2292,9.2405,9.2582,9.2718,9.3312,9.4034,9.4168,9.4744,9.5348,9.5215,9.5336,9.5394,9.5131,9.5676,9.6331,9.6483,9.7787,9.9038,9.932,9.9992,10.0604,10.0604,10.0604,10.0604,10.0604,10.0604,10.0604,10.0604,10.0604,10.0604,10.0604,10.0604,10.0604,10.0604,10.0604,10.0604,10.0604,9.9992,9.961,9.961,9.8961,9.8605,9.8605,9.8605,9.8605,9.8605,9.8605,9.8605,9.8605,9.8605,9.8605,9.8605,9.8605,9.8414,8.1237,8.172,8.1946,8.1808,8.2334,8.2711,0.0,8.2335,8.2873,8.3162,8.369,8.4427,8.5512,8.6164,8.66,8.6702,8.7497,8.7974,8.7732,8.8391,8.8883,8.8756,8.8118,8.7968,8.8668,8.895,8.9486,9.0367,9.0522,9.1004,9.1988,9.19,9.1925,9.2178,9.2178,9.2216,9.2292,9.305,9.3441,9.3479,9.4199,9.4541,9.4541,9.4541,9.4541,9.4541,9.4541,9.4541,9.4541,9.4541,9.4541,9.4541,9.4541,9.4465,9.4237,9.2822,9.2292,9.2292,9.2292,9.2822,9.3492,9.3629,9.4124,9.4693,9.4869,9.5031,9.5203,9.5191,9.5356,9.5554,9.5406,9.5447,9.5737,9.6512,9.7389,9.8275,9.9205,9.9992,10.0604,10.0604,10.0604,10.0604,10.0604,10.0604,10.0604,10.0604,10.0604,10.0604,10.0604,10.0604,10.0604,10.0604,10.0604,10.0604,10.0604,10.0489,10.0489,10.0489,10.0413,10.0298,10.0298,10.0298,10.0298,10.0298,10.0298,10.0298,10.0298,10.0298,10.0298,10.0298,10.0298,9.9534,8.5172,8.5173,8.4557,8.4105,8.4594,8.4933,8.4027,8.4413,8.5,8.5105,8.5316,8.5802,8.6736,8.7189,8.759,8.7961,8.8511,8.8979,8.917,8.9642,9.006,9.0409,9.0156,8.9705,8.9067,8.9703,9.0329,9.0669,9.1331,9.19,9.2292,9.2241,9.2468,9.305,9.3062,9.329,9.3732,9.4124,9.4313,9.4313,9.4654,9.4806,9.4806,9.4806,9.4806,9.4806,9.4806,9.4806,9.4806,9.4806,9.4806,9.4806,9.4806,9.4806,9.473,9.401,9.3732,9.3732,9.3732,9.401,9.4326,9.4465,9.4693,9.4946,9.507,9.5143,9.5167,9.5094,9.5215,9.5359,9.5191,9.5253,9.5515,9.6474,9.7286,9.8161,9.9167,9.9992,10.0604,10.0604,10.0604,10.0604,10.0604,10.0604,10.0604,10.0604,10.0604,10.0604,10.0604,10.0604,10.0604,10.0604,10.0604,10.0604,10.0604,10.0604,10.0604,10.0604,10.0604,10.0604,10.0604,10.0604,10.0604,10.0604,10.0604,10.0604,10.0604,10.0604,10.0604,10.0604,10.0604,10.0222,8.7538,8.7399,8.6642,8.6077,8.6341,8.659,8.5802,8.61,8.6551,8.6814,8.6851,8.7114,8.7978,8.8398,8.8777,8.9231,8.9697,9.009,9.0484,9.0667,9.0958,9.1447,9.1522,9.1033,8.9818,9.0508,9.1121,9.1348,9.2177,9.2746,9.2974,9.2974,9.329,9.3896,9.3934,9.4199,9.4806,9.4806,9.4806,9.4806,9.4806,9.4806,9.4806,9.4806,9.4806,9.4806,9.4806,9.4806,9.4844,9.5058,9.5172,9.5172,9.54,9.5362,9.5172,9.5172,9.5033,9.4806,9.4806,9.4806,9.4819,9.4908,9.4946,9.4958,9.5058,9.5131,9.5167,9.5082,9.5143,9.5215,9.5082,9.5094,9.5434,9.6682,9.7429,9.8201,9.9461,10.0183,10.0718,10.0909,10.0986,10.0986,10.1292,10.1292,10.1292,10.1292,10.1292,10.11,10.0718,10.0604,10.0604,10.0604,10.0604,10.0604,10.0604,10.0604,10.0604,10.0604,10.0604,10.0604,10.0604,10.0604,10.0604,10.0604,10.0604,10.0604,10.0604,10.0604,10.0604,10.0604,10.0604,10.0604,8.654,8.654,8.6527,8.6489,8.6489,8.6489,8.6476,8.6476,8.6739,8.7602,8.7752,8.8015,8.8804,8.9592,9.0156,9.0142,9.0883,9.1447,9.1447,9.1484,9.1484,9.1522,9.1522,9.1484,9.1447,9.1675,9.2229,9.3059,9.3401,9.3896,9.4692,9.473,9.473,9.4768,9.4768,9.4768,9.4806,9.4806,9.4806,9.4806,9.4806,9.4806,9.4806,9.4806,9.4806,9.4806,9.4806,9.4806,9.4882,9.5703,9.6069,9.6145,9.6902,9.6751,9.6069,9.6069,9.5513,9.4806,9.4806,9.4806,9.4806,9.4806,9.4806,9.4806,9.4806,9.4996,9.5191,9.5179,9.5312,9.5371,9.5215,9.5094,9.5463,9.7234,9.7677,9.8246,10.0087,10.0604,10.0783,10.17,10.1891,10.2094,10.3023,10.3099,10.3099,10.3099,10.3099,10.2514,10.0795,10.0604,10.0604,10.0604,10.0604,10.0604,10.0604,10.0604,10.0604,10.0604,10.0604,10.0604,10.0604,10.0604,10.0604,10.0604,10.0604,10.0604,10.0604,10.0604,10.0604,10.0604,10.0604,10.0604,8.7285,8.7377,8.7227,8.6626,8.6926,8.7377,8.7377,8.779,8.8241,8.8541,8.9029,8.9466,8.9743,9.0494,9.1057,9.1057,9.132,9.1709,9.2221,9.2296,9.2521,9.3099,9.3174,9.3174,9.3174,9.2918,9.2871,9.3172,9.3931,9.4503,9.4806,9.4806,9.4806,9.4806,9.4806,9.4806,9.4806,9.4806,9.4806,9.4806,9.54,9.593,9.6461,9.6461,9.6461,9.6461,9.6461,9.6461,9.6499,9.6789,9.6902,9.6902,9.7168,9.713,9.6902,9.6902,9.6726,9.6385,9.5854,9.6006,9.6461,9.6461,9.6461,9.6461,9.6461,9.6526,9.6591,9.6591,9.6755,9.6914,9.6866,9.6951,9.7374,9.8566,9.9226,9.9963,10.1192,10.1903,10.24,10.2705,10.2782,10.2896,10.3087,10.3214,10.3214,10.3214,10.3214,10.3023,10.24,10.1788,10.1521,10.1521,10.0898,10.0604,10.0604,10.0604,10.0604,10.0604,10.0604,10.0604,10.0604,10.0604,10.0604,10.0604,10.0604,10.0604,10.0604,10.0604,10.0604,10.0604,10.0604,10.0604,8.8148,8.8241,8.809,8.7527,8.7828,8.8241,8.8241,8.8616,8.9067,8.9367,8.9855,9.0292,9.0606,9.1357,9.192,9.192,9.2198,9.2573,9.3084,9.316,9.3385,9.3925,9.4044,9.4088,9.4088,9.3868,9.368,9.3625,9.4347,9.4806,9.4806,9.4806,9.4806,9.4806,9.4806,9.4806,9.4806,9.5096,9.54,9.5703,9.6271,9.6789,9.7281,9.7281,9.7281,9.7281,9.7281,9.7281,9.7319,9.7622,9.7736,9.7787,9.8077,9.8001,9.7736,9.7736,9.7736,9.766,9.6827,9.6865,9.7281,9.7281,9.7281,9.7295,9.7347,9.74,9.7438,9.7503,9.7641,9.7764,9.7764,9.7861,9.8184,9.9121,9.9922,10.0812,10.17,10.2591,10.329,10.3596,10.3584,10.3699,10.4004,10.4081,10.4081,10.4081,10.4081,10.389,10.329,10.2705,10.2411,10.2382,10.1897,10.1602,10.161,10.1614,10.1591,10.1591,10.1506,10.1483,10.1483,10.1483,10.1483,10.1483,10.1483,10.1483,10.1483,10.1483,10.1483,10.1483,10.1483,10.1483,8.9029,8.9067,8.9067,8.9067,8.9067,8.9067,8.9067,8.9067,8.9292,9.0118,9.0292,9.0569,9.1395,9.2221,9.2784,9.2784,9.346,9.4,9.4,9.4,9.4,9.4,9.4131,9.418,9.418,9.4483,9.4592,9.4493,9.4687,9.4844,9.4882,9.4882,9.4882,9.492,9.492,9.492,9.492,9.5741,9.6561,9.7357,9.7357,9.7395,9.7433,9.7433,9.7433,9.7433,9.7433,9.7433,9.7471,9.8318,9.8659,9.8735,9.9493,9.9341,9.8659,9.8659,9.8659,9.8545,9.7698,9.7433,9.7433,9.7433,9.7433,9.746,9.7565,9.7693,9.783,9.7951,9.7987,9.7999,9.7999,9.7927,9.8057,9.9055,9.993,10.0805,10.1803,10.2705,10.3596,10.431,10.4501,10.4692,10.5609,10.5711,10.5711,10.5711,10.5711,10.5112,10.3481,10.329,10.33,10.3389,10.3286,10.3408,10.3481,10.3392,10.3286,10.3286,10.3297,10.3188,10.3188,10.3188,10.3188,10.3176,10.3188,10.3188,10.3214,10.3214,10.3214,10.3214,10.3214,10.3214,8.9743,8.9893,8.9893,8.9893,8.9893,8.9893,8.9893,8.9893,9.0156,9.0982,9.1658,9.2146,9.2333,9.3084,9.3662,9.3662,9.385,9.4,9.4,9.4,9.4,9.4,9.4131,9.418,9.418,9.5011,9.5553,9.5512,9.5081,9.5058,9.5741,9.5779,9.6044,9.665,9.665,9.665,9.665,9.6865,9.7395,9.828,9.828,9.8583,9.9152,9.9152,9.9152,9.9152,9.9152,9.9152,9.919,9.9417,9.9493,9.9531,9.972,9.9683,9.9493,9.9493,9.9493,9.9455,9.9228,9.9152,9.9152,9.9152,9.9152,9.9152,9.9192,9.9298,9.9403,9.9325,9.9467,9.9618,9.9618,9.9668,9.9779,10.0178,10.1397,10.2605,10.282,10.4004,10.5112,10.5303,10.5418,10.5406,10.5686,10.5711,10.5711,10.5711,10.5711,10.5607,10.5295,10.4606,10.4308,10.4406,10.3793,10.3498,10.3492,10.3509,10.341,10.341,10.3388,10.3404,10.3404,10.3404,10.3408,10.3317,10.3397,10.3313,10.3214,10.3308,10.3182,10.3214,10.3214,10.3214,9.0531,9.0494,9.0292,9.0681,9.0494,9.0292,9.0681,9.0756,9.1019,9.1845,9.2409,9.2822,9.3197,9.3662,9.4,9.4,9.4,9.4,9.4,9.4,9.403,9.4088,9.4533,9.4834,9.4942,9.5904,9.6531,9.6531,9.6118,9.612,9.6599,9.6637,9.6827,9.7281,9.7281,9.7471,9.7863,9.7863,9.828,9.9152,9.9152,9.9379,9.9796,9.9796,9.9986,10.0403,10.0403,10.0592,10.0895,10.0895,10.0895,10.0895,10.0895,10.0895,10.0895,10.0895,10.0895,10.0895,10.1015,10.0991,10.0915,10.0118,9.993,9.9996,10.0011,10.0088,10.019,10.0203,10.0506,10.0885,10.0885,10.1289,10.1578,10.17,10.2782,10.3699,10.3699,10.4807,10.5788,10.6182,10.622,10.6297,10.6717,10.6794,10.6794,10.6794,10.6794,10.6792,10.7014,10.6184,10.5695,10.5908,10.581,10.5712,10.5409,10.529,10.5103,10.4681,10.4599,10.4604,10.4604,10.4604,10.451,10.4396,10.4492,10.4511,10.431,10.4306,10.4306,10.431,10.431,10.431,9.1296,9.1019,9.0681,9.132,9.1019,9.0719,9.147,9.1672,9.1883,9.2709,9.2859,9.3084,9.385,9.4,9.4,9.4,9.4,9.4,9.403,9.4105,9.4238,9.4382,9.5216,9.5883,9.6045,9.6898,9.7471,9.7471,9.7547,9.7585,9.7471,9.7471,9.7509,9.7622,9.7622,9.8015,9.8773,9.8773,9.919,9.9986,9.9986,9.9986,10.0099,10.0099,10.0516,10.1312,10.1312,10.1691,10.2298,10.2298,10.2298,10.2298,10.2298,10.2298,10.2298,10.2298,10.2312,10.2301,10.2514,10.2505,10.2304,10.0809,10.0506,10.0583,10.0695,10.0694,10.0807,10.0903,10.1397,10.1982,10.1982,10.2605,10.319,10.3202,10.3813,10.4386,10.4386,10.5189,10.6106,10.6908,10.7099,10.729,10.8093,10.8207,10.8207,10.8207,10.8207,10.8207,10.8394,10.7715,10.7288,10.7503,10.8191,10.8492,10.7895,10.7821,10.7411,10.6698,10.6485,10.6391,10.6483,10.6407,10.6311,10.6196,10.6092,10.5983,10.5915,10.5812,10.5698,10.5711,10.5711,10.5711,9.1447,9.1883,9.2146,9.162,9.1883,9.2333,9.2446,9.2484,9.2747,9.3587,9.3775,9.3813,9.3963,9.4,9.4,9.4,9.4,9.4044,9.4174,9.4753,9.5225,9.5329,9.6237,9.6863,9.689,9.7783,9.8394,9.8394,9.9,9.9076,9.8432,9.8394,9.8697,9.9341,9.9379,9.9455,9.9607,9.9607,9.9986,10.0895,10.0895,10.1199,10.1881,10.1881,10.1919,10.2108,10.2108,10.2184,10.2298,10.2298,10.2298,10.2298,10.2298,10.2298,10.2298,10.2298,10.2419,10.249,10.2503,10.2713,10.2804,10.2398,10.2296,10.2398,10.2423,10.25,10.2498,10.2411,10.2613,10.2815,10.2815,10.2891,10.3119,10.319,10.3813,10.4386,10.4386,10.5609,10.6908,10.7787,10.8016,10.8016,10.8207,10.8207,10.8207,10.8207,10.8207,10.822,10.8194,10.8313,10.8412,10.841,10.8695,10.8808,10.8713,10.8692,10.8919,10.931,10.8597,10.8491,10.9091,10.8401,10.7998,10.7983,10.7388,10.6908,10.6679,10.6101,10.5795,10.5711,10.5711,10.5711,9.2686,9.2747,9.2709,9.2799,9.2747,9.2822,9.3272,9.3385,9.3512,9.3925,9.4,9.4113,9.4564,9.4624,9.4737,9.5187,9.541,9.5526,9.5497,9.5956,9.6309,9.6364,9.7189,9.7801,9.7869,9.8695,9.9228,9.9228,9.9569,9.9645,9.9266,9.9228,9.9417,9.9796,10.0213,10.0516,10.0516,10.0895,10.1312,10.1691,10.1691,10.1919,10.2298,10.2298,10.2487,10.298,10.298,10.3207,10.3586,10.3586,10.3586,10.3586,10.3586,10.3586,10.36,10.3722,10.3715,10.3797,10.3982,10.4201,10.4303,10.4316,10.3706,10.2981,10.2981,10.3107,10.3105,10.3006,10.3412,10.3678,10.3678,10.411,10.439,10.4489,10.4807,10.5189,10.5609,10.6297,10.729,10.8589,10.8806,10.901,10.9392,10.9506,10.9506,10.9506,10.9506,10.9494,10.9594,10.9778,10.9689,10.9286,10.9914,11.0098,10.9598,10.9598,10.9507,10.931,10.8915,10.8783,10.9091,10.8707,10.8496,10.8392,10.8502,10.839,10.8319,10.838,10.8492,10.8504,10.8504,10.8495,9.3587,9.3347,9.3084,9.3625,9.3347,9.316,9.385,9.4,9.4,9.4,9.4151,9.4451,9.5119,9.5397,9.5735,9.6404,9.6737,9.688,9.6818,9.713,9.7371,9.7423,9.8193,9.8726,9.8835,9.9417,9.9796,9.9796,9.9986,9.9986,9.9796,9.9986,10.0099,10.0099,10.0895,10.1388,10.1388,10.1995,10.2411,10.2601,10.2601,10.2715,10.279,10.279,10.3207,10.3904,10.3904,10.4193,10.4799,10.4799,10.4799,10.4799,10.4799,10.4799,10.479,10.502,10.4999,10.5105,10.5395,10.5498,10.5587,10.5687,10.4807,10.3699,10.3699,10.3699,10.3699,10.3699,10.4195,10.4692,10.4692,10.5189,10.5711,10.5711,10.5711,10.5991,10.6985,10.7176,10.7711,10.9392,10.9697,10.9889,11.0576,11.0691,11.0691,11.0691,11.0678,11.0818,11.0906,11.0987,11.0901,11.0211,11.0891,11.1203,11.0483,11.0483,11.0199,10.9617,10.9376,10.9293,10.9282,10.9094,10.8997,10.8889,10.9286,10.9592,10.9592,11.009,11.0419,11.0489,11.0707,11.0697,9.3053,9.3347,9.37,9.3009,9.3347,9.3888,9.4,9.4,9.4,9.4,9.4601,9.5157,9.5355,9.601,9.6618,9.68,9.6894,9.6951,9.7062,9.7746,9.8307,9.8429,9.9163,9.9669,9.9683,9.9758,9.9796,9.9796,10.0516,10.0592,9.9834,10.0592,10.1009,10.1009,10.1805,10.2184,10.2184,10.2298,10.2715,10.3487,10.3487,10.3904,10.4586,10.4586,10.461,10.47,10.47,10.4686,10.4799,10.4799,10.4799,10.4799,10.4799,10.4799,10.479,10.502,10.5105,10.5201,10.5396,10.56,10.5699,10.5711,10.5609,10.5495,10.5495,10.5495,10.5495,10.5495,10.5482,10.5609,10.5609,10.5597,10.5711,10.5711,10.5711,10.6094,10.7711,10.8093,10.8589,11.0309,11.0576,11.0614,11.0691,11.0691,11.0691,11.0691,11.0793,11.0906,11.088,11.1108,11.1296,11.1181,11.1407,11.1522,11.1406,11.1406,11.1621,11.2114,11.1499,11.1289,11.1878,11.1118,11.0713,11.0701,10.9811,10.9404,10.9404,10.8793,10.85,10.8512,10.92,10.9494,9.3602,9.3737,9.3925,9.3587,9.3737,9.4,9.4,9.4073,9.4131,9.4131,9.4805,9.5607,9.6191,9.6997,9.7728,9.8328,9.8522,9.8634,9.8592,9.9046,9.9344,9.9341,9.9607,9.9796,9.9796,9.9796,9.9986,10.0516,10.1388,10.1691,10.1312,10.1616,10.1805,10.1805,10.2601,10.3094,10.3094,10.36,10.4003,10.4307,10.4307,10.451,10.4799,10.4799,10.4799,10.4799,10.4799,10.4799,10.4799,10.4799,10.4799,10.4799,10.4799,10.478,10.4916,10.5105,10.5201,10.5383,10.56,10.5713,10.5711,10.5711,10.5711,10.5711,10.5711,10.5711,10.5711,10.5711,10.5711,10.5711,10.5711,10.5711,10.5711,10.5711,10.5711,10.622,10.7787,10.8207,10.8704,11.0398,11.0691,11.0691,11.0691,11.0806,11.0805,11.0805,11.0878,11.0999,11.1108,11.1212,11.1302,11.1407,11.1489,11.1511,11.1511,11.1511,11.1583,11.1818,11.1499,11.1404,11.1583,11.1179,11.1001,11.1001,11.1106,11.1195,11.1279,11.1509,11.1586,11.1598,11.2014,11.212,9.4073,9.4102,9.4131,9.4131,9.4131,9.4117,9.4073,9.4146,9.4241,9.4461,9.5253,9.6196,9.7106,9.7942,9.8754,9.9401,9.9659,9.9869,9.9986,10.0202,10.041,10.0492,10.0289,10.0213,10.0213,10.0213,10.0516,10.1388,10.2184,10.2715,10.2715,10.2904,10.2904,10.2715,10.3511,10.4017,10.4017,10.4496,10.4799,10.4799,10.4799,10.4799,10.4799,10.4799,10.4799,10.4799,10.4799,10.4799,10.4799,10.5117,10.5193,10.5193,10.5501,10.5699,10.5811,10.6001,10.6094,10.6312,10.64,10.6399,10.6399,10.6399,10.6399,10.6399,10.6399,10.6106,10.5711,10.5711,10.5711,10.5711,10.5711,10.5711,10.5711,10.5711,10.5711,10.622,10.7787,10.8207,10.8805,11.0411,11.0793,11.0818,11.0818,11.1122,11.1286,11.1286,11.1598,11.1895,11.1987,11.2109,11.2088,11.2203,11.2203,11.2011,11.1511,11.1511,11.1489,11.1402,11.1402,11.128,11.1189,11.1193,11.1182,11.1182,11.171,11.2002,11.2107,11.2709,11.3016,11.2978,11.33,11.3512,9.4222,9.4293,9.4404,9.4404,9.4404,9.4362,9.4222,9.418,9.44,9.5029,9.5997,9.6986,9.7922,9.8895,9.9617,9.9769,9.9796,10.0099,10.1009,10.1085,10.1388,10.2184,10.1616,10.1085,10.1085,10.1085,10.1388,10.2184,10.3094,10.36,10.36,10.4307,10.4382,10.36,10.4397,10.4799,10.4799,10.4799,10.4799,10.4799,10.4799,10.4799,10.4799,10.4799,10.4799,10.4799,10.4799,10.4799,10.4889,10.5685,10.6102,10.6193,10.7094,10.7492,10.7496,10.7783,10.8016,10.799,10.8081,10.8207,10.8207,10.8207,10.8207,10.8207,10.8207,10.6985,10.5711,10.5711,10.5711,10.5711,10.5711,10.5711,10.5711,10.5711,10.5711,10.622,10.7787,10.8319,10.8902,11.0624,11.0989,11.1123,11.1123,11.1813,11.2312,11.2312,11.3108,11.3804,11.3804,11.3906,11.3984,11.3984,11.3984,11.3291,11.1588,11.1511,11.1511,11.1511,11.1511,11.1511,11.1511,11.1413,11.1307,11.1307,11.1193,11.1085,11.1085,11.1085,11.1085,11.1085,11.1878,11.2798,9.4293,9.4362,9.4376,9.4279,9.425,9.4222,9.4102,9.4108,9.442,9.5305,9.6276,9.7285,9.8269,9.9157,9.97,9.9683,9.9728,10.0096,10.0795,10.1112,10.15,10.2297,10.2183,10.1801,10.1212,10.2108,10.2904,10.3221,10.4017,10.4382,10.4382,10.47,10.47,10.4382,10.47,10.4799,10.4799,10.4799,10.4799,10.4799,10.4799,10.4799,10.4799,10.542,10.5685,10.5723,10.6315,10.6505,10.6505,10.6808,10.698,10.7094,10.7402,10.7618,10.7884,10.8014,10.8106,10.8106,10.8195,10.8207,10.8207,10.8207,10.8207,10.8207,10.8207,10.7787,10.7405,10.7405,10.7405,10.7405,10.7405,10.7405,10.7405,10.7405,10.7405,10.7888,10.9708,11.0114,11.0584,11.2393,11.2798,11.2784,11.2784,11.3112,11.3285,11.3285,11.3696,11.389,11.389,11.4,11.3984,11.3984,11.3984,11.3791,11.3291,11.3214,11.3214,11.3214,11.3214,11.3214,11.3214,11.322,11.3082,11.3082,11.25,11.222,11.222,11.1594,11.1413,11.1402,11.1515,11.1795,9.4255,9.4445,9.4445,9.4307,9.4265,9.4236,9.4151,9.4472,9.4971,9.5899,9.6907,9.7863,9.8816,9.9414,9.9769,9.9711,9.9766,10.0199,10.1295,10.1611,10.2099,10.2896,10.301,10.269,10.2084,10.2994,10.37,10.4003,10.4496,10.4799,10.4799,10.4799,10.4799,10.4799,10.4799,10.4799,10.4799,10.4799,10.4799,10.4799,10.5103,10.5306,10.5306,10.6202,10.6581,10.6581,10.7111,10.7286,0.0,10.77,10.7901,10.8,10.8492,10.8809,10.8893,10.8983,10.9099,10.9086,10.9086,10.9086,10.9086,10.9086,10.9086,10.9086,10.9086,10.8704,10.8207,10.8207,10.8207,10.8207,10.8207,10.8207,10.8182,10.832,10.8282,10.879,11.0608,11.1013,11.161,11.3292,11.3696,11.3808,11.3808,11.4096,11.441,11.441,11.4708,11.4907,11.4907,11.4907,11.4907,11.4907,11.4907,11.4907,11.4907,11.4407,11.3984,11.3984,11.3984,11.3984,11.3984,11.3984,11.3984,11.3984,11.3483,11.3214,11.3214,11.2714,11.2291,11.2022,11.1907,11.1676,0.0,9.4486,9.4567,9.4431,9.4404,9.4418,9.4479,9.5045,0.0,9.6833,9.7738,9.8644,9.9476,9.9738,9.9796,9.9783,9.9783,10.0406,10.221,10.2606,10.291,10.358,10.3821,10.3715,10.3615,10.3714,10.4003,10.4686,10.4799,10.4799,10.4799,10.4799,10.4799,10.4799,10.4799,10.4799,10.4799,10.4889,10.4889,10.4889,10.5799,10.6216,10.6216,10.6998,10.74,10.74,10.7476,10.7476,10.7604,10.8499,10.8912,10.8978,11.0107,11.0481,11.0508,11.069,11.0691,11.0691,11.0691,11.0691,11.0691,11.0691,11.0691,11.0691,11.0691,10.9583,10.8398,10.8398,10.8398,10.8398,10.8398,10.8411,10.841,10.8495,10.8607,10.9115,11.0816,11.1316,11.1895,11.3585,11.3983,11.4099,11.4214,11.4791,11.5418,11.5418,11.5995,11.6495,11.6495,11.6495,11.6495,11.6495,11.6495,11.6495,11.6495,11.5099,11.4214,11.4214,11.4214,11.4214,11.4214,11.4214,11.4214,11.4214,11.4099,11.4099,11.3984,11.3984,11.3599,11.2791,11.2791,11.2406,9.3925,0.0,9.4445,9.4404,9.4486,9.4692,0.0,9.546,9.6068,9.7691,9.8238,9.8671,9.9601,9.9769,9.9755,9.9683,9.9714,10.0416,10.2112,10.3113,10.3397,10.291,10.339,10.3715,10.3615,10.4207,10.461,10.4799,10.4799,10.4799,10.4799,10.4799,10.4799,10.4799,10.4799,10.4799,10.4799,10.5496,10.5799,10.5799,10.6619,10.6983,10.6983,10.7907,10.8324,10.8309,10.8878,10.9181,10.9196,10.96,10.9805,10.9993,11.0414,11.0586,11.069,11.0691,11.0691,11.0691,11.0691,11.0691,11.0691,11.0691,11.0691,11.0691,11.0691,11.0385,11.008,11.008,11.008,11.008,11.008,11.0194,11.0319,11.0306,11.0391,11.0816,11.1903,11.2179,11.2801,11.4582,11.5011,11.5215,11.5792,11.611,11.6187,11.6187,11.6418,11.6495,11.6495,11.6495,11.6495,11.6495,11.6495,11.6495,11.6495,11.6099,11.5907,11.5907,11.5907,11.5907,11.5907,11.5907,11.5907,11.5907,11.5291,11.4714,11.3984,11.3984,11.3907,11.3714,11.3714,11.3599,9.3687,9.4027,9.4307,9.4307,9.4418,9.4702,9.5571,9.6024,9.6708,9.8169,9.8778,9.9208,9.9707,9.9796,9.9769,9.9687,10.0099,10.1094,10.2793,10.3678,10.4009,10.3683,10.3694,10.3905,10.4093,10.4496,10.4799,10.4799,10.4799,10.4799,10.4799,10.4799,10.4799,10.4799,10.5193,10.542,10.542,10.5913,10.6292,10.6694,10.749,10.7893,10.7893,10.8817,10.9196,10.9196,10.9613,10.9794,10.9883,11.0118,11.0184,11.0412,11.0483,11.0588,11.0691,11.0691,11.0691,11.0691,11.0691,11.0691,11.0691,11.0691,11.0691,11.0691,11.0691,11.0691,11.0691,11.0691,11.0704,11.078,11.078,11.088,11.0989,11.1088,11.1081,11.1393,11.2401,11.2588,11.3099,11.4896,11.5291,11.561,11.6418,11.6495,11.6495,11.6495,11.6495,11.6495,11.6495,11.6495,11.6495,11.6495,11.6495,11.6495,11.6495,11.6495,11.6495,11.6495,11.6495,11.6495,11.6495,11.6495,11.6495,11.6495,11.611,11.5599,11.5099,11.5099,11.4984,11.4599,11.4599,11.4407,9.3572,9.4023,9.4344,9.4274,9.4362,9.4726,9.5869,9.6653,9.745,9.8556,9.9341,9.9796,9.9796,9.9796,9.9783,9.9769,10.0611,10.1808,10.3182,10.3706,10.4112,10.4492,10.4084,10.3991,10.47,10.4799,10.4799,10.4799,10.4799,10.4799,10.4799,10.4799,10.4889,10.5003,10.5685,10.6216,10.6519,10.6519,10.6808,10.7514,10.84,10.8817,10.8817,10.9514,10.9794,10.9794,10.99,10.9912,11.008,11.0312,11.0412,11.0495,11.0601,11.0691,11.0691,11.0691,11.0691,11.0691,11.0691,11.0691,11.0691,11.0691,11.0704,11.0691,11.0691,11.0704,11.0793,11.0793,11.0818,11.0892,11.0904,11.1013,11.1182,11.1285,11.1291,11.1517,11.2297,11.2511,11.3022,11.4791,11.5099,11.5407,11.6303,11.6495,11.6495,11.6495,11.6495,11.6495,11.6495,11.6495,11.6495,11.6495,11.6495,11.6495,11.6495,11.6495,11.6495,11.6495,11.6495,11.6495,11.6495,11.6495,11.6495,11.6495,11.6495,11.6495,11.6495,11.6495,11.6099,11.5495,11.5495,11.5099,9.3587,9.4399,9.5042,9.4637,9.4623,9.5158,9.6724,9.7179,9.7723,9.929,9.972,9.9796,9.9796,9.9796,9.9755,9.9655,10.0485,10.1012,10.0508,10.1806,10.2706,10.2694,10.3287,10.388,10.47,10.4799,10.4799,10.4799,10.4799,10.4799,10.4799,10.4799,10.5103,10.5913,10.5989,10.6823,10.821,10.821,10.8286,10.8385,10.9181,10.9613,10.9613,10.9897,11.0008,11.0008,11.0099,11.0194,11.0312,11.0387,11.0506,11.0495,11.0601,11.0691,11.0691,11.0691,11.0691,11.0691,11.0691,11.0691,11.0691,11.0691,11.0806,11.0893,11.0893,11.0903,11.0987,11.0987,11.1004,11.0904,11.0987,11.1193,11.1285,11.1307,11.1385,11.1489,11.1703,11.1703,11.2214,11.3907,11.4214,11.4714,11.6176,11.6495,11.6495,11.6495,11.6495,11.6495,11.6495,11.6495,11.6495,11.6495,11.6495,11.6495,11.6495,11.6495,11.6495,11.6495,11.6495,11.6495,11.6495,11.6495,11.6495,11.6495,11.6495,11.6495,11.6495,11.6495,11.6418,11.6303,11.6303,11.6176,9.3702,9.4305,9.4791,9.4737,9.5553,9.6692,9.7946,9.8212,9.8528,9.9665,9.9917,9.989,9.981,9.9455,9.9303,9.9734,10.0598,10.1207,10.1283,10.1982,10.2614,10.3008,10.3411,10.389,10.4686,10.4799,10.4799,10.4799,10.4799,10.4799,10.4799,10.5178,10.5685,10.6102,10.6998,10.7794,10.8589,10.8992,10.9181,10.931,10.9598,10.9809,10.9897,11.0008,11.008,11.0203,11.0312,11.0305,11.0387,11.0493,11.0483,11.06,11.0716,11.0691,11.0691,11.0691,11.0704,11.0805,11.0805,11.0893,11.0904,11.0904,11.0991,11.0989,11.0989,11.1114,11.1096,11.1205,11.1182,11.1108,11.1216,11.1319,11.1407,11.1407,11.1517,11.1511,11.1511,11.1511,11.2022,11.3714,11.3984,11.4484,11.6187,11.6495,11.6495,11.6495,11.6495,11.6495,11.6495,11.6495,11.6495,11.6495,11.6495,11.6495,11.6495,11.6495,11.6495,11.6495,11.6495,11.6495,11.6495,11.6495,11.6495,11.6495,11.6495,11.6495,11.6495,11.6495,11.6495,11.6495,11.6495,11.6495,9.4062,9.4585,9.5094,9.5387,9.6211,9.7199,9.8073,9.839,9.8705,9.9397,9.9917,10.0183,9.9807,9.9249,9.9138,10.0082,10.0614,10.1094,10.1817,10.2197,10.2701,10.3183,10.3586,10.4079,10.4686,10.4799,10.4776,10.4818,10.4818,10.4908,10.5216,10.5785,10.6392,10.6786,10.7986,10.8806,10.8996,10.9603,10.9915,10.9802,10.9802,10.99,10.9994,10.9985,11.0085,11.0301,11.0291,11.0387,11.0496,11.0496,11.06,11.0691,11.0691,11.0691,11.0704,11.0691,11.0805,11.0892,11.0878,11.1001,11.1085,11.1085,11.1108,11.1093,11.1093,11.1182,11.1189,11.1291,11.1314,11.1314,11.1314,11.1418,11.1511,11.1511,11.1511,11.1511,11.1511,11.1511,11.1895,11.3407,11.3907,11.4484,11.5995,11.6418,11.6495,11.6495,11.6495,11.6495,11.6495,11.6495,11.6495,11.6495,11.6495,11.6495,11.6495,11.6495,11.6495,11.6495,11.6495,11.6495,11.6495,11.6495,11.6495,11.6495,11.6495,11.6495,11.6495,11.6495,11.6495,11.6495,11.6495,11.6495,9.4737,9.5927,9.6972,9.7236,9.6057,9.5039,9.5923,9.6608,9.729,9.8069,9.9731,10.0716,9.9806,9.9589,9.9858,10.0895,10.0306,9.9797,9.9972,10.1288,10.2312,10.2411,10.379,10.4686,10.4799,10.4799,10.4908,10.4996,10.501,10.5406,10.6303,10.6379,10.7191,10.8689,10.8918,10.9398,11.0184,11.0184,11.008,10.9802,10.9802,10.9802,10.9817,10.9889,11.0085,11.0301,11.0401,11.0586,11.0678,11.0678,11.0691,11.0691,11.0691,11.0691,11.0717,11.0792,11.0918,11.0904,11.0987,11.1111,11.1085,11.1085,11.1205,11.1296,11.1296,11.1413,11.1489,11.15,11.15,11.15,11.15,11.1511,11.1511,11.1511,11.1511,11.1511,11.1511,11.1511,11.1791,11.2588,11.3407,11.4291,11.5215,11.5995,11.6495,11.6495,11.6495,11.6495,11.6495,11.6495,11.6495,11.6495,11.6495,11.6495,11.6495,11.6495,11.6495,11.6495,11.6495,11.6495,11.6495,11.6495,11.6495,11.6495,11.6495,11.6495,11.6495,11.6495,11.6495,11.6495,11.6495,11.6495,9.4219,9.5451,9.6488,9.5932,9.5575,9.562,9.6677,9.7393,9.7939,9.8182,9.9318,10.0199,9.979,10.0199,10.0595,10.0289,9.9969,9.9755,9.9904,10.1411,10.2514,10.2519,10.4014,10.5002,10.5002,10.4996,10.501,10.5108,10.5002,10.5396,10.6406,10.699,10.7789,10.8983,10.9502,10.9997,11.0288,11.0288,11.0194,11.008,11.008,11.0213,11.0198,11.0291,11.0401,11.0611,11.0587,11.069,11.0691,11.0691,11.0691,11.0691,11.0691,11.0691,11.0717,11.0919,11.1018,11.0987,11.1193,11.1285,11.1302,11.1302,11.1413,11.1418,11.1418,11.1489,11.1511,11.1511,11.1511,11.1511,11.1511,11.1511,11.1511,11.1511,11.1511,11.1511,11.1511,11.1511,11.1703,11.2511,11.3407,11.4291,11.5099,11.5995,11.6495,11.6495,11.6495,11.6495,11.6495,11.6495,11.6495,11.6495,11.6495,11.6495,11.6495,11.6495,11.6495,11.6495,11.6495,11.6495,11.6495,11.6495,11.6495,11.6495,11.6495,11.6495,11.6495,11.6495,11.6495,11.6495,11.6495,11.6495,9.4342,9.5334,9.6135,9.5755,9.5687,9.6034,9.7107,9.7618,9.7842,9.7786,9.8805,9.9852,10.0481,10.0698,10.0622,10.0303,9.9988,9.9904,9.9996,10.1493,10.2585,10.2714,10.4212,10.5201,10.5201,10.5108,10.5108,10.5292,10.5403,10.5987,10.6996,10.7809,10.8686,10.9499,11.0096,11.0401,11.0401,11.0401,11.0401,11.0401,11.0401,11.0401,11.0414,11.0414,11.0495,11.0588,11.0588,11.069,11.0691,11.0691,11.0691,11.0691,11.0691,11.0678,11.0818,11.0904,11.0987,11.1205,11.128,11.1418,11.1511,11.1511,11.1511,11.1511,11.1511,11.1511,11.1511,11.1511,11.1511,11.1511,11.1511,11.1511,11.1511,11.1511,11.1511,11.1511,11.1511,11.1511,11.1703,11.2203,11.3022,11.3907,11.4714,11.561,11.6187,11.6495,11.6495,11.6495,11.6495,11.6495,11.6495,11.6495,11.6495,11.6495,11.6495,11.6495,11.6495,11.6495,11.6495,11.6495,11.6495,11.6495,11.6495,11.6495,11.6495,11.6495,11.6495,11.6495,11.6495,11.6495,11.6495,11.6495,9.5277,9.5831,9.6335,9.7236,9.6544,9.5842,9.6863,9.6728,9.6456,9.6672,9.8151,9.9996,10.2094,10.0906,9.992,10.0906,10.0486,10.001,10.001,10.1584,10.2689,10.2702,10.4212,10.5201,10.5201,10.5201,10.5292,10.5511,10.6299,10.7113,10.8207,10.901,10.9812,11.0691,11.0691,11.0691,11.0691,11.0691,11.0691,11.0691,11.0691,11.0586,11.0301,11.0301,11.0384,11.0481,11.0481,11.0599,11.0691,11.0691,11.0691,11.0691,11.0704,11.0818,11.0904,11.1114,11.1205,11.1291,11.1517,11.1511,11.1511,11.1511,11.1511,11.1511,11.1511,11.1511,11.1511,11.1511,11.1511,11.1511,11.1511,11.1511,11.1511,11.1511,11.1511,11.1511,11.1511,11.1511,11.1511,11.1511,11.2088,11.2983,11.3791,11.4714,11.561,11.6418,11.6495,11.6495,11.6495,11.6495,11.6495,11.6495,11.6495,11.6495,11.6495,11.6495,11.6495,11.6495,11.6495,11.6495,11.6495,11.6495,11.6495,11.6495,11.6495,11.6495,11.6495,11.6495,11.6495,11.6495,11.6495,11.6495,9.4585,9.5415,9.5993,9.5562,9.5607,9.565,9.5279,9.5813,9.6637,9.7519,9.8749,9.9866,10.0481,10.0218,10.0091,10.0985,10.0486,10.0011,10.0101,10.1687,10.2905,10.3004,10.4493,10.56,10.56,10.5511,10.5714,10.6375,10.6617,10.7381,10.8997,10.9303,10.9812,11.0691,11.0691,11.0691,11.0691,11.0691,11.0691,11.0691,11.0691,11.069,11.0612,11.0612,11.06,11.0588,11.0588,11.0703,11.0691,11.0691,11.0691,11.0704,11.0793,11.0893,11.0917,11.122,11.1285,11.1291,11.1517,11.1511,11.1511,11.1511,11.1511,11.1511,11.1511,11.1511,11.1511,11.1511,11.1511,11.1511,11.1511,11.1511,11.1511,11.1511,11.1511,11.1511,11.1511,11.1511,11.1511,11.1511,11.2088,11.2983,11.3791,11.4714,11.561,11.6418,11.6495,11.6495,11.6495,11.6495,11.6495,11.6495,11.6495,11.6495,11.6495,11.6495,11.6495,11.6495,11.6495,11.6495,11.6495,11.6495,11.6495,11.6495,11.6495,11.6495,11.6495,11.6495,11.6495,11.6495,11.6495,11.6495,9.3975,9.4735,9.5346,9.4827,9.5002,9.5237,9.4936,9.5551,9.6487,9.7517,9.853,9.9249,9.929,9.9636,10.0107,10.0611,10.0391,10.0203,10.029,10.1901,10.3079,10.3202,10.4692,10.5711,10.5711,10.5611,10.5904,10.6794,10.7101,10.789,10.9303,10.9685,11.0194,11.0691,11.0691,11.0691,11.0691,11.0691,11.0691,11.0691,11.0691,11.0691,11.0691,11.0691,11.0691,11.0691,11.0691,11.0691,11.0691,11.0691,11.0691,11.0704,11.078,11.0918,11.0989,11.1182,11.1296,11.1385,11.1489,11.1511,11.1511,11.1511,11.1511,11.1511,11.1511,11.1511,11.1511,11.1511,11.1511,11.1511,11.1511,11.1511,11.1511,11.1511,11.1511,11.1511,11.1511,11.1511,11.1511,11.1511,11.1895,11.2522,11.3291,11.3907,11.4714,11.5792,11.6303,11.6495,11.6495,11.6495,11.6495,11.6495,11.6495,11.6495,11.6495,11.6495,11.6495,11.6495,11.6495,11.6495,11.6495,11.6495,11.6495,11.6495,11.6495,11.6495,11.6495,11.6495,11.6495,11.6495,11.6495,11.6495,9.3556,9.3978,9.4521,9.4741,9.4676,9.477,9.5379,9.5688,9.6034,9.6815,9.7712,9.8372,9.847,9.9179,9.9801,9.9972,10.0202,10.0401,10.0477,10.2099,10.3202,10.3278,10.4692,10.5711,10.5711,10.5711,10.6106,10.6985,10.7787,10.8589,10.9494,11.0309,11.0691,11.0691,11.0691,11.0691,11.0691,11.0691,11.0691,11.0691,11.0691,11.0691,11.0691,11.0691,11.0691,11.0691,11.0691,11.0691,11.0691,11.0691,11.0691,11.0704,11.0704,11.0906,11.1111,11.1096,11.1323,11.15,11.1511,11.1511,11.1511,11.1511,11.1511,11.1511,11.1511,11.1511,11.1511,11.1511,11.1511,11.1511,11.1511,11.1511,11.1511,11.1511,11.1511,11.1511,11.1511,11.1511,11.1511,11.1511,11.1511,11.1791,11.2599,11.2714,11.3291,11.4984,11.5995,11.6495,11.6495,11.6495,11.6495,11.6495,11.6495,11.6495,11.6495,11.6495,11.6495,11.6495,11.6495,11.6495,11.6495,11.6495,11.6495,11.6495,11.6495,11.6495,11.6495,11.6495,11.6495,11.6495,11.6495,11.6495,9.4258,9.3991,9.3669,9.4445,9.4634,9.4672,9.4916,9.4993,9.5259,9.601,9.7003,9.7691,9.7717,9.8542,9.9391,10.0012,10.0303,10.0592,10.129,10.2404,10.3393,10.4081,10.5112,10.5711,10.5711,10.5711,10.6297,10.7787,10.8093,10.8819,11.0309,11.0576,11.0691,11.0691,11.0691,11.0691,11.0691,11.0691,11.0691,11.0691,11.0691,11.0691,11.0691,11.0691,11.0691,11.0691,11.0691,11.0691,11.0691,11.0691,11.0691,11.0704,11.0805,11.0918,11.0991,11.1205,11.1307,11.1402,11.1489,11.1511,11.1511,11.1511,11.1511,11.1511,11.1511,11.1511,11.1511,11.1511,11.1511,11.1511,11.1511,11.1511,11.1511,11.1511,11.1511,11.1511,11.1511,11.1511,11.1511,11.1511,11.1511,11.1791,11.2599,11.2714,11.3291,11.4984,11.5995,11.6495,11.6495,11.6495,11.6495,11.6495,11.6495,11.6495,11.6495,11.6495,11.6495,11.6495,11.6495,11.6495,11.6495,11.6495,11.6495,11.6495,11.6495,11.6495,11.6495,11.6495,11.6495,11.6495,11.6495,11.6495,9.4118,9.4294,9.453,9.4728,9.478,9.4819,9.4958,9.4996,9.5085,9.5502,9.6616,9.7528,9.7591,9.8731,9.982,10.0201,10.0413,10.07,10.112,10.2287,10.3405,10.3813,10.4921,10.5711,10.5711,10.5991,10.6794,10.8093,10.8589,10.9315,11.0614,11.0691,11.0691,11.0691,11.0691,11.0691,11.0691,11.0691,11.0691,11.0691,11.0691,11.0691,11.0691,11.0691,11.0691,11.0691,11.0691,11.0691,11.0691,11.0691,11.0691,11.0704,11.0806,11.0792,11.0904,11.1108,11.1185,11.1291,11.1517,11.1511,11.1511,11.1511,11.1511,11.1511,11.1511,11.1511,11.1511,11.1511,11.1511,11.1511,11.1511,11.1511,11.1511,11.1511,11.1511,11.1511,11.1511,11.1511,11.1511,11.1511,11.1511,11.1588,11.2099,11.2395,11.3214,11.4484,11.5407,11.611,11.6495,11.6495,11.6495,11.6495,11.6495,11.6495,11.6495,11.6495,11.6495,11.6495,11.6495,11.6495,11.6495,11.6495,11.6495,11.6495,11.6495,11.6495,11.6495,11.6495,11.6495,11.6495,11.6495,11.6495,9.4076,9.4735,9.5558,9.5123,9.511,9.5249,9.5359,9.551,9.5648,9.5672,9.6703,9.7604,9.7715,9.9209,10.0399,10.0399,10.0495,10.0718,10.0986,10.2285,10.3278,10.3584,10.4883,10.5711,10.5711,10.6412,10.729,10.8093,10.8882,10.9812,11.0704,11.0691,11.0691,11.0691,11.0691,11.0691,11.0691,11.0691,11.0691,11.0691,11.0691,11.0691,11.0691,11.0691,11.0691,11.0691,11.0691,11.0691,11.0691,11.0691,11.0691,11.0691,11.0691,11.0806,11.0906,11.1001,11.1208,11.1296,11.1407,11.15,11.1511,11.1511,11.1511,11.1511,11.1511,11.1511,11.1511,11.1511,11.1511,11.1511,11.1511,11.1511,11.1511,11.1511,11.1511,11.1511,11.1511,11.1511,11.1511,11.1511,11.1511,11.1511,11.1511,11.2214,11.3022,11.3907,11.4714,11.561,11.6418,11.6495,11.6495,11.6495,11.6495,11.6495,11.6495,11.6495,11.6495,11.6495,11.6495,11.6495,11.6495,11.6495,11.6495,11.6495,11.6495,11.6495,11.6495,11.6495,11.6495,11.6495,11.6495,11.6495,9.5415,9.5188,9.4801,9.4971,9.5566,9.6148,9.616,9.6792,9.7397,9.7506,9.7708,9.7849,9.7873,9.9341,10.0619,10.0619,10.0592,10.11,10.2591,10.3099,10.3699,10.5189,10.5609,10.5711,10.5711,10.6412,10.729,10.8093,10.8882,10.9812,11.0704,11.0691,11.0691,11.0691,11.0691,11.0691,11.0691,11.0691,11.0691,11.0691,11.0691,11.0691,11.0691,11.0691,11.0691,11.0691,11.0691,11.0691,11.0691,11.0691,11.0691,11.0691,11.0691,11.0704,11.0691,11.0906,11.1001,11.1093,11.1296,11.1396,11.1511,11.1511,11.1511,11.1511,11.1511,11.1511,11.1511,11.1511,11.1511,11.1511,11.1511,11.1511,11.1511,11.1511,11.1511,11.1511,11.1511,11.1511,11.1511,11.1511,11.1511,11.1511,11.1511,11.2214,11.3022,11.3907,11.4714,11.561,11.6418,11.6495,11.6495,11.6495,11.6495,11.6495,11.6495,11.6495,11.6495,11.6495,11.6495,11.6495,11.6495,11.6495,11.6495,11.6495,11.6495,11.6495,11.6495,11.6495,11.6495,11.6495,11.6495,11.6495,9.612,9.5449,9.4793,9.5131,9.5862,9.6534,9.6605,9.7312,9.7932,9.799,9.8383,9.8727,9.8727,9.9767,10.0604,10.0604,10.0986,10.1597,10.24,10.3317,10.4119,10.4921,10.5418,10.5711,10.5711,10.6908,10.7787,10.8207,10.9392,11.0309,11.0691,11.0691,11.0691,11.0691,11.0691,11.0691,11.0691,11.0691,11.0691,11.0691,11.0691,11.0691,11.0691,11.0691,11.0691,11.0691,11.0691,11.0691,11.0691,11.0691,11.0691,11.0691,11.0691,11.0691,11.0678,11.089,11.0999,11.1108,11.1302,11.1517,11.1511,11.1511,11.1511,11.1511,11.1511,11.1511,11.1511,11.1511,11.1511,11.1511,11.1511,11.1511,11.1511,11.1511,11.1511,11.1511,11.1511,11.1511,11.1511,11.1511,11.1511,11.1511,11.1511,11.178,11.2522,11.3791,11.4291,11.4984,11.6303,11.6495,11.6495,11.6495,11.6495,11.6495,11.6495,11.6495,11.6495,11.6495,11.6495,11.6495,11.6495,11.6495,11.6495,11.6495,11.6495,11.6495,11.6495,11.6495,11.6495,11.6495,11.6495,11.6495,9.6464,9.5869,9.5502,9.5922,9.6653,9.7324,9.7513,9.8158,9.872,9.872,9.9266,9.9687,9.9687,10.0183,10.0718,10.0909,10.1521,10.2006,10.2502,10.3622,10.4501,10.4692,10.5303,10.5711,10.5711,10.7214,10.8207,10.8207,10.9812,11.0691,11.0691,11.0691,11.0691,11.0691,11.0691,11.0691,11.0691,11.0691,11.0691,11.0691,11.0691,11.0691,11.0691,11.0691,11.0691,11.0691,11.0691,11.0691,11.0691,11.0691,11.0691,11.0691,11.0691,11.0691,11.0678,11.0917,11.0987,11.1108,11.1291,11.1391,11.1511,11.1511,11.1511,11.1511,11.1511,11.1511,11.1511,11.1511,11.1511,11.1511,11.1511,11.1511,11.1511,11.1511,11.1511,11.1511,11.1511,11.1511,11.1511,11.1511,11.1511,11.1511,11.1511,11.1511,11.2022,11.3483,11.3907,11.4484,11.5995,11.6418,11.6495,11.6495,11.6495,11.6495,11.6495,11.6495,11.6495,11.6495,11.6495,11.6495,11.6495,11.6495,11.6495,11.6495,11.6495,11.6495,11.6495,11.6495,11.6495,11.6495,11.6495,11.6495,9.6452,9.6626,9.7115,9.7662,9.8346,9.8931,9.922,9.9878,10.0489,10.0489,10.0489,10.0489,10.0489,10.0604,10.0909,10.17,10.1891,10.2514,10.4004,10.431,10.4692,10.5482,10.5686,10.5711,10.5711,10.7214,10.8207,10.8207,10.9812,11.0691,11.0691,11.0691,11.0691,11.0691,11.0691,11.0691,11.0691,11.0691,11.0691,11.0691,11.0691,11.0691,11.0691,11.0691,11.0691,11.0691,11.0691,11.0691,11.0691,11.0691,11.0691,11.0691,11.0691,11.0691,11.0704,11.0717,11.0918,11.1085,11.1096,11.1296,11.1511,11.1511,11.1511,11.1511,11.1511,11.1511,11.1511,11.1511,11.1511,11.1511,11.1511,11.1511,11.1511,11.1511,11.1511,11.1511,11.1511,11.1511,11.1511,11.1511,11.1511,11.1511,11.1511,11.1511,11.178,11.2588,11.3483,11.4291,11.5215,11.5995,11.6495,11.6495,11.6495,11.6495,11.6495,11.6495,11.6495,11.6495,11.6495,11.6495,11.6495,11.6495,11.6495,11.6495,11.6495,11.6495,11.6495,11.6495,11.6495,11.6495,11.6495,11.6495,9.6287,9.6754,9.7334,9.7789,9.8962,9.9937,9.9484,10.0482,10.1396,10.0692,10.0604,10.0604,10.0604,10.0604,10.0909,10.1776,10.24,10.3087,10.4195,10.4921,10.5418,10.5686,10.5711,10.5711,10.5711,10.6717,10.7596,10.8207,10.9201,11.0118,11.0691,11.0691,11.0691,11.0691,11.0691,11.0691,11.0691,11.0691,11.0691,11.0691,11.0691,11.0691,11.0691,11.0691,11.0691,11.0691,11.0691,11.0691,11.0691,11.0691,11.078,11.0818,11.0818,11.0906,11.0991,11.0991,11.1001,11.1096,11.1216,11.1296,11.1385,11.1489,11.1511,11.1511,11.1511,11.1511,11.1511,11.1511,11.1511,11.1511,11.1511,11.1511,11.1511,11.1511,11.1511,11.1511,11.1511,11.1511,11.1511,11.1511,11.1511,11.1511,11.1511,11.1511,11.2022,11.3291,11.3791,11.4484,11.5918,11.6303,11.6495,11.6495,11.6495,11.6495,11.6495,11.6495,11.6495,11.6495,11.6495,11.6495,11.6495,11.6495,11.6495,11.6495,11.6495,11.6495,11.6495,11.6495,11.6495,11.6495,11.6495,11.6495,9.6931,9.7588,9.8208,9.859,9.9586,10.0319,9.9904,10.0711,10.1396,10.0692,10.0604,10.0604,10.0604,10.0604,10.0909,10.1776,10.2591,10.352,10.431,10.5189,10.5711,10.5711,10.5711,10.5711,10.5711,10.6412,10.7099,10.7711,10.8819,10.9697,11.0194,11.05,11.0691,11.0691,11.0691,11.0691,11.0691,11.0691,11.0691,11.0691,11.0691,11.0691,11.0691,11.0691,11.0691,11.0691,11.0691,11.0691,11.0691,11.0691,11.0818,11.088,11.088,11.1004,11.1085,11.1085,11.1108,11.1205,11.1285,11.1302,11.1385,11.1489,11.1511,11.1511,11.1511,11.1511,11.1511,11.1511,11.1511,11.1511,11.1511,11.1511,11.1511,11.1511,11.1511,11.1511,11.1511,11.1511,11.1511,11.1511,11.1511,11.1511,11.1511,11.1511,11.1906,11.2983,11.3599,11.4407,11.5484,11.6187,11.6495,11.6495,11.6495,11.6495,11.6495,11.6495,11.6495,11.6495,11.6495,11.6495,11.6495,11.6495,11.6495,11.6495,11.6495,11.6495,11.6495,11.6495,11.6495,11.6495,11.6495,11.6495,0.0,0.0,0.0,10.0114,10.019,10.029,10.0495,10.0604,10.0604,10.0604,10.0604,10.0604,10.0604,10.0604,10.0909,10.17,10.2591,10.352,10.431,10.51,10.5686,10.5711,10.5711,10.5711,10.5711,10.6412,10.6908,10.6908,10.8398,10.9303,10.9379,11.0194,11.0691,11.0691,11.0691,11.0691,11.0691,11.0691,11.0691,11.0691,11.0691,11.0691,11.0691,11.0691,11.0691,11.0691,11.0704,11.0704,11.0704,11.0704,11.0818,11.0892,11.0892,11.1016,11.1096,11.1096,11.1205,11.1307,11.1307,11.1385,11.1511,11.1511,11.1511,11.1511,11.1511,11.1511,11.1511,11.1511,11.1511,11.1511,11.1511,11.1511,11.1511,11.1511,11.1511,11.1511,11.1511,11.1511,11.1511,11.1511,11.1511,11.1511,11.1511,11.1522,11.1483,11.1522,11.2906,11.3984,11.3984,11.5495,11.6495,11.6495,11.6495,11.6495,11.6495,11.6495,11.6495,11.6495,11.6495,11.6495,11.6495,11.6495,11.6495,11.6495,11.6495,11.6495,11.6495,11.6495,11.6495,11.6495,11.6495,11.6495,9.8545,0.0,0.0,0.0,0.0,0.0,10.0602,10.1112,10.1484,10.0692,10.0604,10.0604,10.0604,10.0604,10.0718,10.0909,10.1712,10.282,10.4195,10.4616,10.4998,10.5597,10.5711,10.5711,10.5711,10.5915,10.6297,10.6921,10.729,10.8093,10.9303,11.0194,11.0691,11.0691,11.0691,11.0691,11.0691,11.0691,11.0691,11.0691,11.0691,11.0691,11.0691,11.0691,11.0691,11.0704,11.0793,11.0792,11.0792,11.0792,11.1004,11.1205,11.1205,11.1285,11.1413,11.1296,11.1285,11.1307,11.1307,11.1291,11.1413,11.1489,11.1511,11.1511,11.1511,11.1511,11.1511,11.1511,11.1511,11.1511,11.1511,11.1511,11.1511,11.1511,11.1511,11.1511,11.1511,11.1511,11.1511,11.1511,11.1511,11.1511,11.1511,11.1508,11.1792,11.2408,11.3409,11.4305,11.4921,11.5885,11.6495,11.6495,11.6495,11.6495,11.6495,11.6495,11.6495,11.6495,11.6495,11.6495,11.6495,11.6495,11.6495,11.6495,11.6495,11.6495,11.6495,11.6495,11.6495,11.6495,11.6495,11.6495,9.9,9.9455,9.981,9.9904,0.0,0.0,10.1011,10.1001,10.0987,10.1193,10.0914,10.07,10.0615,10.0918,10.1094,10.0692,10.1012,10.1776,10.3202,10.4004,10.4616,10.5112,10.5495,10.5711,10.5711,10.5711,10.5915,10.6412,10.6679,10.7596,10.9303,10.9889,11.0309,11.0691,11.0691,11.0691,11.0691,11.0691,11.0691,11.0691,11.0691,11.0691,11.0691,11.0691,11.0691,11.0704,11.0792,11.0917,11.1016,11.0987,11.122,11.1307,11.1307,11.1385,11.1511,11.1407,11.1385,11.1385,11.1385,11.1385,11.1396,11.15,11.1511,11.1511,11.1511,11.1511,11.1511,11.1511,11.1511,11.1511,11.1511,11.1511,11.1511,11.1511,11.1511,11.1511,11.1511,11.1511,11.1511,11.1511,11.1511,11.1511,11.1511,11.1487,11.1704,11.2295,11.3114,11.379,11.4294,11.509,11.5692,11.5995,11.5984,11.6193,11.6495,11.6495,11.6495,11.6495,11.6495,11.6495,11.6495,11.6495,11.6495,11.6495,11.6495,11.6495,11.6495,11.6495,11.6495,11.6495,11.6495,11.6495,0.0,0.0,0.0,9.9796,9.9996,0.0,10.1292,10.0498,9.9977,10.1595,10.1311,10.0692,10.0577,10.1308,10.1583,10.0692,10.0604,10.0909,10.1776,10.3202,10.4195,10.4386,10.5112,10.5597,10.5711,10.5711,10.5711,10.5711,10.6412,10.7596,10.8997,10.9303,10.9812,11.05,11.0614,11.0691,11.0691,11.0691,11.0691,11.0691,11.0691,11.0691,11.0691,11.0691,11.0691,11.0704,11.0893,11.1016,11.1096,11.1389,11.1407,11.1291,11.1291,11.1396,11.1511,11.1511,11.1511,11.1511,11.1511,11.1511,11.1511,11.1511,11.1511,11.1511,11.1511,11.1511,11.1511,11.1511,11.1511,11.1511,11.1511,11.1511,11.1511,11.1511,11.1511,11.1511,11.1511,11.1511,11.1511,11.1511,11.1511,11.1522,11.1494,11.1504,11.1596,11.1594,11.2413,11.2993,11.3005,11.3787,11.4586,11.5282,11.5387,11.5692,11.638,11.6495,11.6495,11.6495,11.6495,11.6495,11.6495,11.6495,11.6495,11.6495,11.6495,11.6495,11.6495,11.6495,11.6495,11.6495,11.6495,11.6495,9.9812,9.9796,9.9796,9.9796,9.993,0.0,10.038,10.0314,10.0295,10.0806,10.0792,10.0589,10.0604,10.0818,10.078,10.0604,10.0604,10.0909,10.1776,10.2197,10.2896,10.4195,10.4616,10.4921,10.5597,10.5711,10.5711,10.5711,10.6412,10.6985,10.7405,10.8704,10.9494,10.9608,11.0309,11.0691,11.0691,11.0691,11.0691,11.0691,11.0691,11.0691,11.0691,11.0691,11.0691,11.0704,11.0991,11.1099,11.1223,11.2093,11.1978,11.1489,11.1489,11.15,11.1511,11.1511,11.1511,11.1511,11.1511,11.1511,11.1511,11.1511,11.1511,11.1511,11.1511,11.1511,11.1511,11.1511,11.1511,11.1511,11.1511,11.1511,11.1511,11.1511,11.1511,11.1511,11.1511,11.1511,11.1511,11.1511,11.1511,11.1504,11.1599,11.1691,11.179,11.1808,11.2599,11.3111,11.3206,11.3787,11.4586,11.5282,11.5387,11.5692,11.638,11.6495,11.6495,11.6495,11.6495,11.6495,11.6495,11.6495,11.6495,11.6495,11.6495,11.6495,11.6495,11.6495,11.6495,11.6495,11.6495,11.6495,9.9877,9.9796,9.9796,9.9796,9.9904,0.0,0.0,10.0304,9.9983,10.0989,10.0909,10.0604,10.0604,10.0994,10.122,10.0692,10.0604,10.0795,10.1203,10.1585,10.2197,10.3087,10.389,10.4616,10.4998,10.5406,10.5711,10.5711,10.6106,10.6488,10.6908,10.7711,10.8513,10.9379,10.9812,11.0309,11.0691,11.0691,11.0691,11.0691,11.0691,11.0691,11.0691,11.0691,11.0691,11.0717,11.1016,11.1085,11.1185,11.1808,11.2088,11.2088,11.2088,11.1906,11.1511,11.1511,11.1511,11.1511,11.1511,11.1511,11.1511,11.1511,11.1511,11.1511,11.1511,11.1511,11.1511,11.1511,11.1511,11.1511,11.1511,11.1511,11.1511,11.1511,11.1511,11.1511,11.1511,11.1511,11.1511,11.1511,11.1511,11.1515,11.1591,11.1691,11.1703,11.1902,11.2307,11.2596,11.2602,11.2907,11.3411,11.4201,11.4602,11.5097,11.589,11.6298,11.6495,11.6495,11.6495,11.6495,11.6495,11.6495,11.6495,11.6495,11.6495,11.6495,11.6495,11.6495,11.6495,11.6495,11.6495,11.6495,9.989,9.9796,9.9796,9.9796,9.9877,10.0199,0.0,0.0,0.0,10.1211,10.0977,10.0619,10.0607,10.1209,10.1495,10.0692,10.0604,10.0604,10.0604,10.1203,10.17,10.1891,10.3087,10.4004,10.4386,10.5189,10.5711,10.5711,10.5711,10.5991,10.6603,10.6794,10.7481,10.8895,10.9188,10.9685,11.0385,11.0614,11.0691,11.0691,11.0691,11.0691,11.0691,11.0691,11.0691,11.0717,11.1016,11.1085,11.1108,11.1616,11.2011,11.2522,11.2522,11.2214,11.1703,11.1588,11.1511,11.1511,11.1511,11.1511,11.1511,11.1511,11.1511,11.1511,11.1511,11.1511,11.1511,11.1511,11.1511,11.1511,11.1511,11.1511,11.1511,11.1511,11.1511,11.1511,11.1511,11.1511,11.1511,11.1511,11.1511,11.1515,11.1591,11.1612,11.1711,11.1904,11.1893,11.1882,11.1993,11.19,11.2193,11.3092,11.3717,11.4414,11.5279,11.6089,11.6495,11.6495,11.6495,11.6495,11.6495,11.6495,11.6495,11.6495,11.6495,11.6495,11.6495,11.6495,11.6495,11.6495,11.6495,11.6495,9.9944,9.9796,9.9796,9.9796,9.981,9.9888,10.0123,0.0,9.9961,10.0317,0.0,10.0387,10.0387,0.0,0.0,10.0604,10.0604,10.0604,10.0604,10.0718,10.1012,10.1815,10.2094,10.282,10.431,10.5189,10.5711,10.5711,10.5711,10.5711,10.5788,10.6488,10.6985,10.7214,10.8589,10.9417,10.9494,11.0309,11.0691,11.0691,11.0691,11.0691,11.0691,11.0691,11.0691,11.0717,11.1016,11.1085,11.1185,11.2192,11.2203,11.1588,11.1588,11.2011,11.2522,11.1791,11.1511,11.1511,11.1511,11.1511,11.1511,11.1511,11.1511,11.1511,11.1511,11.1511,11.1511,11.1511,11.1511,11.1511,11.1511,11.1511,11.1511,11.1511,11.1511,11.1511,11.1511,11.1511,11.1511,11.1511,11.1511,11.1515,11.1591,11.1612,11.1614,11.1809,11.179,11.179,11.1799,11.1799,11.2098,11.2886,11.3587,11.4382,11.5209,11.5995,11.6495,11.6495,11.6495,11.6495,11.6495,11.6495,11.6495,11.6495,11.6495,11.6495,11.6495,11.6495,11.6495,11.6495,11.6495,11.6495,9.9904,9.9917,10.001,9.9837,9.9917,10.0023,9.9904,9.989,9.993,10.0113,0.0,0.0,0.0,0.0,0.0,0.0,10.0604,10.0604,10.0604,10.0604,10.0718,10.1089,10.2018,10.3302,10.5106,10.5615,10.5795,10.5795,10.5684,10.5711,10.5711,10.5991,10.6412,10.6908,10.7596,10.8398,10.9379,10.9812,11.0194,11.0691,11.0691,11.0691,11.0691,11.0691,11.0691,11.0717,11.1016,11.1085,11.1096,11.1808,11.2088,11.2088,11.1703,11.1703,11.2022,11.1588,11.1511,11.1511,11.1511,11.1511,11.1511,11.1511,11.1511,11.1511,11.1511,11.1511,11.1511,11.1511,11.1511,11.1511,11.1511,11.1511,11.1511,11.1511,11.1511,11.1511,11.1511,11.1511,11.1511,11.1511,11.1511,11.1494,11.1498,11.1599,11.1604,11.1799,11.1809,11.1809,11.1809,11.1712,11.1789,11.2291,11.2993,11.3818,11.4599,11.5394,11.5984,11.6495,11.6495,11.6495,11.6495,11.6495,11.6495,11.6495,11.6495,11.6495,11.6495,11.6495,11.6495,11.6495,11.6495,11.6495,9.9194,9.9412,9.972,9.9509,9.9767,10.0011,9.9837,9.9796,9.9823,9.993,10.0113,0.0,0.0,0.0,10.0595,10.0592,0.0,10.0604,10.0604,10.0604,10.0604,10.0604,10.1903,10.3517,10.4989,10.5409,10.5601,10.5792,10.5811,10.5711,10.5711,10.5711,10.5991,10.6603,10.6794,10.7481,10.8704,10.901,10.9506,11.0309,11.0309,11.05,11.0691,11.0691,11.0691,11.0717,11.1016,11.1085,11.1108,11.1385,11.178,11.228,11.1703,11.1511,11.1511,11.1511,11.1511,11.1511,11.1511,11.1511,11.1511,11.1511,11.1511,11.1511,11.1511,11.1511,11.1511,11.1511,11.1511,11.1511,11.1511,11.1511,11.1511,11.1511,11.1511,11.1511,11.1511,11.1511,11.1511,11.1511,11.1511,11.1511,11.1511,11.1508,11.1591,11.1711,11.1682,11.1692,11.1683,11.1701,11.1682,11.1904,11.2523,11.3291,11.419,11.5016,11.5692,11.6495,11.6495,11.6495,11.6495,11.6495,11.6495,11.6495,11.6495,11.6495,11.6495,11.6495,11.6495,11.6495,11.6495,11.6495,9.7436,9.8015,9.8673,9.8659,9.9228,9.981,9.9796,9.9796,9.9796,9.9796,9.9917,9.9986,10.0203,10.029,10.0411,0.0,10.0604,0.0,0.0,10.0604,10.0604,10.0604,10.1406,10.2285,10.3214,10.4016,10.4807,10.5609,10.5686,10.5711,10.5711,10.5711,10.5711,10.5711,10.6488,10.6908,10.6985,10.7787,10.8589,10.9417,10.9417,10.9889,11.0691,11.0691,11.0691,11.0717,11.1016,11.1085,11.1108,11.1385,11.1511,11.1511,11.1511,11.1511,11.1511,11.1511,11.1511,11.1511,11.1511,11.1511,11.1511,11.1511,11.1511,11.1511,11.1511,11.1511,11.1511,11.1511,11.1511,11.1511,11.1511,11.1511,11.1511,11.1511,11.1511,11.1511,11.1511,11.1511,11.1511,11.1511,11.1511,11.1511,11.1511,11.1522,11.1483,11.1483,11.1483,11.1487,11.1602,11.1612,11.1691,11.1799,11.2504,11.3303,11.4011,11.4887,11.5692,11.6495,11.6495,11.6495,11.6495,11.6495,11.6495,11.6495,11.6495,11.6495,11.6495,11.6495,11.6495,11.6495,11.6495,11.6495,9.746,9.8592,9.9719,9.8946,9.9924,10.0887,10.0123,9.9864,9.9672,9.9234,9.9604,9.9885,9.9579,9.9996,0.0,0.0,0.0,10.0607,0.0,10.0507,10.0604,10.0604,10.14,10.2414,10.3217,10.4102,10.4798,10.5105,10.6101,10.6487,10.5895,10.6304,10.6306,10.5686,10.5991,10.6412,10.6908,10.7214,10.7787,10.8589,10.9112,10.9621,10.9889,11.0385,11.0691,11.0717,11.1016,11.1085,11.1108,11.1385,11.1511,11.1511,11.1511,11.1511,11.1511,11.1511,11.1511,11.1511,11.1511,11.1511,11.1511,11.1511,11.1511,11.1511,11.1511,11.1511,11.1511,11.1511,11.1511,11.1511,11.1511,11.1511,11.1511,11.1511,11.1511,11.1511,11.1511,11.1511,11.1511,11.1511,11.1511,11.1511,11.1511,11.1511,11.1511,11.1511,11.1511,11.1494,11.1487,11.1498,11.1617,11.1691,11.1894,11.2616,11.4,11.5285,11.6182,11.6495,11.6495,11.6495,11.6495,11.6495,11.6495,11.6495,11.6495,11.6495,11.6495,11.6495,11.6495,11.6495,11.6495,11.6495,9.6575,9.768,9.8793,9.8034,9.9036,10.01,9.9682,9.9526,9.9411,9.9275,9.9669,9.9987,9.9629,9.9996,0.0,0.0,0.0,0.0,0.0,10.0507,10.0718,10.1012,10.14,10.2004,10.3198,10.3895,10.4388,10.4702,10.6005,10.6507,10.5889,10.6413,10.6493,10.6217,10.5901,10.5903,10.6488,10.6488,10.6908,10.7711,10.8284,10.8704,10.8997,10.9889,11.0296,11.0321,11.0913,11.1108,11.1205,11.1396,11.1511,11.1511,11.1511,11.1511,11.1511,11.1511,11.1511,11.1511,11.1511,11.1511,11.1511,11.1511,11.1511,11.1511,11.1511,11.1511,11.1588,11.2203,11.2022,11.1588,11.2203,11.1895,11.1511,11.1511,11.1511,11.1511,11.1511,11.1511,11.1511,11.1511,11.1511,11.1511,11.1511,11.1511,11.1511,11.1511,11.1511,11.1494,11.1487,11.1498,11.1578,11.1691,11.1711,11.2307,11.4,11.5599,11.6495,11.6495,11.6495,11.6495,11.6495,11.6495,11.6907,11.7792,11.6995,11.6907,11.7792,11.6907,11.6495,11.6495,11.6495,11.6495]}]]